<?xml version="1.0" encoding="UTF-8" standalone="no" ?>
<gpx xmlns="http://www.topografix.com/GPX/1/1" xmlns:xsi="http://www.w3.org/2001/XMLSchema-instance" xsi:schemaLocation="http://www.topografix.com/GPX/1/1 http://www.topografix.com/GPX/1/1/gpx.xsd" version="1.1" creator="VisuGPX - https://www.visugpx.com">
  <metadata>
    <name>Col alexandre</name>
    <desc><![CDATA[Tout petit col]]></desc>
  </metadata>
  <trk>
    <name><![CDATA[Col Alexandre]]></name>
    <cmt><![CDATA[Thierry 1&2, Bruno, Jacques, Patrick Aimé, Claude, Pascal Alain Edouard Damien(c'est le bordel on en perd4)]]></cmt>
    <trkseg>
      <trkpt lat="45.11582" lon="4.96415">
        <ele>197.30599975586</ele>
        <time>2010-01-16T12:19:20Z</time>
      </trkpt>
      <trkpt lat="45.11582" lon="4.96415">
        <ele>197.22999572754</ele>
        <time>2010-01-16T12:19:21Z</time>
      </trkpt>
      <trkpt lat="45.11582" lon="4.96415">
        <ele>197.12699890137</ele>
        <time>2010-01-16T12:19:48Z</time>
      </trkpt>
      <trkpt lat="45.11582" lon="4.96415">
        <ele>196.86099243164</ele>
        <time>2010-01-16T12:19:49Z</time>
      </trkpt>
      <trkpt lat="45.11581" lon="4.96439">
        <ele>196.34800720215</ele>
        <time>2010-01-16T12:19:57Z</time>
      </trkpt>
      <trkpt lat="45.11581" lon="4.96447">
        <ele>195.87899780273</ele>
        <time>2010-01-16T12:19:59Z</time>
      </trkpt>
      <trkpt lat="45.11581" lon="4.96451">
        <ele>196.10499572754</ele>
        <time>2010-01-16T12:20:00Z</time>
      </trkpt>
      <trkpt lat="45.11581" lon="4.96454">
        <ele>196.17399597168</ele>
        <time>2010-01-16T12:20:01Z</time>
      </trkpt>
      <trkpt lat="45.11583" lon="4.96389">
        <ele>196.54100036621</ele>
        <time>2010-01-16T12:20:04Z</time>
      </trkpt>
      <trkpt lat="45.11581" lon="4.96454">
        <ele>196.41799926758</ele>
        <time>2010-01-16T12:20:05Z</time>
      </trkpt>
      <trkpt lat="45.11575" lon="4.96451">
        <ele>196.63000488281</ele>
        <time>2010-01-16T12:20:08Z</time>
      </trkpt>
      <trkpt lat="45.11581" lon="4.96454">
        <ele>196.63400268555</ele>
        <time>2010-01-16T12:20:10Z</time>
      </trkpt>
      <trkpt lat="45.1158" lon="4.96456">
        <ele>196.63000488281</ele>
        <time>2010-01-16T12:20:12Z</time>
      </trkpt>
      <trkpt lat="45.1158" lon="4.96457">
        <ele>196.41700744629</ele>
        <time>2010-01-16T12:20:13Z</time>
      </trkpt>
      <trkpt lat="45.1158" lon="4.96473">
        <ele>196.0299987793</ele>
        <time>2010-01-16T12:20:17Z</time>
      </trkpt>
      <trkpt lat="45.11579" lon="4.96505">
        <ele>195.72099304199</ele>
        <time>2010-01-16T12:20:23Z</time>
      </trkpt>
      <trkpt lat="45.11579" lon="4.96505">
        <ele>195.64799499512</ele>
        <time>2010-01-16T12:20:24Z</time>
      </trkpt>
      <trkpt lat="45.11605" lon="4.96566">
        <ele>195.44299316406</ele>
        <time>2010-01-16T12:20:31Z</time>
      </trkpt>
      <trkpt lat="45.11621" lon="4.96603">
        <ele>195.82000732422</ele>
        <time>2010-01-16T12:20:37Z</time>
      </trkpt>
      <trkpt lat="45.11654" lon="4.96688">
        <ele>196.32200622559</ele>
        <time>2010-01-16T12:20:45Z</time>
      </trkpt>
      <trkpt lat="45.11676" lon="4.96741">
        <ele>196.89199829102</ele>
        <time>2010-01-16T12:20:51Z</time>
      </trkpt>
      <trkpt lat="45.1171" lon="4.96799">
        <ele>197.30400085449</ele>
        <time>2010-01-16T12:20:58Z</time>
      </trkpt>
      <trkpt lat="45.11722" lon="4.96813">
        <ele>197.31700134277</ele>
        <time>2010-01-16T12:21:00Z</time>
      </trkpt>
      <trkpt lat="45.11737" lon="4.96831">
        <ele>197.99600219727</ele>
        <time>2010-01-16T12:21:05Z</time>
      </trkpt>
      <trkpt lat="45.11761" lon="4.96907">
        <ele>197.91200256348</ele>
        <time>2010-01-16T12:21:09Z</time>
      </trkpt>
      <trkpt lat="45.11827" lon="4.9698">
        <ele>197.70300292969</ele>
        <time>2010-01-16T12:21:20Z</time>
      </trkpt>
      <trkpt lat="45.11865" lon="4.97037">
        <ele>198.15899658203</ele>
        <time>2010-01-16T12:21:27Z</time>
      </trkpt>
      <trkpt lat="45.11883" lon="4.97063">
        <ele>199.2380065918</ele>
        <time>2010-01-16T12:21:31Z</time>
      </trkpt>
      <trkpt lat="45.1188" lon="4.97121">
        <ele>198.85499572754</ele>
        <time>2010-01-16T12:21:35Z</time>
      </trkpt>
      <trkpt lat="45.11879" lon="4.97142">
        <ele>197.67799377441</ele>
        <time>2010-01-16T12:21:37Z</time>
      </trkpt>
      <trkpt lat="45.11892" lon="4.97252">
        <ele>196.33399963379</ele>
        <time>2010-01-16T12:21:47Z</time>
      </trkpt>
      <trkpt lat="45.11906" lon="4.97334">
        <ele>196.96099853516</ele>
        <time>2010-01-16T12:21:54Z</time>
      </trkpt>
      <trkpt lat="45.11922" lon="4.97425">
        <ele>197.09800720215</ele>
        <time>2010-01-16T12:22:02Z</time>
      </trkpt>
      <trkpt lat="45.11941" lon="4.97524">
        <ele>198.53100585938</ele>
        <time>2010-01-16T12:22:11Z</time>
      </trkpt>
      <trkpt lat="45.11952" lon="4.97588">
        <ele>199.45199584961</ele>
        <time>2010-01-16T12:22:17Z</time>
      </trkpt>
      <trkpt lat="45.11956" lon="4.97609">
        <ele>199.60099792481</ele>
        <time>2010-01-16T12:22:19Z</time>
      </trkpt>
      <trkpt lat="45.11973" lon="4.97708">
        <ele>199.40400695801</ele>
        <time>2010-01-16T12:22:28Z</time>
      </trkpt>
      <trkpt lat="45.11998" lon="4.97839">
        <ele>199.99200439453</ele>
        <time>2010-01-16T12:22:40Z</time>
      </trkpt>
      <trkpt lat="45.12017" lon="4.97944">
        <ele>200.66400146484</ele>
        <time>2010-01-16T12:22:50Z</time>
      </trkpt>
      <trkpt lat="45.12044" lon="4.98068">
        <ele>202.38999938965</ele>
        <time>2010-01-16T12:23:02Z</time>
      </trkpt>
      <trkpt lat="45.12059" lon="4.98142">
        <ele>203.69400024414</ele>
        <time>2010-01-16T12:23:09Z</time>
      </trkpt>
      <trkpt lat="45.12067" lon="4.98217">
        <ele>203.69599914551</ele>
        <time>2010-01-16T12:23:16Z</time>
      </trkpt>
      <trkpt lat="45.1206" lon="4.9829">
        <ele>204.05900573731</ele>
        <time>2010-01-16T12:23:23Z</time>
      </trkpt>
      <trkpt lat="45.12054" lon="4.98334">
        <ele>203.96299743652</ele>
        <time>2010-01-16T12:23:28Z</time>
      </trkpt>
      <trkpt lat="45.12049" lon="4.98368">
        <ele>204.33700561523</ele>
        <time>2010-01-16T12:23:33Z</time>
      </trkpt>
      <trkpt lat="45.12048" lon="4.9838">
        <ele>204.97799682617</ele>
        <time>2010-01-16T12:23:35Z</time>
      </trkpt>
      <trkpt lat="45.12032" lon="4.98405">
        <ele>205.34700012207</ele>
        <time>2010-01-16T12:23:40Z</time>
      </trkpt>
      <trkpt lat="45.1203" lon="4.98409">
        <ele>204.74099731445</ele>
        <time>2010-01-16T12:23:41Z</time>
      </trkpt>
      <trkpt lat="45.11998" lon="4.98394">
        <ele>204.05299377441</ele>
        <time>2010-01-16T12:23:46Z</time>
      </trkpt>
      <trkpt lat="45.11979" lon="4.98385">
        <ele>203.74200439453</ele>
        <time>2010-01-16T12:23:50Z</time>
      </trkpt>
      <trkpt lat="45.11978" lon="4.98414">
        <ele>203.32899475098</ele>
        <time>2010-01-16T12:23:53Z</time>
      </trkpt>
      <trkpt lat="45.11978" lon="4.98435">
        <ele>203.42199707031</ele>
        <time>2010-01-16T12:23:57Z</time>
      </trkpt>
      <trkpt lat="45.11998" lon="4.98395">
        <ele>203.69999694824</ele>
        <time>2010-01-16T12:24:01Z</time>
      </trkpt>
      <trkpt lat="45.12003" lon="4.98397">
        <ele>203.91499328613</ele>
        <time>2010-01-16T12:24:03Z</time>
      </trkpt>
      <trkpt lat="45.12014" lon="4.98403">
        <ele>203.97500610352</ele>
        <time>2010-01-16T12:24:08Z</time>
      </trkpt>
      <trkpt lat="45.12019" lon="4.98405">
        <ele>203.88900756836</ele>
        <time>2010-01-16T12:24:12Z</time>
      </trkpt>
      <trkpt lat="45.1202" lon="4.98406">
        <ele>202.66400146484</ele>
        <time>2010-01-16T12:24:15Z</time>
      </trkpt>
      <trkpt lat="45.12017" lon="4.98404">
        <ele>204.42100524902</ele>
        <time>2010-01-16T12:35:00Z</time>
      </trkpt>
      <trkpt lat="45.12015" lon="4.98403">
        <ele>204.50900268555</ele>
        <time>2010-01-16T12:35:02Z</time>
      </trkpt>
      <trkpt lat="45.12005" lon="4.98398">
        <ele>204.25300598144</ele>
        <time>2010-01-16T12:35:08Z</time>
      </trkpt>
      <trkpt lat="45.12003" lon="4.98397">
        <ele>204.25300598144</ele>
        <time>2010-01-16T12:35:09Z</time>
      </trkpt>
      <trkpt lat="45.11988" lon="4.9839">
        <ele>203.74899291992</ele>
        <time>2010-01-16T12:35:15Z</time>
      </trkpt>
      <trkpt lat="45.11985" lon="4.98388">
        <ele>203.69200134277</ele>
        <time>2010-01-16T12:35:16Z</time>
      </trkpt>
      <trkpt lat="45.11978" lon="4.9839">
        <ele>203.4940032959</ele>
        <time>2010-01-16T12:35:20Z</time>
      </trkpt>
      <trkpt lat="45.1199" lon="4.98391">
        <ele>203.88200378418</ele>
        <time>2010-01-16T12:35:23Z</time>
      </trkpt>
      <trkpt lat="45.11994" lon="4.98393">
        <ele>204.04100036621</ele>
        <time>2010-01-16T12:35:24Z</time>
      </trkpt>
      <trkpt lat="45.12023" lon="4.98407">
        <ele>205.20100402832</ele>
        <time>2010-01-16T12:35:32Z</time>
      </trkpt>
      <trkpt lat="45.12029" lon="4.9841">
        <ele>205.79200744629</ele>
        <time>2010-01-16T12:35:34Z</time>
      </trkpt>
      <trkpt lat="45.12029" lon="4.98423">
        <ele>205.88000488281</ele>
        <time>2010-01-16T12:35:36Z</time>
      </trkpt>
      <trkpt lat="45.12026" lon="4.98439">
        <ele>206.06199645996</ele>
        <time>2010-01-16T12:35:39Z</time>
      </trkpt>
      <trkpt lat="45.1202" lon="4.98462">
        <ele>205.80000305176</ele>
        <time>2010-01-16T12:35:46Z</time>
      </trkpt>
      <trkpt lat="45.12016" lon="4.98536">
        <ele>206.26600646973</ele>
        <time>2010-01-16T12:35:54Z</time>
      </trkpt>
      <trkpt lat="45.12016" lon="4.98571">
        <ele>205.84800720215</ele>
        <time>2010-01-16T12:35:59Z</time>
      </trkpt>
      <trkpt lat="45.1202" lon="4.98636">
        <ele>205.5299987793</ele>
        <time>2010-01-16T12:36:08Z</time>
      </trkpt>
      <trkpt lat="45.1203" lon="4.98703">
        <ele>205.45799255371</ele>
        <time>2010-01-16T12:36:17Z</time>
      </trkpt>
      <trkpt lat="45.1204" lon="4.9874">
        <ele>205.89599609375</ele>
        <time>2010-01-16T12:36:22Z</time>
      </trkpt>
      <trkpt lat="45.12065" lon="4.98819">
        <ele>206.26499938965</ele>
        <time>2010-01-16T12:36:33Z</time>
      </trkpt>
      <trkpt lat="45.12076" lon="4.98847">
        <ele>206.19799804688</ele>
        <time>2010-01-16T12:36:37Z</time>
      </trkpt>
      <trkpt lat="45.12113" lon="4.98926">
        <ele>206.72900390625</ele>
        <time>2010-01-16T12:36:49Z</time>
      </trkpt>
      <trkpt lat="45.12154" lon="4.98987">
        <ele>208.85200500488</ele>
        <time>2010-01-16T12:37:00Z</time>
      </trkpt>
      <trkpt lat="45.12178" lon="4.99017">
        <ele>210.49699401856</ele>
        <time>2010-01-16T12:37:06Z</time>
      </trkpt>
      <trkpt lat="45.12197" lon="4.99039">
        <ele>211.8630065918</ele>
        <time>2010-01-16T12:37:11Z</time>
      </trkpt>
      <trkpt lat="45.12201" lon="4.99044">
        <ele>211.80200195312</ele>
        <time>2010-01-16T12:37:12Z</time>
      </trkpt>
      <trkpt lat="45.12209" lon="4.99054">
        <ele>212.51800537109</ele>
        <time>2010-01-16T12:37:17Z</time>
      </trkpt>
      <trkpt lat="45.12214" lon="4.991">
        <ele>211.875</ele>
        <time>2010-01-16T12:37:21Z</time>
      </trkpt>
      <trkpt lat="45.12198" lon="4.99166">
        <ele>210.86599731445</ele>
        <time>2010-01-16T12:37:29Z</time>
      </trkpt>
      <trkpt lat="45.12182" lon="4.99227">
        <ele>211.12699890137</ele>
        <time>2010-01-16T12:37:36Z</time>
      </trkpt>
      <trkpt lat="45.12157" lon="4.99322">
        <ele>211.88999938965</ele>
        <time>2010-01-16T12:37:47Z</time>
      </trkpt>
      <trkpt lat="45.12137" lon="4.99397">
        <ele>211.88400268555</ele>
        <time>2010-01-16T12:37:56Z</time>
      </trkpt>
      <trkpt lat="45.12115" lon="4.99453">
        <ele>211.49800109863</ele>
        <time>2010-01-16T12:38:03Z</time>
      </trkpt>
      <trkpt lat="45.12088" lon="4.99507">
        <ele>212.62300109863</ele>
        <time>2010-01-16T12:38:11Z</time>
      </trkpt>
      <trkpt lat="45.12047" lon="4.9958">
        <ele>213.09800720215</ele>
        <time>2010-01-16T12:38:23Z</time>
      </trkpt>
      <trkpt lat="45.12007" lon="4.99652">
        <ele>213.6309967041</ele>
        <time>2010-01-16T12:38:34Z</time>
      </trkpt>
      <trkpt lat="45.11963" lon="4.99733">
        <ele>213.60800170898</ele>
        <time>2010-01-16T12:38:46Z</time>
      </trkpt>
      <trkpt lat="45.11919" lon="4.99792">
        <ele>214.10299682617</ele>
        <time>2010-01-16T12:38:56Z</time>
      </trkpt>
      <trkpt lat="45.11891" lon="4.99824">
        <ele>215.31399536133</ele>
        <time>2010-01-16T12:39:03Z</time>
      </trkpt>
      <trkpt lat="45.1185" lon="4.99856">
        <ele>217.85600280762</ele>
        <time>2010-01-16T12:39:12Z</time>
      </trkpt>
      <trkpt lat="45.11819" lon="4.99869">
        <ele>219.85299682617</ele>
        <time>2010-01-16T12:39:20Z</time>
      </trkpt>
      <trkpt lat="45.11788" lon="4.99881">
        <ele>222.18600463867</ele>
        <time>2010-01-16T12:39:28Z</time>
      </trkpt>
      <trkpt lat="45.11753" lon="4.99894">
        <ele>224.27000427246</ele>
        <time>2010-01-16T12:39:37Z</time>
      </trkpt>
      <trkpt lat="45.11731" lon="4.99903">
        <ele>225.76300048828</ele>
        <time>2010-01-16T12:39:43Z</time>
      </trkpt>
      <trkpt lat="45.11692" lon="4.9992">
        <ele>228.54699707031</ele>
        <time>2010-01-16T12:39:54Z</time>
      </trkpt>
      <trkpt lat="45.11666" lon="4.99939">
        <ele>230.66299438477</ele>
        <time>2010-01-16T12:40:02Z</time>
      </trkpt>
      <trkpt lat="45.11642" lon="4.99963">
        <ele>232.66200256348</ele>
        <time>2010-01-16T12:40:10Z</time>
      </trkpt>
      <trkpt lat="45.11616" lon="4.99996">
        <ele>234.11799621582</ele>
        <time>2010-01-16T12:40:19Z</time>
      </trkpt>
      <trkpt lat="45.11604" lon="5.00015">
        <ele>235.41700744629</ele>
        <time>2010-01-16T12:40:28Z</time>
      </trkpt>
      <trkpt lat="45.11559" lon="5.00074">
        <ele>236.47900390625</ele>
        <time>2010-01-16T12:40:39Z</time>
      </trkpt>
      <trkpt lat="45.11529" lon="5.00104">
        <ele>237.32000732422</ele>
        <time>2010-01-16T12:40:47Z</time>
      </trkpt>
      <trkpt lat="45.11487" lon="5.00143">
        <ele>237.34399414062</ele>
        <time>2010-01-16T12:40:57Z</time>
      </trkpt>
      <trkpt lat="45.11447" lon="5.00179">
        <ele>238.42199707031</ele>
        <time>2010-01-16T12:41:06Z</time>
      </trkpt>
      <trkpt lat="45.11387" lon="5.00232">
        <ele>238.68099975586</ele>
        <time>2010-01-16T12:41:19Z</time>
      </trkpt>
      <trkpt lat="45.11332" lon="5.0028">
        <ele>239.30299377441</ele>
        <time>2010-01-16T12:41:31Z</time>
      </trkpt>
      <trkpt lat="45.11293" lon="5.00315">
        <ele>239.19299316406</ele>
        <time>2010-01-16T12:41:40Z</time>
      </trkpt>
      <trkpt lat="45.11243" lon="5.00344">
        <ele>241.78399658203</ele>
        <time>2010-01-16T12:41:51Z</time>
      </trkpt>
      <trkpt lat="45.112" lon="5.00366">
        <ele>243.63400268555</ele>
        <time>2010-01-16T12:42:01Z</time>
      </trkpt>
      <trkpt lat="45.11155" lon="5.00389">
        <ele>245.5299987793</ele>
        <time>2010-01-16T12:42:12Z</time>
      </trkpt>
      <trkpt lat="45.11135" lon="5.004">
        <ele>247.79400634766</ele>
        <time>2010-01-16T12:42:17Z</time>
      </trkpt>
      <trkpt lat="45.11102" lon="5.00419">
        <ele>249.02799987793</ele>
        <time>2010-01-16T12:42:26Z</time>
      </trkpt>
      <trkpt lat="45.11095" lon="5.00423">
        <ele>250.15400695801</ele>
        <time>2010-01-16T12:42:28Z</time>
      </trkpt>
      <trkpt lat="45.11081" lon="5.00431">
        <ele>250.98100280762</ele>
        <time>2010-01-16T12:42:32Z</time>
      </trkpt>
      <trkpt lat="45.11049" lon="5.00452">
        <ele>252.56300354004</ele>
        <time>2010-01-16T12:42:41Z</time>
      </trkpt>
      <trkpt lat="45.11009" lon="5.00479">
        <ele>254.04600524902</ele>
        <time>2010-01-16T12:42:52Z</time>
      </trkpt>
      <trkpt lat="45.10965" lon="5.00509">
        <ele>256.64999389648</ele>
        <time>2010-01-16T12:43:04Z</time>
      </trkpt>
      <trkpt lat="45.10926" lon="5.00536">
        <ele>256.97100830078</ele>
        <time>2010-01-16T12:43:14Z</time>
      </trkpt>
      <trkpt lat="45.10888" lon="5.00557">
        <ele>256.80899047852</ele>
        <time>2010-01-16T12:43:22Z</time>
      </trkpt>
      <trkpt lat="45.10851" lon="5.00563">
        <ele>254.9640045166</ele>
        <time>2010-01-16T12:43:28Z</time>
      </trkpt>
      <trkpt lat="45.1083" lon="5.00567">
        <ele>253.67500305176</ele>
        <time>2010-01-16T12:43:31Z</time>
      </trkpt>
      <trkpt lat="45.10772" lon="5.0058">
        <ele>250.35899353027</ele>
        <time>2010-01-16T12:43:38Z</time>
      </trkpt>
      <trkpt lat="45.10745" lon="5.00586">
        <ele>248.62899780273</ele>
        <time>2010-01-16T12:43:41Z</time>
      </trkpt>
      <trkpt lat="45.10697" lon="5.00596">
        <ele>246.02600097656</ele>
        <time>2010-01-16T12:43:46Z</time>
      </trkpt>
      <trkpt lat="45.10636" lon="5.00619">
        <ele>242.3390045166</ele>
        <time>2010-01-16T12:43:52Z</time>
      </trkpt>
      <trkpt lat="45.10587" lon="5.00651">
        <ele>240.58999633789</ele>
        <time>2010-01-16T12:43:57Z</time>
      </trkpt>
      <trkpt lat="45.10549" lon="5.00683">
        <ele>240.12300109863</ele>
        <time>2010-01-16T12:44:01Z</time>
      </trkpt>
      <trkpt lat="45.10474" lon="5.00748">
        <ele>236.04499816894</ele>
        <time>2010-01-16T12:44:09Z</time>
      </trkpt>
      <trkpt lat="45.10429" lon="5.00783">
        <ele>237.55000305176</ele>
        <time>2010-01-16T12:44:14Z</time>
      </trkpt>
      <trkpt lat="45.10383" lon="5.00826">
        <ele>235.30700683594</ele>
        <time>2010-01-16T12:44:20Z</time>
      </trkpt>
      <trkpt lat="45.10335" lon="5.00867">
        <ele>234.88800048828</ele>
        <time>2010-01-16T12:44:27Z</time>
      </trkpt>
      <trkpt lat="45.1029" lon="5.00901">
        <ele>234.55099487305</ele>
        <time>2010-01-16T12:44:35Z</time>
      </trkpt>
      <trkpt lat="45.1025" lon="5.00931">
        <ele>234.71600341797</ele>
        <time>2010-01-16T12:44:43Z</time>
      </trkpt>
      <trkpt lat="45.10246" lon="5.00934">
        <ele>235.45899963379</ele>
        <time>2010-01-16T12:44:44Z</time>
      </trkpt>
      <trkpt lat="45.10217" lon="5.00967">
        <ele>235.40800476074</ele>
        <time>2010-01-16T12:44:51Z</time>
      </trkpt>
      <trkpt lat="45.10186" lon="5.0101">
        <ele>235.96899414062</ele>
        <time>2010-01-16T12:44:59Z</time>
      </trkpt>
      <trkpt lat="45.10151" lon="5.01062">
        <ele>236.43899536133</ele>
        <time>2010-01-16T12:45:08Z</time>
      </trkpt>
      <trkpt lat="45.10115" lon="5.01127">
        <ele>237.94599914551</ele>
        <time>2010-01-16T12:45:18Z</time>
      </trkpt>
      <trkpt lat="45.10094" lon="5.01169">
        <ele>238.35099792481</ele>
        <time>2010-01-16T12:45:24Z</time>
      </trkpt>
      <trkpt lat="45.10085" lon="5.01231">
        <ele>238.14700317383</ele>
        <time>2010-01-16T12:45:31Z</time>
      </trkpt>
      <trkpt lat="45.10076" lon="5.01315">
        <ele>238.06399536133</ele>
        <time>2010-01-16T12:45:40Z</time>
      </trkpt>
      <trkpt lat="45.10064" lon="5.01428">
        <ele>237.82200622559</ele>
        <time>2010-01-16T12:45:51Z</time>
      </trkpt>
      <trkpt lat="45.10057" lon="5.01531">
        <ele>237.30400085449</ele>
        <time>2010-01-16T12:46:01Z</time>
      </trkpt>
      <trkpt lat="45.10051" lon="5.01627">
        <ele>237.46899414062</ele>
        <time>2010-01-16T12:46:10Z</time>
      </trkpt>
      <trkpt lat="45.10034" lon="5.01686">
        <ele>237.32299804688</ele>
        <time>2010-01-16T12:46:16Z</time>
      </trkpt>
      <trkpt lat="45.10008" lon="5.01764">
        <ele>237.58399963379</ele>
        <time>2010-01-16T12:46:25Z</time>
      </trkpt>
      <trkpt lat="45.09983" lon="5.01836">
        <ele>239.36999511719</ele>
        <time>2010-01-16T12:46:34Z</time>
      </trkpt>
      <trkpt lat="45.09961" lon="5.019">
        <ele>241.51499938965</ele>
        <time>2010-01-16T12:46:42Z</time>
      </trkpt>
      <trkpt lat="45.09945" lon="5.01947">
        <ele>242.53199768066</ele>
        <time>2010-01-16T12:46:48Z</time>
      </trkpt>
      <trkpt lat="45.09917" lon="5.02023">
        <ele>244.84599304199</ele>
        <time>2010-01-16T12:46:58Z</time>
      </trkpt>
      <trkpt lat="45.09889" lon="5.021">
        <ele>247.59899902344</ele>
        <time>2010-01-16T12:47:08Z</time>
      </trkpt>
      <trkpt lat="45.09881" lon="5.02122">
        <ele>248.89700317383</ele>
        <time>2010-01-16T12:47:11Z</time>
      </trkpt>
      <trkpt lat="45.0986" lon="5.02186">
        <ele>251.40800476074</ele>
        <time>2010-01-16T12:47:20Z</time>
      </trkpt>
      <trkpt lat="45.09849" lon="5.02246">
        <ele>254.87600708008</ele>
        <time>2010-01-16T12:47:29Z</time>
      </trkpt>
      <trkpt lat="45.09845" lon="5.02269">
        <ele>256.09298706055</ele>
        <time>2010-01-16T12:47:33Z</time>
      </trkpt>
      <trkpt lat="45.09857" lon="5.02325">
        <ele>258.9460144043</ele>
        <time>2010-01-16T12:47:42Z</time>
      </trkpt>
      <trkpt lat="45.0987" lon="5.02374">
        <ele>260.29699707031</ele>
        <time>2010-01-16T12:47:51Z</time>
      </trkpt>
      <trkpt lat="45.09883" lon="5.02422">
        <ele>259.83999633789</ele>
        <time>2010-01-16T12:47:59Z</time>
      </trkpt>
      <trkpt lat="45.09897" lon="5.0246">
        <ele>258.11801147461</ele>
        <time>2010-01-16T12:48:04Z</time>
      </trkpt>
      <trkpt lat="45.09904" lon="5.02479">
        <ele>257.37701416016</ele>
        <time>2010-01-16T12:48:06Z</time>
      </trkpt>
      <trkpt lat="45.09912" lon="5.02499">
        <ele>256.52801513672</ele>
        <time>2010-01-16T12:48:08Z</time>
      </trkpt>
      <trkpt lat="45.09924" lon="5.02518">
        <ele>255.29800415039</ele>
        <time>2010-01-16T12:48:10Z</time>
      </trkpt>
      <trkpt lat="45.09952" lon="5.02558">
        <ele>252.94500732422</ele>
        <time>2010-01-16T12:48:14Z</time>
      </trkpt>
      <trkpt lat="45.09975" lon="5.02607">
        <ele>251.09300231934</ele>
        <time>2010-01-16T12:48:18Z</time>
      </trkpt>
      <trkpt lat="45.0999" lon="5.02651">
        <ele>249.44299316406</ele>
        <time>2010-01-16T12:48:21Z</time>
      </trkpt>
      <trkpt lat="45.10021" lon="5.02691">
        <ele>245.60000610352</ele>
        <time>2010-01-16T12:48:25Z</time>
      </trkpt>
      <trkpt lat="45.10029" lon="5.02701">
        <ele>245.52400207519</ele>
        <time>2010-01-16T12:48:26Z</time>
      </trkpt>
      <trkpt lat="45.10038" lon="5.02711">
        <ele>244.8390045166</ele>
        <time>2010-01-16T12:48:27Z</time>
      </trkpt>
      <trkpt lat="45.10064" lon="5.02768">
        <ele>241.24200439453</ele>
        <time>2010-01-16T12:48:31Z</time>
      </trkpt>
      <trkpt lat="45.1006" lon="5.02805">
        <ele>239.46899414062</ele>
        <time>2010-01-16T12:48:33Z</time>
      </trkpt>
      <trkpt lat="45.10031" lon="5.02832">
        <ele>237.50799560547</ele>
        <time>2010-01-16T12:48:35Z</time>
      </trkpt>
      <trkpt lat="45.10004" lon="5.02834">
        <ele>235.91900634766</ele>
        <time>2010-01-16T12:48:37Z</time>
      </trkpt>
      <trkpt lat="45.09965" lon="5.02831">
        <ele>232.625</ele>
        <time>2010-01-16T12:48:40Z</time>
      </trkpt>
      <trkpt lat="45.09892" lon="5.02824">
        <ele>228.31900024414</ele>
        <time>2010-01-16T12:48:46Z</time>
      </trkpt>
      <trkpt lat="45.09869" lon="5.02822">
        <ele>226.65800476074</ele>
        <time>2010-01-16T12:48:48Z</time>
      </trkpt>
      <trkpt lat="45.09862" lon="5.02822">
        <ele>226.60499572754</ele>
        <time>2010-01-16T12:48:49Z</time>
      </trkpt>
      <trkpt lat="45.09811" lon="5.02835">
        <ele>222.53500366211</ele>
        <time>2010-01-16T12:48:53Z</time>
      </trkpt>
      <trkpt lat="45.09767" lon="5.02847">
        <ele>219.79899597168</ele>
        <time>2010-01-16T12:48:57Z</time>
      </trkpt>
      <trkpt lat="45.09711" lon="5.02862">
        <ele>217.89599609375</ele>
        <time>2010-01-16T12:49:02Z</time>
      </trkpt>
      <trkpt lat="45.0964" lon="5.02881">
        <ele>216.08099365234</ele>
        <time>2010-01-16T12:49:09Z</time>
      </trkpt>
      <trkpt lat="45.09576" lon="5.02898">
        <ele>213.84300231934</ele>
        <time>2010-01-16T12:49:16Z</time>
      </trkpt>
      <trkpt lat="45.09509" lon="5.02916">
        <ele>211.04800415039</ele>
        <time>2010-01-16T12:49:23Z</time>
      </trkpt>
      <trkpt lat="45.0947" lon="5.02927">
        <ele>208.58700561523</ele>
        <time>2010-01-16T12:49:27Z</time>
      </trkpt>
      <trkpt lat="45.09418" lon="5.02937">
        <ele>206.07899475098</ele>
        <time>2010-01-16T12:49:32Z</time>
      </trkpt>
      <trkpt lat="45.09357" lon="5.02932">
        <ele>203.78300476074</ele>
        <time>2010-01-16T12:49:38Z</time>
      </trkpt>
      <trkpt lat="45.09301" lon="5.02928">
        <ele>203.13800048828</ele>
        <time>2010-01-16T12:49:44Z</time>
      </trkpt>
      <trkpt lat="45.09245" lon="5.02923">
        <ele>202.86500549316</ele>
        <time>2010-01-16T12:49:51Z</time>
      </trkpt>
      <trkpt lat="45.09214" lon="5.02921">
        <ele>202.99600219727</ele>
        <time>2010-01-16T12:49:56Z</time>
      </trkpt>
      <trkpt lat="45.09214" lon="5.02921">
        <ele>202.70100402832</ele>
        <time>2010-01-16T12:49:58Z</time>
      </trkpt>
      <trkpt lat="45.09156" lon="5.02916">
        <ele>202.83599853516</ele>
        <time>2010-01-16T12:50:03Z</time>
      </trkpt>
      <trkpt lat="45.09114" lon="5.02913">
        <ele>203.74600219727</ele>
        <time>2010-01-16T12:50:09Z</time>
      </trkpt>
      <trkpt lat="45.09102" lon="5.02912">
        <ele>203.7140045166</ele>
        <time>2010-01-16T12:50:14Z</time>
      </trkpt>
      <trkpt lat="45.09029" lon="5.02915">
        <ele>203.15299987793</ele>
        <time>2010-01-16T12:50:22Z</time>
      </trkpt>
      <trkpt lat="45.08969" lon="5.02933">
        <ele>201.58399963379</ele>
        <time>2010-01-16T12:50:31Z</time>
      </trkpt>
      <trkpt lat="45.08899" lon="5.02955">
        <ele>201.36099243164</ele>
        <time>2010-01-16T12:50:42Z</time>
      </trkpt>
      <trkpt lat="45.08827" lon="5.02977">
        <ele>201.01600646973</ele>
        <time>2010-01-16T12:50:53Z</time>
      </trkpt>
      <trkpt lat="45.08746" lon="5.03007">
        <ele>200.51499938965</ele>
        <time>2010-01-16T12:51:05Z</time>
      </trkpt>
      <trkpt lat="45.08698" lon="5.03027">
        <ele>200.52400207519</ele>
        <time>2010-01-16T12:51:12Z</time>
      </trkpt>
      <trkpt lat="45.08626" lon="5.03057">
        <ele>199.96299743652</ele>
        <time>2010-01-16T12:51:23Z</time>
      </trkpt>
      <trkpt lat="45.08583" lon="5.03075">
        <ele>200.36700439453</ele>
        <time>2010-01-16T12:51:33Z</time>
      </trkpt>
      <trkpt lat="45.08533" lon="5.0312">
        <ele>199.20500183106</ele>
        <time>2010-01-16T12:51:38Z</time>
      </trkpt>
      <trkpt lat="45.08492" lon="5.03184">
        <ele>196.39700317383</ele>
        <time>2010-01-16T12:51:46Z</time>
      </trkpt>
      <trkpt lat="45.0845" lon="5.03254">
        <ele>193.84800720215</ele>
        <time>2010-01-16T12:51:54Z</time>
      </trkpt>
      <trkpt lat="45.08408" lon="5.03325">
        <ele>191.88000488281</ele>
        <time>2010-01-16T12:52:02Z</time>
      </trkpt>
      <trkpt lat="45.08347" lon="5.03428">
        <ele>188.84399414062</ele>
        <time>2010-01-16T12:52:13Z</time>
      </trkpt>
      <trkpt lat="45.08308" lon="5.03493">
        <ele>188.79699707031</ele>
        <time>2010-01-16T12:52:20Z</time>
      </trkpt>
      <trkpt lat="45.08281" lon="5.03561">
        <ele>187.5</ele>
        <time>2010-01-16T12:52:27Z</time>
      </trkpt>
      <trkpt lat="45.0825" lon="5.03652">
        <ele>187.11999511719</ele>
        <time>2010-01-16T12:52:36Z</time>
      </trkpt>
      <trkpt lat="45.08247" lon="5.03661">
        <ele>185.69200134277</ele>
        <time>2010-01-16T12:52:37Z</time>
      </trkpt>
      <trkpt lat="45.08223" lon="5.03705">
        <ele>185.36000061035</ele>
        <time>2010-01-16T12:52:42Z</time>
      </trkpt>
      <trkpt lat="45.08191" lon="5.0373">
        <ele>185.24200439453</ele>
        <time>2010-01-16T12:52:47Z</time>
      </trkpt>
      <trkpt lat="45.08163" lon="5.0375">
        <ele>188.05400085449</ele>
        <time>2010-01-16T12:52:51Z</time>
      </trkpt>
      <trkpt lat="45.08105" lon="5.03767">
        <ele>188.71800231934</ele>
        <time>2010-01-16T12:52:59Z</time>
      </trkpt>
      <trkpt lat="45.08077" lon="5.03775">
        <ele>186.90100097656</ele>
        <time>2010-01-16T12:53:03Z</time>
      </trkpt>
      <trkpt lat="45.0803" lon="5.03795">
        <ele>186.21800231934</ele>
        <time>2010-01-16T12:53:10Z</time>
      </trkpt>
      <trkpt lat="45.07993" lon="5.03824">
        <ele>186.26600646973</ele>
        <time>2010-01-16T12:53:16Z</time>
      </trkpt>
      <trkpt lat="45.07952" lon="5.03855">
        <ele>184.30999755859</ele>
        <time>2010-01-16T12:53:22Z</time>
      </trkpt>
      <trkpt lat="45.07918" lon="5.03881">
        <ele>184.05799865723</ele>
        <time>2010-01-16T12:53:27Z</time>
      </trkpt>
      <trkpt lat="45.0785" lon="5.03933">
        <ele>184.70500183106</ele>
        <time>2010-01-16T12:53:37Z</time>
      </trkpt>
      <trkpt lat="45.0783" lon="5.03948">
        <ele>188.22999572754</ele>
        <time>2010-01-16T12:53:40Z</time>
      </trkpt>
      <trkpt lat="45.07815" lon="5.03959">
        <ele>185.22799682617</ele>
        <time>2010-01-16T12:53:44Z</time>
      </trkpt>
      <trkpt lat="45.07764" lon="5.03982">
        <ele>185.43299865723</ele>
        <time>2010-01-16T12:53:49Z</time>
      </trkpt>
      <trkpt lat="45.07738" lon="5.03994">
        <ele>185.74000549316</ele>
        <time>2010-01-16T12:53:55Z</time>
      </trkpt>
      <trkpt lat="45.07669" lon="5.04024">
        <ele>184.81399536133</ele>
        <time>2010-01-16T12:54:03Z</time>
      </trkpt>
      <trkpt lat="45.07618" lon="5.04038">
        <ele>183.36099243164</ele>
        <time>2010-01-16T12:54:11Z</time>
      </trkpt>
      <trkpt lat="45.07566" lon="5.04049">
        <ele>182.2859954834</ele>
        <time>2010-01-16T12:54:19Z</time>
      </trkpt>
      <trkpt lat="45.07497" lon="5.04062">
        <ele>182.17100524902</ele>
        <time>2010-01-16T12:54:29Z</time>
      </trkpt>
      <trkpt lat="45.07426" lon="5.04062">
        <ele>180.97999572754</ele>
        <time>2010-01-16T12:54:39Z</time>
      </trkpt>
      <trkpt lat="45.07371" lon="5.04051">
        <ele>180.80900573731</ele>
        <time>2010-01-16T12:54:47Z</time>
      </trkpt>
      <trkpt lat="45.07301" lon="5.04032">
        <ele>180.39599609375</ele>
        <time>2010-01-16T12:54:57Z</time>
      </trkpt>
      <trkpt lat="45.07236" lon="5.04008">
        <ele>179.47500610352</ele>
        <time>2010-01-16T12:55:07Z</time>
      </trkpt>
      <trkpt lat="45.07167" lon="5.03982">
        <ele>178.70500183106</ele>
        <time>2010-01-16T12:55:18Z</time>
      </trkpt>
      <trkpt lat="45.07092" lon="5.03954">
        <ele>177.95500183106</ele>
        <time>2010-01-16T12:55:30Z</time>
      </trkpt>
      <trkpt lat="45.07022" lon="5.03928">
        <ele>178.0119934082</ele>
        <time>2010-01-16T12:55:41Z</time>
      </trkpt>
      <trkpt lat="45.06956" lon="5.03906">
        <ele>177.98199462891</ele>
        <time>2010-01-16T12:55:51Z</time>
      </trkpt>
      <trkpt lat="45.06916" lon="5.03897">
        <ele>179.38200378418</ele>
        <time>2010-01-16T12:55:57Z</time>
      </trkpt>
      <trkpt lat="45.0689" lon="5.03895">
        <ele>178.32499694824</ele>
        <time>2010-01-16T12:56:01Z</time>
      </trkpt>
      <trkpt lat="45.06866" lon="5.03901">
        <ele>179.38299560547</ele>
        <time>2010-01-16T12:56:05Z</time>
      </trkpt>
      <trkpt lat="45.06853" lon="5.03908">
        <ele>179.32800292969</ele>
        <time>2010-01-16T12:56:08Z</time>
      </trkpt>
      <trkpt lat="45.06842" lon="5.03942">
        <ele>178.14300537109</ele>
        <time>2010-01-16T12:56:11Z</time>
      </trkpt>
      <trkpt lat="45.06836" lon="5.03959">
        <ele>178.24800109863</ele>
        <time>2010-01-16T12:56:14Z</time>
      </trkpt>
      <trkpt lat="45.06858" lon="5.03999">
        <ele>176.86599731445</ele>
        <time>2010-01-16T12:56:18Z</time>
      </trkpt>
      <trkpt lat="45.06869" lon="5.04037">
        <ele>176.54899597168</ele>
        <time>2010-01-16T12:56:22Z</time>
      </trkpt>
      <trkpt lat="45.0688" lon="5.04123">
        <ele>175.26800537109</ele>
        <time>2010-01-16T12:56:31Z</time>
      </trkpt>
      <trkpt lat="45.06887" lon="5.04199">
        <ele>174.07299804688</ele>
        <time>2010-01-16T12:56:38Z</time>
      </trkpt>
      <trkpt lat="45.06891" lon="5.04243">
        <ele>174.71600341797</ele>
        <time>2010-01-16T12:56:42Z</time>
      </trkpt>
      <trkpt lat="45.06888" lon="5.04317">
        <ele>173.79699707031</ele>
        <time>2010-01-16T12:56:49Z</time>
      </trkpt>
      <trkpt lat="45.06887" lon="5.04403">
        <ele>173.86000061035</ele>
        <time>2010-01-16T12:56:58Z</time>
      </trkpt>
      <trkpt lat="45.06897" lon="5.04475">
        <ele>174.65100097656</ele>
        <time>2010-01-16T12:57:06Z</time>
      </trkpt>
      <trkpt lat="45.06908" lon="5.0453">
        <ele>174.54299926758</ele>
        <time>2010-01-16T12:57:12Z</time>
      </trkpt>
      <trkpt lat="45.06936" lon="5.04619">
        <ele>174.08799743652</ele>
        <time>2010-01-16T12:57:21Z</time>
      </trkpt>
      <trkpt lat="45.06944" lon="5.04641">
        <ele>173.30999755859</ele>
        <time>2010-01-16T12:57:26Z</time>
      </trkpt>
      <trkpt lat="45.06963" lon="5.04781">
        <ele>172.52499389648</ele>
        <time>2010-01-16T12:57:36Z</time>
      </trkpt>
      <trkpt lat="45.06978" lon="5.04874">
        <ele>172.73500061035</ele>
        <time>2010-01-16T12:57:45Z</time>
      </trkpt>
      <trkpt lat="45.06992" lon="5.04951">
        <ele>173.04100036621</ele>
        <time>2010-01-16T12:57:53Z</time>
      </trkpt>
      <trkpt lat="45.07015" lon="5.05039">
        <ele>174.22700500488</ele>
        <time>2010-01-16T12:58:03Z</time>
      </trkpt>
      <trkpt lat="45.0702" lon="5.05055">
        <ele>174.44599914551</ele>
        <time>2010-01-16T12:58:05Z</time>
      </trkpt>
      <trkpt lat="45.07021" lon="5.05079">
        <ele>174.56100463867</ele>
        <time>2010-01-16T12:58:09Z</time>
      </trkpt>
      <trkpt lat="45.07026" lon="5.05119">
        <ele>175.50300598144</ele>
        <time>2010-01-16T12:58:13Z</time>
      </trkpt>
      <trkpt lat="45.0704" lon="5.05154">
        <ele>175.60400390625</ele>
        <time>2010-01-16T12:58:18Z</time>
      </trkpt>
      <trkpt lat="45.07055" lon="5.05191">
        <ele>176.79299926758</ele>
        <time>2010-01-16T12:58:24Z</time>
      </trkpt>
      <trkpt lat="45.07055" lon="5.05191">
        <ele>176.85000610352</ele>
        <time>2010-01-16T12:58:26Z</time>
      </trkpt>
      <trkpt lat="45.07055" lon="5.05191">
        <ele>177.3450012207</ele>
        <time>2010-01-16T12:58:28Z</time>
      </trkpt>
      <trkpt lat="45.07085" lon="5.05268">
        <ele>177.625</ele>
        <time>2010-01-16T12:58:35Z</time>
      </trkpt>
      <trkpt lat="45.07085" lon="5.05268">
        <ele>177.9049987793</ele>
        <time>2010-01-16T12:58:37Z</time>
      </trkpt>
      <trkpt lat="45.07098" lon="5.05317">
        <ele>177.44400024414</ele>
        <time>2010-01-16T12:58:41Z</time>
      </trkpt>
      <trkpt lat="45.07092" lon="5.05398">
        <ele>175.88000488281</ele>
        <time>2010-01-16T12:58:50Z</time>
      </trkpt>
      <trkpt lat="45.07092" lon="5.05407">
        <ele>175.69900512695</ele>
        <time>2010-01-16T12:58:51Z</time>
      </trkpt>
      <trkpt lat="45.0709" lon="5.05431">
        <ele>176.42300415039</ele>
        <time>2010-01-16T12:58:55Z</time>
      </trkpt>
      <trkpt lat="45.07117" lon="5.05494">
        <ele>177.76499938965</ele>
        <time>2010-01-16T12:59:02Z</time>
      </trkpt>
      <trkpt lat="45.0714" lon="5.05533">
        <ele>179.72300720215</ele>
        <time>2010-01-16T12:59:09Z</time>
      </trkpt>
      <trkpt lat="45.07158" lon="5.05558">
        <ele>180.58399963379</ele>
        <time>2010-01-16T12:59:14Z</time>
      </trkpt>
      <trkpt lat="45.07172" lon="5.05595">
        <ele>181.01100158691</ele>
        <time>2010-01-16T12:59:19Z</time>
      </trkpt>
      <trkpt lat="45.07177" lon="5.0561">
        <ele>181.28100585938</ele>
        <time>2010-01-16T12:59:21Z</time>
      </trkpt>
      <trkpt lat="45.07192" lon="5.05664">
        <ele>181.68600463867</ele>
        <time>2010-01-16T12:59:28Z</time>
      </trkpt>
      <trkpt lat="45.07204" lon="5.05715">
        <ele>181.61999511719</ele>
        <time>2010-01-16T12:59:34Z</time>
      </trkpt>
      <trkpt lat="45.07213" lon="5.05806">
        <ele>182.25999450684</ele>
        <time>2010-01-16T12:59:44Z</time>
      </trkpt>
      <trkpt lat="45.07222" lon="5.05904">
        <ele>183.50199890137</ele>
        <time>2010-01-16T12:59:55Z</time>
      </trkpt>
      <trkpt lat="45.07237" lon="5.05954">
        <ele>183.71299743652</ele>
        <time>2010-01-16T13:00:01Z</time>
      </trkpt>
      <trkpt lat="45.07256" lon="5.06016">
        <ele>182.71200561523</ele>
        <time>2010-01-16T13:00:08Z</time>
      </trkpt>
      <trkpt lat="45.07281" lon="5.06112">
        <ele>181.54600524902</ele>
        <time>2010-01-16T13:00:18Z</time>
      </trkpt>
      <trkpt lat="45.073" lon="5.06181">
        <ele>181.32200622559</ele>
        <time>2010-01-16T13:00:25Z</time>
      </trkpt>
      <trkpt lat="45.0732" lon="5.06256">
        <ele>181.07899475098</ele>
        <time>2010-01-16T13:00:33Z</time>
      </trkpt>
      <trkpt lat="45.07337" lon="5.06315">
        <ele>182.19799804688</ele>
        <time>2010-01-16T13:00:40Z</time>
      </trkpt>
      <trkpt lat="45.07344" lon="5.06337">
        <ele>182.24200439453</ele>
        <time>2010-01-16T13:00:44Z</time>
      </trkpt>
      <trkpt lat="45.07345" lon="5.06341">
        <ele>182.31399536133</ele>
        <time>2010-01-16T13:00:45Z</time>
      </trkpt>
      <trkpt lat="45.07355" lon="5.06379">
        <ele>181.27000427246</ele>
        <time>2010-01-16T13:00:51Z</time>
      </trkpt>
      <trkpt lat="45.07371" lon="5.06437">
        <ele>180.27699279785</ele>
        <time>2010-01-16T13:00:58Z</time>
      </trkpt>
      <trkpt lat="45.0739" lon="5.06534">
        <ele>180.60699462891</ele>
        <time>2010-01-16T13:01:08Z</time>
      </trkpt>
      <trkpt lat="45.07403" lon="5.06599">
        <ele>181.88400268555</ele>
        <time>2010-01-16T13:01:17Z</time>
      </trkpt>
      <trkpt lat="45.0743" lon="5.06708">
        <ele>181.92999267578</ele>
        <time>2010-01-16T13:01:28Z</time>
      </trkpt>
      <trkpt lat="45.07439" lon="5.06744">
        <ele>182.92199707031</ele>
        <time>2010-01-16T13:01:33Z</time>
      </trkpt>
      <trkpt lat="45.07445" lon="5.06766">
        <ele>183.29699707031</ele>
        <time>2010-01-16T13:01:37Z</time>
      </trkpt>
      <trkpt lat="45.07428" lon="5.06768">
        <ele>182.99899291992</ele>
        <time>2010-01-16T13:01:39Z</time>
      </trkpt>
      <trkpt lat="45.0738" lon="5.06762">
        <ele>182.59899902344</ele>
        <time>2010-01-16T13:01:47Z</time>
      </trkpt>
      <trkpt lat="45.07329" lon="5.06742">
        <ele>182.06700134277</ele>
        <time>2010-01-16T13:01:55Z</time>
      </trkpt>
      <trkpt lat="45.07259" lon="5.06705">
        <ele>180.65699768066</ele>
        <time>2010-01-16T13:02:06Z</time>
      </trkpt>
      <trkpt lat="45.07207" lon="5.06677">
        <ele>179.54299926758</ele>
        <time>2010-01-16T13:02:14Z</time>
      </trkpt>
      <trkpt lat="45.07163" lon="5.06648">
        <ele>179.10099792481</ele>
        <time>2010-01-16T13:02:21Z</time>
      </trkpt>
      <trkpt lat="45.07122" lon="5.06635">
        <ele>178.66200256348</ele>
        <time>2010-01-16T13:02:27Z</time>
      </trkpt>
      <trkpt lat="45.07069" lon="5.06621">
        <ele>178.21800231934</ele>
        <time>2010-01-16T13:02:35Z</time>
      </trkpt>
      <trkpt lat="45.07024" lon="5.06608">
        <ele>178.47900390625</ele>
        <time>2010-01-16T13:02:42Z</time>
      </trkpt>
      <trkpt lat="45.07" lon="5.06607">
        <ele>178.40199279785</ele>
        <time>2010-01-16T13:02:46Z</time>
      </trkpt>
      <trkpt lat="45.06987" lon="5.06607">
        <ele>177.87699890137</ele>
        <time>2010-01-16T13:02:50Z</time>
      </trkpt>
      <trkpt lat="45.06965" lon="5.0664">
        <ele>178.49600219727</ele>
        <time>2010-01-16T13:02:56Z</time>
      </trkpt>
      <trkpt lat="45.06929" lon="5.06662">
        <ele>177.83200073242</ele>
        <time>2010-01-16T13:03:03Z</time>
      </trkpt>
      <trkpt lat="45.06894" lon="5.06679">
        <ele>177.18699645996</ele>
        <time>2010-01-16T13:03:09Z</time>
      </trkpt>
      <trkpt lat="45.06875" lon="5.06702">
        <ele>177.24899291992</ele>
        <time>2010-01-16T13:03:13Z</time>
      </trkpt>
      <trkpt lat="45.06871" lon="5.0671">
        <ele>177.4640045166</ele>
        <time>2010-01-16T13:03:14Z</time>
      </trkpt>
      <trkpt lat="45.06853" lon="5.0675">
        <ele>177.40899658203</ele>
        <time>2010-01-16T13:03:19Z</time>
      </trkpt>
      <trkpt lat="45.06839" lon="5.06781">
        <ele>177.92799377441</ele>
        <time>2010-01-16T13:03:23Z</time>
      </trkpt>
      <trkpt lat="45.06828" lon="5.06791">
        <ele>178.14199829102</ele>
        <time>2010-01-16T13:03:25Z</time>
      </trkpt>
      <trkpt lat="45.06771" lon="5.06817">
        <ele>175.41900634766</ele>
        <time>2010-01-16T13:03:34Z</time>
      </trkpt>
      <trkpt lat="45.06723" lon="5.06839">
        <ele>176.32499694824</ele>
        <time>2010-01-16T13:03:42Z</time>
      </trkpt>
      <trkpt lat="45.06662" lon="5.06867">
        <ele>175.49200439453</ele>
        <time>2010-01-16T13:03:52Z</time>
      </trkpt>
      <trkpt lat="45.06587" lon="5.06905">
        <ele>175.82299804688</ele>
        <time>2010-01-16T13:04:04Z</time>
      </trkpt>
      <trkpt lat="45.06568" lon="5.06916">
        <ele>174.30400085449</ele>
        <time>2010-01-16T13:04:07Z</time>
      </trkpt>
      <trkpt lat="45.06506" lon="5.06948">
        <ele>175.15199279785</ele>
        <time>2010-01-16T13:04:17Z</time>
      </trkpt>
      <trkpt lat="45.06449" lon="5.06973">
        <ele>175.41499328613</ele>
        <time>2010-01-16T13:04:26Z</time>
      </trkpt>
      <trkpt lat="45.06395" lon="5.0699">
        <ele>175.78500366211</ele>
        <time>2010-01-16T13:04:35Z</time>
      </trkpt>
      <trkpt lat="45.06382" lon="5.06993">
        <ele>174.5119934082</ele>
        <time>2010-01-16T13:04:39Z</time>
      </trkpt>
      <trkpt lat="45.06319" lon="5.06939">
        <ele>174.14100646973</ele>
        <time>2010-01-16T13:04:49Z</time>
      </trkpt>
      <trkpt lat="45.06276" lon="5.06892">
        <ele>174.05700683594</ele>
        <time>2010-01-16T13:04:57Z</time>
      </trkpt>
      <trkpt lat="45.06227" lon="5.06818">
        <ele>174.35800170898</ele>
        <time>2010-01-16T13:05:08Z</time>
      </trkpt>
      <trkpt lat="45.0619" lon="5.06782">
        <ele>175.37199401856</ele>
        <time>2010-01-16T13:05:15Z</time>
      </trkpt>
      <trkpt lat="45.06126" lon="5.0672">
        <ele>174.63499450684</ele>
        <time>2010-01-16T13:05:27Z</time>
      </trkpt>
      <trkpt lat="45.0608" lon="5.06669">
        <ele>173.41200256348</ele>
        <time>2010-01-16T13:05:36Z</time>
      </trkpt>
      <trkpt lat="45.06054" lon="5.06632">
        <ele>173.12800598144</ele>
        <time>2010-01-16T13:05:42Z</time>
      </trkpt>
      <trkpt lat="45.06004" lon="5.06572">
        <ele>173.52200317383</ele>
        <time>2010-01-16T13:05:52Z</time>
      </trkpt>
      <trkpt lat="45.05953" lon="5.06512">
        <ele>173.01800537109</ele>
        <time>2010-01-16T13:06:02Z</time>
      </trkpt>
      <trkpt lat="45.05908" lon="5.06461">
        <ele>174.02200317383</ele>
        <time>2010-01-16T13:06:11Z</time>
      </trkpt>
      <trkpt lat="45.0588" lon="5.0644">
        <ele>174.20300292969</ele>
        <time>2010-01-16T13:06:16Z</time>
      </trkpt>
      <trkpt lat="45.05862" lon="5.06432">
        <ele>173.62800598144</ele>
        <time>2010-01-16T13:06:19Z</time>
      </trkpt>
      <trkpt lat="45.05849" lon="5.06427">
        <ele>173.27799987793</ele>
        <time>2010-01-16T13:06:24Z</time>
      </trkpt>
      <trkpt lat="45.05776" lon="5.06446">
        <ele>172.05200195312</ele>
        <time>2010-01-16T13:06:32Z</time>
      </trkpt>
      <trkpt lat="45.05746" lon="5.06431">
        <ele>171.87399291992</ele>
        <time>2010-01-16T13:06:37Z</time>
      </trkpt>
      <trkpt lat="45.05732" lon="5.06446">
        <ele>171.54600524902</ele>
        <time>2010-01-16T13:06:39Z</time>
      </trkpt>
      <trkpt lat="45.05729" lon="5.06457">
        <ele>171.61999511719</ele>
        <time>2010-01-16T13:06:41Z</time>
      </trkpt>
      <trkpt lat="45.05742" lon="5.06478">
        <ele>171.58599853516</ele>
        <time>2010-01-16T13:06:44Z</time>
      </trkpt>
      <trkpt lat="45.05748" lon="5.06475">
        <ele>172.32499694824</ele>
        <time>2010-01-16T13:06:46Z</time>
      </trkpt>
      <trkpt lat="45.05758" lon="5.06516">
        <ele>173.36199951172</ele>
        <time>2010-01-16T13:06:49Z</time>
      </trkpt>
      <trkpt lat="45.05749" lon="5.0659">
        <ele>173.68899536133</ele>
        <time>2010-01-16T13:06:58Z</time>
      </trkpt>
      <trkpt lat="45.0574" lon="5.0666">
        <ele>173.55900573731</ele>
        <time>2010-01-16T13:07:06Z</time>
      </trkpt>
      <trkpt lat="45.05728" lon="5.06751">
        <ele>173.79100036621</ele>
        <time>2010-01-16T13:07:16Z</time>
      </trkpt>
      <trkpt lat="45.05716" lon="5.06843">
        <ele>173.46899414062</ele>
        <time>2010-01-16T13:07:26Z</time>
      </trkpt>
      <trkpt lat="45.05708" lon="5.06912">
        <ele>172.23899841309</ele>
        <time>2010-01-16T13:07:33Z</time>
      </trkpt>
      <trkpt lat="45.057" lon="5.07002">
        <ele>171.75</ele>
        <time>2010-01-16T13:07:42Z</time>
      </trkpt>
      <trkpt lat="45.05704" lon="5.07082">
        <ele>173.18299865723</ele>
        <time>2010-01-16T13:07:50Z</time>
      </trkpt>
      <trkpt lat="45.05707" lon="5.07161">
        <ele>172.38400268555</ele>
        <time>2010-01-16T13:07:58Z</time>
      </trkpt>
      <trkpt lat="45.05703" lon="5.07229">
        <ele>172.35299682617</ele>
        <time>2010-01-16T13:08:05Z</time>
      </trkpt>
      <trkpt lat="45.05697" lon="5.07279">
        <ele>171.66200256348</ele>
        <time>2010-01-16T13:08:11Z</time>
      </trkpt>
      <trkpt lat="45.05695" lon="5.07295">
        <ele>171.94000244141</ele>
        <time>2010-01-16T13:08:15Z</time>
      </trkpt>
      <trkpt lat="45.05695" lon="5.07298">
        <ele>171.36500549316</ele>
        <time>2010-01-16T13:08:18Z</time>
      </trkpt>
      <trkpt lat="45.05695" lon="5.07298">
        <ele>171.9940032959</ele>
        <time>2010-01-16T13:08:43Z</time>
      </trkpt>
      <trkpt lat="45.05729" lon="5.07332">
        <ele>172.32600402832</ele>
        <time>2010-01-16T13:08:50Z</time>
      </trkpt>
      <trkpt lat="45.05733" lon="5.07336">
        <ele>172.15400695801</ele>
        <time>2010-01-16T13:08:51Z</time>
      </trkpt>
      <trkpt lat="45.0575" lon="5.07353">
        <ele>173.14700317383</ele>
        <time>2010-01-16T13:08:55Z</time>
      </trkpt>
      <trkpt lat="45.05753" lon="5.07356">
        <ele>172.48300170898</ele>
        <time>2010-01-16T13:08:56Z</time>
      </trkpt>
      <trkpt lat="45.05751" lon="5.07449">
        <ele>173.37300109863</ele>
        <time>2010-01-16T13:09:06Z</time>
      </trkpt>
      <trkpt lat="45.05751" lon="5.07516">
        <ele>173.94599914551</ele>
        <time>2010-01-16T13:09:14Z</time>
      </trkpt>
      <trkpt lat="45.05751" lon="5.07585">
        <ele>174.5</ele>
        <time>2010-01-16T13:09:22Z</time>
      </trkpt>
      <trkpt lat="45.05751" lon="5.07619">
        <ele>174.43400573731</ele>
        <time>2010-01-16T13:09:26Z</time>
      </trkpt>
      <trkpt lat="45.05751" lon="5.07668">
        <ele>174.7140045166</ele>
        <time>2010-01-16T13:09:32Z</time>
      </trkpt>
      <trkpt lat="45.0575" lon="5.07701">
        <ele>175.09700012207</ele>
        <time>2010-01-16T13:09:36Z</time>
      </trkpt>
      <trkpt lat="45.0574" lon="5.07757">
        <ele>175.54400634766</ele>
        <time>2010-01-16T13:09:43Z</time>
      </trkpt>
      <trkpt lat="45.05716" lon="5.07822">
        <ele>175.37199401856</ele>
        <time>2010-01-16T13:09:52Z</time>
      </trkpt>
      <trkpt lat="45.05703" lon="5.07858">
        <ele>175.35299682617</ele>
        <time>2010-01-16T13:09:57Z</time>
      </trkpt>
      <trkpt lat="45.057" lon="5.07866">
        <ele>175.12600708008</ele>
        <time>2010-01-16T13:09:58Z</time>
      </trkpt>
      <trkpt lat="45.05687" lon="5.07901">
        <ele>175.95700073242</ele>
        <time>2010-01-16T13:10:03Z</time>
      </trkpt>
      <trkpt lat="45.0568" lon="5.07922">
        <ele>175.91000366211</ele>
        <time>2010-01-16T13:10:06Z</time>
      </trkpt>
      <trkpt lat="45.05674" lon="5.07935">
        <ele>175.03199768066</ele>
        <time>2010-01-16T13:10:08Z</time>
      </trkpt>
      <trkpt lat="45.05649" lon="5.07997">
        <ele>175.20599365234</ele>
        <time>2010-01-16T13:10:17Z</time>
      </trkpt>
      <trkpt lat="45.05635" lon="5.08051">
        <ele>175.66700744629</ele>
        <time>2010-01-16T13:10:24Z</time>
      </trkpt>
      <trkpt lat="45.05634" lon="5.0806">
        <ele>175.72200012207</ele>
        <time>2010-01-16T13:10:25Z</time>
      </trkpt>
      <trkpt lat="45.05621" lon="5.08085">
        <ele>176.12899780273</ele>
        <time>2010-01-16T13:10:29Z</time>
      </trkpt>
      <trkpt lat="45.05611" lon="5.08095">
        <ele>175.73599243164</ele>
        <time>2010-01-16T13:10:31Z</time>
      </trkpt>
      <trkpt lat="45.05609" lon="5.08096">
        <ele>175.81100463867</ele>
        <time>2010-01-16T13:10:33Z</time>
      </trkpt>
      <trkpt lat="45.05579" lon="5.081">
        <ele>174.82699584961</ele>
        <time>2010-01-16T13:10:37Z</time>
      </trkpt>
      <trkpt lat="45.05563" lon="5.08095">
        <ele>174.04800415039</ele>
        <time>2010-01-16T13:10:40Z</time>
      </trkpt>
      <trkpt lat="45.05519" lon="5.08076">
        <ele>173.90400695801</ele>
        <time>2010-01-16T13:10:48Z</time>
      </trkpt>
      <trkpt lat="45.05478" lon="5.08057">
        <ele>174.12100219727</ele>
        <time>2010-01-16T13:10:56Z</time>
      </trkpt>
      <trkpt lat="45.05458" lon="5.08045">
        <ele>173.7859954834</ele>
        <time>2010-01-16T13:11:00Z</time>
      </trkpt>
      <trkpt lat="45.05427" lon="5.08027">
        <ele>173.5359954834</ele>
        <time>2010-01-16T13:11:06Z</time>
      </trkpt>
      <trkpt lat="45.0542" lon="5.08023">
        <ele>173.65600585938</ele>
        <time>2010-01-16T13:11:09Z</time>
      </trkpt>
      <trkpt lat="45.05401" lon="5.08024">
        <ele>174.25900268555</ele>
        <time>2010-01-16T13:11:12Z</time>
      </trkpt>
      <trkpt lat="45.05395" lon="5.08039">
        <ele>174.04499816894</ele>
        <time>2010-01-16T13:11:13Z</time>
      </trkpt>
      <trkpt lat="45.05382" lon="5.08116">
        <ele>173.4940032959</ele>
        <time>2010-01-16T13:11:22Z</time>
      </trkpt>
      <trkpt lat="45.05374" lon="5.08176">
        <ele>173.59899902344</ele>
        <time>2010-01-16T13:11:29Z</time>
      </trkpt>
      <trkpt lat="45.05376" lon="5.08235">
        <ele>174.05599975586</ele>
        <time>2010-01-16T13:11:36Z</time>
      </trkpt>
      <trkpt lat="45.0539" lon="5.08291">
        <ele>173.7380065918</ele>
        <time>2010-01-16T13:11:43Z</time>
      </trkpt>
      <trkpt lat="45.05424" lon="5.08388">
        <ele>174.16799926758</ele>
        <time>2010-01-16T13:11:55Z</time>
      </trkpt>
      <trkpt lat="45.05454" lon="5.08469">
        <ele>174.78100585938</ele>
        <time>2010-01-16T13:12:05Z</time>
      </trkpt>
      <trkpt lat="45.05487" lon="5.08555">
        <ele>174.85099792481</ele>
        <time>2010-01-16T13:12:16Z</time>
      </trkpt>
      <trkpt lat="45.05516" lon="5.08607">
        <ele>175.47700500488</ele>
        <time>2010-01-16T13:12:23Z</time>
      </trkpt>
      <trkpt lat="45.05554" lon="5.08658">
        <ele>175.36399841309</ele>
        <time>2010-01-16T13:12:31Z</time>
      </trkpt>
      <trkpt lat="45.05563" lon="5.08672">
        <ele>175.72500610352</ele>
        <time>2010-01-16T13:12:33Z</time>
      </trkpt>
      <trkpt lat="45.05579" lon="5.0871">
        <ele>176.88000488281</ele>
        <time>2010-01-16T13:12:38Z</time>
      </trkpt>
      <trkpt lat="45.05587" lon="5.08793">
        <ele>175.93800354004</ele>
        <time>2010-01-16T13:12:47Z</time>
      </trkpt>
      <trkpt lat="45.05592" lon="5.08838">
        <ele>176.12800598144</ele>
        <time>2010-01-16T13:12:52Z</time>
      </trkpt>
      <trkpt lat="45.05595" lon="5.08861">
        <ele>176.94000244141</ele>
        <time>2010-01-16T13:12:55Z</time>
      </trkpt>
      <trkpt lat="45.05575" lon="5.08868">
        <ele>176.11000061035</ele>
        <time>2010-01-16T13:12:58Z</time>
      </trkpt>
      <trkpt lat="45.05521" lon="5.08851">
        <ele>175.97799682617</ele>
        <time>2010-01-16T13:13:07Z</time>
      </trkpt>
      <trkpt lat="45.05498" lon="5.08851">
        <ele>176.18899536133</ele>
        <time>2010-01-16T13:13:11Z</time>
      </trkpt>
      <trkpt lat="45.05463" lon="5.08861">
        <ele>175.82800292969</ele>
        <time>2010-01-16T13:13:17Z</time>
      </trkpt>
      <trkpt lat="45.0544" lon="5.08871">
        <ele>176.50199890137</ele>
        <time>2010-01-16T13:13:21Z</time>
      </trkpt>
      <trkpt lat="45.05424" lon="5.08877">
        <ele>176.87699890137</ele>
        <time>2010-01-16T13:13:26Z</time>
      </trkpt>
      <trkpt lat="45.05406" lon="5.0886">
        <ele>177.16000366211</ele>
        <time>2010-01-16T13:13:27Z</time>
      </trkpt>
      <trkpt lat="45.05391" lon="5.08872">
        <ele>176.02699279785</ele>
        <time>2010-01-16T13:13:30Z</time>
      </trkpt>
      <trkpt lat="45.05386" lon="5.08894">
        <ele>175.46600341797</ele>
        <time>2010-01-16T13:13:34Z</time>
      </trkpt>
      <trkpt lat="45.05365" lon="5.08908">
        <ele>175.29200744629</ele>
        <time>2010-01-16T13:13:36Z</time>
      </trkpt>
      <trkpt lat="45.05303" lon="5.08922">
        <ele>175.2859954834</ele>
        <time>2010-01-16T13:13:46Z</time>
      </trkpt>
      <trkpt lat="45.05256" lon="5.08933">
        <ele>175.05400085449</ele>
        <time>2010-01-16T13:13:54Z</time>
      </trkpt>
      <trkpt lat="45.05209" lon="5.08943">
        <ele>175.21200561523</ele>
        <time>2010-01-16T13:14:02Z</time>
      </trkpt>
      <trkpt lat="45.05157" lon="5.08955">
        <ele>175.10800170898</ele>
        <time>2010-01-16T13:14:11Z</time>
      </trkpt>
      <trkpt lat="45.05141" lon="5.08959">
        <ele>175.86500549316</ele>
        <time>2010-01-16T13:14:16Z</time>
      </trkpt>
      <trkpt lat="45.05141" lon="5.08959">
        <ele>176.44700622559</ele>
        <time>2010-01-16T13:14:17Z</time>
      </trkpt>
      <trkpt lat="45.05141" lon="5.08959">
        <ele>176.19900512695</ele>
        <time>2010-01-16T13:14:19Z</time>
      </trkpt>
      <trkpt lat="45.05091" lon="5.08973">
        <ele>173.7440032959</ele>
        <time>2010-01-16T13:14:22Z</time>
      </trkpt>
      <trkpt lat="45.0503" lon="5.08977">
        <ele>174.93899536133</ele>
        <time>2010-01-16T13:14:31Z</time>
      </trkpt>
      <trkpt lat="45.04987" lon="5.08997">
        <ele>175.15400695801</ele>
        <time>2010-01-16T13:14:38Z</time>
      </trkpt>
      <trkpt lat="45.04972" lon="5.09013">
        <ele>172.97900390625</ele>
        <time>2010-01-16T13:14:41Z</time>
      </trkpt>
      <trkpt lat="45.04941" lon="5.09047">
        <ele>172.30700683594</ele>
        <time>2010-01-16T13:14:47Z</time>
      </trkpt>
      <trkpt lat="45.04927" lon="5.09062">
        <ele>173.36199951172</ele>
        <time>2010-01-16T13:14:51Z</time>
      </trkpt>
      <trkpt lat="45.04906" lon="5.09041">
        <ele>173.03900146484</ele>
        <time>2010-01-16T13:14:54Z</time>
      </trkpt>
      <trkpt lat="45.04903" lon="5.09025">
        <ele>173.05099487305</ele>
        <time>2010-01-16T13:14:56Z</time>
      </trkpt>
      <trkpt lat="45.04887" lon="5.08951">
        <ele>172.52600097656</ele>
        <time>2010-01-16T13:15:05Z</time>
      </trkpt>
      <trkpt lat="45.0487" lon="5.08874">
        <ele>172.38000488281</ele>
        <time>2010-01-16T13:15:14Z</time>
      </trkpt>
      <trkpt lat="45.04852" lon="5.08779">
        <ele>171.95599365234</ele>
        <time>2010-01-16T13:15:25Z</time>
      </trkpt>
      <trkpt lat="45.0485" lon="5.08762">
        <ele>172.04699707031</ele>
        <time>2010-01-16T13:15:27Z</time>
      </trkpt>
      <trkpt lat="45.04838" lon="5.08685">
        <ele>171.47500610352</ele>
        <time>2010-01-16T13:15:36Z</time>
      </trkpt>
      <trkpt lat="45.04827" lon="5.08615">
        <ele>171.38900756836</ele>
        <time>2010-01-16T13:15:44Z</time>
      </trkpt>
      <trkpt lat="45.04819" lon="5.08563">
        <ele>171.87300109863</ele>
        <time>2010-01-16T13:15:51Z</time>
      </trkpt>
      <trkpt lat="45.04816" lon="5.08542">
        <ele>171.91200256348</ele>
        <time>2010-01-16T13:15:55Z</time>
      </trkpt>
      <trkpt lat="45.04797" lon="5.08535">
        <ele>171.90400695801</ele>
        <time>2010-01-16T13:16:00Z</time>
      </trkpt>
      <trkpt lat="45.04784" lon="5.08535">
        <ele>172.07299804688</ele>
        <time>2010-01-16T13:16:04Z</time>
      </trkpt>
      <trkpt lat="45.04751" lon="5.08541">
        <ele>172.24699401856</ele>
        <time>2010-01-16T13:16:11Z</time>
      </trkpt>
      <trkpt lat="45.0471" lon="5.08549">
        <ele>172.91200256348</ele>
        <time>2010-01-16T13:16:19Z</time>
      </trkpt>
      <trkpt lat="45.0467" lon="5.08556">
        <ele>172.95300292969</ele>
        <time>2010-01-16T13:16:27Z</time>
      </trkpt>
      <trkpt lat="45.0465" lon="5.0856">
        <ele>173.29600524902</ele>
        <time>2010-01-16T13:16:31Z</time>
      </trkpt>
      <trkpt lat="45.04609" lon="5.08568">
        <ele>171.37699890137</ele>
        <time>2010-01-16T13:16:39Z</time>
      </trkpt>
      <trkpt lat="45.04568" lon="5.08577">
        <ele>171.45199584961</ele>
        <time>2010-01-16T13:16:46Z</time>
      </trkpt>
      <trkpt lat="45.04533" lon="5.0858">
        <ele>170.59100341797</ele>
        <time>2010-01-16T13:16:52Z</time>
      </trkpt>
      <trkpt lat="45.04488" lon="5.08585">
        <ele>170.20599365234</ele>
        <time>2010-01-16T13:17:00Z</time>
      </trkpt>
      <trkpt lat="45.04438" lon="5.08591">
        <ele>170.55000305176</ele>
        <time>2010-01-16T13:17:09Z</time>
      </trkpt>
      <trkpt lat="45.04392" lon="5.08596">
        <ele>172.11399841309</ele>
        <time>2010-01-16T13:17:18Z</time>
      </trkpt>
      <trkpt lat="45.04375" lon="5.08598">
        <ele>172.77400207519</ele>
        <time>2010-01-16T13:17:22Z</time>
      </trkpt>
      <trkpt lat="45.04366" lon="5.08569">
        <ele>173.05900573731</ele>
        <time>2010-01-16T13:17:26Z</time>
      </trkpt>
      <trkpt lat="45.04361" lon="5.08527">
        <ele>173.58299255371</ele>
        <time>2010-01-16T13:17:32Z</time>
      </trkpt>
      <trkpt lat="45.04355" lon="5.08477">
        <ele>172.3809967041</ele>
        <time>2010-01-16T13:17:39Z</time>
      </trkpt>
      <trkpt lat="45.04352" lon="5.08473">
        <ele>172.24099731445</ele>
        <time>2010-01-16T13:17:40Z</time>
      </trkpt>
      <trkpt lat="45.04364" lon="5.08418">
        <ele>171.25399780273</ele>
        <time>2010-01-16T13:17:44Z</time>
      </trkpt>
      <trkpt lat="45.04364" lon="5.08412">
        <ele>171.40800476074</ele>
        <time>2010-01-16T13:17:48Z</time>
      </trkpt>
      <trkpt lat="45.04361" lon="5.08386">
        <ele>171.63600158691</ele>
        <time>2010-01-16T13:17:51Z</time>
      </trkpt>
      <trkpt lat="45.04349" lon="5.0837">
        <ele>171.60800170898</ele>
        <time>2010-01-16T13:17:54Z</time>
      </trkpt>
      <trkpt lat="45.04332" lon="5.08364">
        <ele>171.83000183106</ele>
        <time>2010-01-16T13:17:57Z</time>
      </trkpt>
      <trkpt lat="45.04314" lon="5.08379">
        <ele>171.58599853516</ele>
        <time>2010-01-16T13:18:01Z</time>
      </trkpt>
      <trkpt lat="45.04308" lon="5.08391">
        <ele>170.90699768066</ele>
        <time>2010-01-16T13:18:03Z</time>
      </trkpt>
      <trkpt lat="45.04305" lon="5.08404">
        <ele>171.38400268555</ele>
        <time>2010-01-16T13:18:05Z</time>
      </trkpt>
      <trkpt lat="45.04311" lon="5.08456">
        <ele>171.57800292969</ele>
        <time>2010-01-16T13:18:11Z</time>
      </trkpt>
      <trkpt lat="45.04299" lon="5.08468">
        <ele>171.47200012207</ele>
        <time>2010-01-16T13:18:13Z</time>
      </trkpt>
      <trkpt lat="45.04272" lon="5.08498">
        <ele>167.6369934082</ele>
        <time>2010-01-16T13:18:18Z</time>
      </trkpt>
      <trkpt lat="45.04268" lon="5.08508">
        <ele>167.39500427246</ele>
        <time>2010-01-16T13:18:19Z</time>
      </trkpt>
      <trkpt lat="45.0426" lon="5.08531">
        <ele>165.91900634766</ele>
        <time>2010-01-16T13:18:21Z</time>
      </trkpt>
      <trkpt lat="45.04236" lon="5.0858">
        <ele>164.06399536133</ele>
        <time>2010-01-16T13:18:25Z</time>
      </trkpt>
      <trkpt lat="45.04212" lon="5.08604">
        <ele>162.59599304199</ele>
        <time>2010-01-16T13:18:28Z</time>
      </trkpt>
      <trkpt lat="45.04182" lon="5.08625">
        <ele>159.93299865723</ele>
        <time>2010-01-16T13:18:32Z</time>
      </trkpt>
      <trkpt lat="45.04171" lon="5.08633">
        <ele>158.82800292969</ele>
        <time>2010-01-16T13:18:35Z</time>
      </trkpt>
      <trkpt lat="45.04137" lon="5.08643">
        <ele>158.42900085449</ele>
        <time>2010-01-16T13:18:39Z</time>
      </trkpt>
      <trkpt lat="45.04076" lon="5.08652">
        <ele>158.56300354004</ele>
        <time>2010-01-16T13:18:49Z</time>
      </trkpt>
      <trkpt lat="45.04028" lon="5.08664">
        <ele>157.59800720215</ele>
        <time>2010-01-16T13:18:57Z</time>
      </trkpt>
      <trkpt lat="45.04004" lon="5.08671">
        <ele>157.59700012207</ele>
        <time>2010-01-16T13:19:05Z</time>
      </trkpt>
      <trkpt lat="45.03941" lon="5.08686">
        <ele>158.20500183106</ele>
        <time>2010-01-16T13:19:11Z</time>
      </trkpt>
      <trkpt lat="45.03923" lon="5.0869">
        <ele>158.14500427246</ele>
        <time>2010-01-16T13:19:14Z</time>
      </trkpt>
      <trkpt lat="45.03888" lon="5.08696">
        <ele>160.22599792481</ele>
        <time>2010-01-16T13:19:21Z</time>
      </trkpt>
      <trkpt lat="45.03862" lon="5.08692">
        <ele>161.91999816894</ele>
        <time>2010-01-16T13:19:27Z</time>
      </trkpt>
      <trkpt lat="45.03854" lon="5.08691">
        <ele>162.24000549316</ele>
        <time>2010-01-16T13:19:29Z</time>
      </trkpt>
      <trkpt lat="45.03835" lon="5.08687">
        <ele>163.64300537109</ele>
        <time>2010-01-16T13:19:34Z</time>
      </trkpt>
      <trkpt lat="45.03807" lon="5.08682">
        <ele>165.61599731445</ele>
        <time>2010-01-16T13:19:41Z</time>
      </trkpt>
      <trkpt lat="45.03798" lon="5.08681">
        <ele>166.18699645996</ele>
        <time>2010-01-16T13:19:43Z</time>
      </trkpt>
      <trkpt lat="45.0376" lon="5.08671">
        <ele>167.39999389648</ele>
        <time>2010-01-16T13:19:52Z</time>
      </trkpt>
      <trkpt lat="45.03729" lon="5.08662">
        <ele>168.36199951172</ele>
        <time>2010-01-16T13:20:00Z</time>
      </trkpt>
      <trkpt lat="45.03717" lon="5.08658">
        <ele>169.19900512695</ele>
        <time>2010-01-16T13:20:08Z</time>
      </trkpt>
      <trkpt lat="45.03717" lon="5.08658">
        <ele>169.55299377441</ele>
        <time>2010-01-16T13:20:09Z</time>
      </trkpt>
      <trkpt lat="45.03656" lon="5.08643">
        <ele>170.21000671387</ele>
        <time>2010-01-16T13:20:18Z</time>
      </trkpt>
      <trkpt lat="45.03631" lon="5.08637">
        <ele>172.28399658203</ele>
        <time>2010-01-16T13:20:24Z</time>
      </trkpt>
      <trkpt lat="45.03596" lon="5.08628">
        <ele>171.80599975586</ele>
        <time>2010-01-16T13:20:32Z</time>
      </trkpt>
      <trkpt lat="45.03574" lon="5.08623">
        <ele>172.03399658203</ele>
        <time>2010-01-16T13:20:38Z</time>
      </trkpt>
      <trkpt lat="45.03568" lon="5.08621">
        <ele>172.13600158691</ele>
        <time>2010-01-16T13:20:42Z</time>
      </trkpt>
      <trkpt lat="45.03565" lon="5.08621">
        <ele>172.13499450684</ele>
        <time>2010-01-16T13:21:04Z</time>
      </trkpt>
      <trkpt lat="45.03561" lon="5.08634">
        <ele>172.08299255371</ele>
        <time>2010-01-16T13:21:09Z</time>
      </trkpt>
      <trkpt lat="45.03561" lon="5.08639">
        <ele>172.1130065918</ele>
        <time>2010-01-16T13:21:10Z</time>
      </trkpt>
      <trkpt lat="45.03558" lon="5.08682">
        <ele>172.26300048828</ele>
        <time>2010-01-16T13:21:17Z</time>
      </trkpt>
      <trkpt lat="45.03554" lon="5.08749">
        <ele>172.09599304199</ele>
        <time>2010-01-16T13:21:26Z</time>
      </trkpt>
      <trkpt lat="45.03548" lon="5.08829">
        <ele>172.4940032959</ele>
        <time>2010-01-16T13:21:36Z</time>
      </trkpt>
      <trkpt lat="45.03542" lon="5.08903">
        <ele>172.71200561523</ele>
        <time>2010-01-16T13:21:45Z</time>
      </trkpt>
      <trkpt lat="45.03534" lon="5.08971">
        <ele>172.82600402832</ele>
        <time>2010-01-16T13:21:53Z</time>
      </trkpt>
      <trkpt lat="45.03529" lon="5.09043">
        <ele>171.86599731445</ele>
        <time>2010-01-16T13:22:01Z</time>
      </trkpt>
      <trkpt lat="45.03525" lon="5.09108">
        <ele>171.07899475098</ele>
        <time>2010-01-16T13:22:08Z</time>
      </trkpt>
      <trkpt lat="45.03519" lon="5.09192">
        <ele>170.16000366211</ele>
        <time>2010-01-16T13:22:16Z</time>
      </trkpt>
      <trkpt lat="45.03511" lon="5.09302">
        <ele>168.62899780273</ele>
        <time>2010-01-16T13:22:26Z</time>
      </trkpt>
      <trkpt lat="45.03505" lon="5.09399">
        <ele>167.53199768066</ele>
        <time>2010-01-16T13:22:35Z</time>
      </trkpt>
      <trkpt lat="45.03499" lon="5.09483">
        <ele>165.85000610352</ele>
        <time>2010-01-16T13:22:43Z</time>
      </trkpt>
      <trkpt lat="45.03496" lon="5.09535">
        <ele>165.61700439453</ele>
        <time>2010-01-16T13:22:48Z</time>
      </trkpt>
      <trkpt lat="45.03493" lon="5.09573">
        <ele>166.45799255371</ele>
        <time>2010-01-16T13:22:52Z</time>
      </trkpt>
      <trkpt lat="45.03493" lon="5.09581">
        <ele>166.81799316406</ele>
        <time>2010-01-16T13:22:53Z</time>
      </trkpt>
      <trkpt lat="45.03447" lon="5.0961">
        <ele>168.30700683594</ele>
        <time>2010-01-16T13:23:00Z</time>
      </trkpt>
      <trkpt lat="45.03437" lon="5.0962">
        <ele>169.79400634766</ele>
        <time>2010-01-16T13:23:08Z</time>
      </trkpt>
      <trkpt lat="45.03394" lon="5.09668">
        <ele>170.8690032959</ele>
        <time>2010-01-16T13:23:16Z</time>
      </trkpt>
      <trkpt lat="45.03387" lon="5.09675">
        <ele>171.64599609375</ele>
        <time>2010-01-16T13:23:18Z</time>
      </trkpt>
      <trkpt lat="45.03354" lon="5.09712">
        <ele>173.52299499512</ele>
        <time>2010-01-16T13:23:28Z</time>
      </trkpt>
      <trkpt lat="45.03347" lon="5.09718">
        <ele>175.19000244141</ele>
        <time>2010-01-16T13:23:34Z</time>
      </trkpt>
      <trkpt lat="45.03308" lon="5.09761">
        <ele>177.53999328613</ele>
        <time>2010-01-16T13:23:42Z</time>
      </trkpt>
      <trkpt lat="45.03278" lon="5.09793">
        <ele>177.8869934082</ele>
        <time>2010-01-16T13:23:51Z</time>
      </trkpt>
      <trkpt lat="45.0325" lon="5.09824">
        <ele>179.11799621582</ele>
        <time>2010-01-16T13:23:59Z</time>
      </trkpt>
      <trkpt lat="45.03213" lon="5.09864">
        <ele>180.46699523926</ele>
        <time>2010-01-16T13:24:09Z</time>
      </trkpt>
      <trkpt lat="45.03173" lon="5.09898">
        <ele>180.83799743652</ele>
        <time>2010-01-16T13:24:19Z</time>
      </trkpt>
      <trkpt lat="45.03142" lon="5.09915">
        <ele>181.83099365234</ele>
        <time>2010-01-16T13:24:26Z</time>
      </trkpt>
      <trkpt lat="45.03106" lon="5.09929">
        <ele>183.02600097656</ele>
        <time>2010-01-16T13:24:34Z</time>
      </trkpt>
      <trkpt lat="45.03063" lon="5.09939">
        <ele>184.85699462891</ele>
        <time>2010-01-16T13:24:44Z</time>
      </trkpt>
      <trkpt lat="45.03025" lon="5.09947">
        <ele>187.39399719238</ele>
        <time>2010-01-16T13:24:54Z</time>
      </trkpt>
      <trkpt lat="45.02999" lon="5.09955">
        <ele>189.1190032959</ele>
        <time>2010-01-16T13:25:01Z</time>
      </trkpt>
      <trkpt lat="45.02981" lon="5.09962">
        <ele>190.54400634766</ele>
        <time>2010-01-16T13:25:06Z</time>
      </trkpt>
      <trkpt lat="45.02962" lon="5.09991">
        <ele>192.18499755859</ele>
        <time>2010-01-16T13:25:13Z</time>
      </trkpt>
      <trkpt lat="45.02956" lon="5.10021">
        <ele>193.76699829102</ele>
        <time>2010-01-16T13:25:19Z</time>
      </trkpt>
      <trkpt lat="45.02943" lon="5.10077">
        <ele>196.04100036621</ele>
        <time>2010-01-16T13:25:29Z</time>
      </trkpt>
      <trkpt lat="45.02929" lon="5.10141">
        <ele>198.58399963379</ele>
        <time>2010-01-16T13:25:41Z</time>
      </trkpt>
      <trkpt lat="45.0292" lon="5.10167">
        <ele>200.22099304199</ele>
        <time>2010-01-16T13:25:47Z</time>
      </trkpt>
      <trkpt lat="45.02912" lon="5.10189">
        <ele>201.42199707031</ele>
        <time>2010-01-16T13:25:52Z</time>
      </trkpt>
      <trkpt lat="45.02904" lon="5.10214">
        <ele>203.03399658203</ele>
        <time>2010-01-16T13:25:58Z</time>
      </trkpt>
      <trkpt lat="45.02897" lon="5.10233">
        <ele>204.21099853516</ele>
        <time>2010-01-16T13:26:02Z</time>
      </trkpt>
      <trkpt lat="45.0289" lon="5.10253">
        <ele>205.25999450684</ele>
        <time>2010-01-16T13:26:07Z</time>
      </trkpt>
      <trkpt lat="45.02882" lon="5.10277">
        <ele>206.08500671387</ele>
        <time>2010-01-16T13:26:12Z</time>
      </trkpt>
      <trkpt lat="45.02874" lon="5.10299">
        <ele>207.20700073242</ele>
        <time>2010-01-16T13:26:17Z</time>
      </trkpt>
      <trkpt lat="45.02865" lon="5.10324">
        <ele>208.44900512695</ele>
        <time>2010-01-16T13:26:22Z</time>
      </trkpt>
      <trkpt lat="45.02848" lon="5.10374">
        <ele>210.03500366211</ele>
        <time>2010-01-16T13:26:31Z</time>
      </trkpt>
      <trkpt lat="45.02836" lon="5.10411">
        <ele>211.38800048828</ele>
        <time>2010-01-16T13:26:38Z</time>
      </trkpt>
      <trkpt lat="45.02819" lon="5.10459">
        <ele>212.77000427246</ele>
        <time>2010-01-16T13:26:47Z</time>
      </trkpt>
      <trkpt lat="45.02798" lon="5.10503">
        <ele>214.88999938965</ele>
        <time>2010-01-16T13:26:56Z</time>
      </trkpt>
      <trkpt lat="45.02777" lon="5.10559">
        <ele>216.04200744629</ele>
        <time>2010-01-16T13:27:07Z</time>
      </trkpt>
      <trkpt lat="45.02751" lon="5.10608">
        <ele>217.56599426269</ele>
        <time>2010-01-16T13:27:17Z</time>
      </trkpt>
      <trkpt lat="45.02728" lon="5.10658">
        <ele>218.9940032959</ele>
        <time>2010-01-16T13:27:27Z</time>
      </trkpt>
      <trkpt lat="45.02715" lon="5.10693">
        <ele>218.54899597168</ele>
        <time>2010-01-16T13:27:33Z</time>
      </trkpt>
      <trkpt lat="45.02704" lon="5.10735">
        <ele>218.58700561523</ele>
        <time>2010-01-16T13:27:39Z</time>
      </trkpt>
      <trkpt lat="45.0269" lon="5.10814">
        <ele>217.60299682617</ele>
        <time>2010-01-16T13:27:49Z</time>
      </trkpt>
      <trkpt lat="45.02678" lon="5.1087">
        <ele>218.03399658203</ele>
        <time>2010-01-16T13:27:56Z</time>
      </trkpt>
      <trkpt lat="45.02658" lon="5.10944">
        <ele>217.55099487305</ele>
        <time>2010-01-16T13:28:05Z</time>
      </trkpt>
      <trkpt lat="45.02633" lon="5.11007">
        <ele>216.96200561523</ele>
        <time>2010-01-16T13:28:13Z</time>
      </trkpt>
      <trkpt lat="45.02612" lon="5.11062">
        <ele>216.20599365234</ele>
        <time>2010-01-16T13:28:20Z</time>
      </trkpt>
      <trkpt lat="45.02596" lon="5.11102">
        <ele>216.27900695801</ele>
        <time>2010-01-16T13:28:25Z</time>
      </trkpt>
      <trkpt lat="45.02573" lon="5.1116">
        <ele>216.17799377441</ele>
        <time>2010-01-16T13:28:32Z</time>
      </trkpt>
      <trkpt lat="45.02548" lon="5.11205">
        <ele>215.69400024414</ele>
        <time>2010-01-16T13:28:38Z</time>
      </trkpt>
      <trkpt lat="45.0252" lon="5.11264">
        <ele>215.45199584961</ele>
        <time>2010-01-16T13:28:45Z</time>
      </trkpt>
      <trkpt lat="45.02496" lon="5.11329">
        <ele>215.9700012207</ele>
        <time>2010-01-16T13:28:52Z</time>
      </trkpt>
      <trkpt lat="45.02473" lon="5.11366">
        <ele>215.74800109863</ele>
        <time>2010-01-16T13:28:57Z</time>
      </trkpt>
      <trkpt lat="45.0244" lon="5.11408">
        <ele>217.41799926758</ele>
        <time>2010-01-16T13:29:04Z</time>
      </trkpt>
      <trkpt lat="45.02413" lon="5.11442">
        <ele>218.26899719238</ele>
        <time>2010-01-16T13:29:11Z</time>
      </trkpt>
      <trkpt lat="45.02378" lon="5.11487">
        <ele>220.60899353027</ele>
        <time>2010-01-16T13:29:22Z</time>
      </trkpt>
      <trkpt lat="45.02353" lon="5.1152">
        <ele>222</ele>
        <time>2010-01-16T13:29:31Z</time>
      </trkpt>
      <trkpt lat="45.02327" lon="5.11552">
        <ele>223.7559967041</ele>
        <time>2010-01-16T13:29:40Z</time>
      </trkpt>
      <trkpt lat="45.02301" lon="5.11587">
        <ele>225.75500488281</ele>
        <time>2010-01-16T13:29:49Z</time>
      </trkpt>
      <trkpt lat="45.02273" lon="5.11621">
        <ele>227.42500305176</ele>
        <time>2010-01-16T13:29:58Z</time>
      </trkpt>
      <trkpt lat="45.02238" lon="5.11664">
        <ele>229.92700195312</ele>
        <time>2010-01-16T13:30:09Z</time>
      </trkpt>
      <trkpt lat="45.02208" lon="5.11683">
        <ele>231.86199951172</ele>
        <time>2010-01-16T13:30:17Z</time>
      </trkpt>
      <trkpt lat="45.02178" lon="5.117">
        <ele>233.43800354004</ele>
        <time>2010-01-16T13:30:25Z</time>
      </trkpt>
      <trkpt lat="45.0214" lon="5.11713">
        <ele>234.94400024414</ele>
        <time>2010-01-16T13:30:34Z</time>
      </trkpt>
      <trkpt lat="45.02097" lon="5.11719">
        <ele>235.59599304199</ele>
        <time>2010-01-16T13:30:43Z</time>
      </trkpt>
      <trkpt lat="45.02047" lon="5.11721">
        <ele>237.14500427246</ele>
        <time>2010-01-16T13:30:53Z</time>
      </trkpt>
      <trkpt lat="45.02021" lon="5.11723">
        <ele>237.51400756836</ele>
        <time>2010-01-16T13:30:58Z</time>
      </trkpt>
      <trkpt lat="45.01997" lon="5.11724">
        <ele>237.89500427246</ele>
        <time>2010-01-16T13:31:03Z</time>
      </trkpt>
      <trkpt lat="45.01953" lon="5.11725">
        <ele>237.14999389648</ele>
        <time>2010-01-16T13:31:12Z</time>
      </trkpt>
      <trkpt lat="45.01907" lon="5.11733">
        <ele>237.48199462891</ele>
        <time>2010-01-16T13:31:21Z</time>
      </trkpt>
      <trkpt lat="45.01883" lon="5.11755">
        <ele>237.57899475098</ele>
        <time>2010-01-16T13:31:26Z</time>
      </trkpt>
      <trkpt lat="45.01842" lon="5.11812">
        <ele>238.83099365234</ele>
        <time>2010-01-16T13:31:36Z</time>
      </trkpt>
      <trkpt lat="45.01814" lon="5.11869">
        <ele>240.36500549316</ele>
        <time>2010-01-16T13:31:45Z</time>
      </trkpt>
      <trkpt lat="45.01786" lon="5.11943">
        <ele>242.13299560547</ele>
        <time>2010-01-16T13:31:56Z</time>
      </trkpt>
      <trkpt lat="45.01754" lon="5.12013">
        <ele>243.83299255371</ele>
        <time>2010-01-16T13:32:07Z</time>
      </trkpt>
      <trkpt lat="45.01724" lon="5.12076">
        <ele>244.8869934082</ele>
        <time>2010-01-16T13:32:17Z</time>
      </trkpt>
      <trkpt lat="45.017" lon="5.12135">
        <ele>245.80799865723</ele>
        <time>2010-01-16T13:32:26Z</time>
      </trkpt>
      <trkpt lat="45.01679" lon="5.12192">
        <ele>246.92399597168</ele>
        <time>2010-01-16T13:32:35Z</time>
      </trkpt>
      <trkpt lat="45.01662" lon="5.12259">
        <ele>248.32099914551</ele>
        <time>2010-01-16T13:32:45Z</time>
      </trkpt>
      <trkpt lat="45.01642" lon="5.12341">
        <ele>250.19099426269</ele>
        <time>2010-01-16T13:32:57Z</time>
      </trkpt>
      <trkpt lat="45.0163" lon="5.12403">
        <ele>251.59199523926</ele>
        <time>2010-01-16T13:33:06Z</time>
      </trkpt>
      <trkpt lat="45.01614" lon="5.12485">
        <ele>252.56300354004</ele>
        <time>2010-01-16T13:33:17Z</time>
      </trkpt>
      <trkpt lat="45.01603" lon="5.12545">
        <ele>253.45500183106</ele>
        <time>2010-01-16T13:33:25Z</time>
      </trkpt>
      <trkpt lat="45.01596" lon="5.12618">
        <ele>254.59899902344</ele>
        <time>2010-01-16T13:33:34Z</time>
      </trkpt>
      <trkpt lat="45.01577" lon="5.12646">
        <ele>255.00700378418</ele>
        <time>2010-01-16T13:33:39Z</time>
      </trkpt>
      <trkpt lat="45.01551" lon="5.12685">
        <ele>256.11401367188</ele>
        <time>2010-01-16T13:33:46Z</time>
      </trkpt>
      <trkpt lat="45.01532" lon="5.12729">
        <ele>256.39801025391</ele>
        <time>2010-01-16T13:33:53Z</time>
      </trkpt>
      <trkpt lat="45.01519" lon="5.12761">
        <ele>256.93099975586</ele>
        <time>2010-01-16T13:33:58Z</time>
      </trkpt>
      <trkpt lat="45.01513" lon="5.12773">
        <ele>257.11199951172</ele>
        <time>2010-01-16T13:34:00Z</time>
      </trkpt>
      <trkpt lat="45.01507" lon="5.12807">
        <ele>257.75</ele>
        <time>2010-01-16T13:34:05Z</time>
      </trkpt>
      <trkpt lat="45.01514" lon="5.12827">
        <ele>258.27899169922</ele>
        <time>2010-01-16T13:34:08Z</time>
      </trkpt>
      <trkpt lat="45.01529" lon="5.12873">
        <ele>258.55099487305</ele>
        <time>2010-01-16T13:34:15Z</time>
      </trkpt>
      <trkpt lat="45.01542" lon="5.12914">
        <ele>258.54998779297</ele>
        <time>2010-01-16T13:34:21Z</time>
      </trkpt>
      <trkpt lat="45.01546" lon="5.12927">
        <ele>258.31600952148</ele>
        <time>2010-01-16T13:34:23Z</time>
      </trkpt>
      <trkpt lat="45.0155" lon="5.12941">
        <ele>258.17401123047</ele>
        <time>2010-01-16T13:34:25Z</time>
      </trkpt>
      <trkpt lat="45.01554" lon="5.12963">
        <ele>257.29800415039</ele>
        <time>2010-01-16T13:34:32Z</time>
      </trkpt>
      <trkpt lat="45.0159" lon="5.13018">
        <ele>256.95999145508</ele>
        <time>2010-01-16T13:34:38Z</time>
      </trkpt>
      <trkpt lat="45.01632" lon="5.13049">
        <ele>255.99499511719</ele>
        <time>2010-01-16T13:34:46Z</time>
      </trkpt>
      <trkpt lat="45.01646" lon="5.1306">
        <ele>255.29200744629</ele>
        <time>2010-01-16T13:34:49Z</time>
      </trkpt>
      <trkpt lat="45.01669" lon="5.13068">
        <ele>253.12899780273</ele>
        <time>2010-01-16T13:34:53Z</time>
      </trkpt>
      <trkpt lat="45.01682" lon="5.13072">
        <ele>251.92300415039</ele>
        <time>2010-01-16T13:34:55Z</time>
      </trkpt>
      <trkpt lat="45.01728" lon="5.13063">
        <ele>248.03900146484</ele>
        <time>2010-01-16T13:35:01Z</time>
      </trkpt>
      <trkpt lat="45.01735" lon="5.13061">
        <ele>247.08200073242</ele>
        <time>2010-01-16T13:35:02Z</time>
      </trkpt>
      <trkpt lat="45.01767" lon="5.13051">
        <ele>243.95199584961</ele>
        <time>2010-01-16T13:35:06Z</time>
      </trkpt>
      <trkpt lat="45.01802" lon="5.1304">
        <ele>239.76699829102</ele>
        <time>2010-01-16T13:35:10Z</time>
      </trkpt>
      <trkpt lat="45.01851" lon="5.13048">
        <ele>235.91700744629</ele>
        <time>2010-01-16T13:35:14Z</time>
      </trkpt>
      <trkpt lat="45.01896" lon="5.13056">
        <ele>232.26699829102</ele>
        <time>2010-01-16T13:35:18Z</time>
      </trkpt>
      <trkpt lat="45.01962" lon="5.13064">
        <ele>225.83200073242</ele>
        <time>2010-01-16T13:35:24Z</time>
      </trkpt>
      <trkpt lat="45.02003" lon="5.13055">
        <ele>222.39500427246</ele>
        <time>2010-01-16T13:35:28Z</time>
      </trkpt>
      <trkpt lat="45.02014" lon="5.13052">
        <ele>221.81700134277</ele>
        <time>2010-01-16T13:35:29Z</time>
      </trkpt>
      <trkpt lat="45.02056" lon="5.13051">
        <ele>218.59800720215</ele>
        <time>2010-01-16T13:35:34Z</time>
      </trkpt>
      <trkpt lat="45.02065" lon="5.13052">
        <ele>217.77600097656</ele>
        <time>2010-01-16T13:35:35Z</time>
      </trkpt>
      <trkpt lat="45.02094" lon="5.13069">
        <ele>216.52499389648</ele>
        <time>2010-01-16T13:35:38Z</time>
      </trkpt>
      <trkpt lat="45.02103" lon="5.13104">
        <ele>213.72599792481</ele>
        <time>2010-01-16T13:35:42Z</time>
      </trkpt>
      <trkpt lat="45.021" lon="5.13132">
        <ele>212.23399353027</ele>
        <time>2010-01-16T13:35:45Z</time>
      </trkpt>
      <trkpt lat="45.02093" lon="5.13159">
        <ele>210.88200378418</ele>
        <time>2010-01-16T13:35:48Z</time>
      </trkpt>
      <trkpt lat="45.02085" lon="5.1318">
        <ele>209.2200012207</ele>
        <time>2010-01-16T13:35:50Z</time>
      </trkpt>
      <trkpt lat="45.02078" lon="5.13211">
        <ele>207.71600341797</ele>
        <time>2010-01-16T13:35:52Z</time>
      </trkpt>
      <trkpt lat="45.02081" lon="5.1326">
        <ele>205.40600585938</ele>
        <time>2010-01-16T13:35:56Z</time>
      </trkpt>
      <trkpt lat="45.02076" lon="5.13298">
        <ele>204.21499633789</ele>
        <time>2010-01-16T13:36:00Z</time>
      </trkpt>
      <trkpt lat="45.02064" lon="5.13306">
        <ele>204.23599243164</ele>
        <time>2010-01-16T13:36:03Z</time>
      </trkpt>
      <trkpt lat="45.02052" lon="5.13306">
        <ele>204.06199645996</ele>
        <time>2010-01-16T13:36:05Z</time>
      </trkpt>
      <trkpt lat="45.02021" lon="5.13316">
        <ele>203.77000427246</ele>
        <time>2010-01-16T13:36:11Z</time>
      </trkpt>
      <trkpt lat="45.02011" lon="5.13332">
        <ele>204.13999938965</ele>
        <time>2010-01-16T13:36:14Z</time>
      </trkpt>
      <trkpt lat="45.02007" lon="5.13346">
        <ele>204.38299560547</ele>
        <time>2010-01-16T13:36:16Z</time>
      </trkpt>
      <trkpt lat="45.02003" lon="5.1336">
        <ele>204.80000305176</ele>
        <time>2010-01-16T13:36:18Z</time>
      </trkpt>
      <trkpt lat="45.0199" lon="5.13389">
        <ele>206.30900573731</ele>
        <time>2010-01-16T13:36:23Z</time>
      </trkpt>
      <trkpt lat="45.01977" lon="5.13402">
        <ele>207.65600585938</ele>
        <time>2010-01-16T13:36:26Z</time>
      </trkpt>
      <trkpt lat="45.0197" lon="5.13409">
        <ele>208.5119934082</ele>
        <time>2010-01-16T13:36:28Z</time>
      </trkpt>
      <trkpt lat="45.0196" lon="5.13414">
        <ele>209.43800354004</ele>
        <time>2010-01-16T13:36:30Z</time>
      </trkpt>
      <trkpt lat="45.01941" lon="5.13417">
        <ele>211.27799987793</ele>
        <time>2010-01-16T13:36:34Z</time>
      </trkpt>
      <trkpt lat="45.01933" lon="5.1342">
        <ele>211.82400512695</ele>
        <time>2010-01-16T13:36:36Z</time>
      </trkpt>
      <trkpt lat="45.01924" lon="5.13425">
        <ele>212.71000671387</ele>
        <time>2010-01-16T13:36:38Z</time>
      </trkpt>
      <trkpt lat="45.01915" lon="5.13431">
        <ele>213.05700683594</ele>
        <time>2010-01-16T13:36:40Z</time>
      </trkpt>
      <trkpt lat="45.01902" lon="5.13437">
        <ele>214.17999267578</ele>
        <time>2010-01-16T13:36:43Z</time>
      </trkpt>
      <trkpt lat="45.0186" lon="5.13446">
        <ele>217.39599609375</ele>
        <time>2010-01-16T13:36:53Z</time>
      </trkpt>
      <trkpt lat="45.01842" lon="5.13457">
        <ele>218.30099487305</ele>
        <time>2010-01-16T13:36:58Z</time>
      </trkpt>
      <trkpt lat="45.0183" lon="5.1347">
        <ele>219.44200134277</ele>
        <time>2010-01-16T13:37:02Z</time>
      </trkpt>
      <trkpt lat="45.01822" lon="5.13479">
        <ele>220.33999633789</ele>
        <time>2010-01-16T13:37:06Z</time>
      </trkpt>
      <trkpt lat="45.01813" lon="5.13489">
        <ele>221.01400756836</ele>
        <time>2010-01-16T13:37:10Z</time>
      </trkpt>
      <trkpt lat="45.01799" lon="5.13504">
        <ele>222.19200134277</ele>
        <time>2010-01-16T13:37:15Z</time>
      </trkpt>
      <trkpt lat="45.01789" lon="5.13515">
        <ele>222.99099731445</ele>
        <time>2010-01-16T13:37:19Z</time>
      </trkpt>
      <trkpt lat="45.01775" lon="5.1353">
        <ele>223.7859954834</ele>
        <time>2010-01-16T13:37:24Z</time>
      </trkpt>
      <trkpt lat="45.01759" lon="5.13543">
        <ele>225.90199279785</ele>
        <time>2010-01-16T13:37:29Z</time>
      </trkpt>
      <trkpt lat="45.01752" lon="5.13547">
        <ele>226.59300231934</ele>
        <time>2010-01-16T13:37:31Z</time>
      </trkpt>
      <trkpt lat="45.01734" lon="5.13557">
        <ele>228.94299316406</ele>
        <time>2010-01-16T13:37:36Z</time>
      </trkpt>
      <trkpt lat="45.01707" lon="5.13574">
        <ele>231.22799682617</ele>
        <time>2010-01-16T13:37:43Z</time>
      </trkpt>
      <trkpt lat="45.01687" lon="5.13597">
        <ele>233.36799621582</ele>
        <time>2010-01-16T13:37:49Z</time>
      </trkpt>
      <trkpt lat="45.01674" lon="5.13613">
        <ele>234.64399719238</ele>
        <time>2010-01-16T13:37:53Z</time>
      </trkpt>
      <trkpt lat="45.01659" lon="5.13632">
        <ele>236.46899414062</ele>
        <time>2010-01-16T13:37:58Z</time>
      </trkpt>
      <trkpt lat="45.01647" lon="5.13646">
        <ele>237.71299743652</ele>
        <time>2010-01-16T13:38:02Z</time>
      </trkpt>
      <trkpt lat="45.01629" lon="5.13667">
        <ele>239.25900268555</ele>
        <time>2010-01-16T13:38:08Z</time>
      </trkpt>
      <trkpt lat="45.0162" lon="5.13681">
        <ele>241.30400085449</ele>
        <time>2010-01-16T13:38:12Z</time>
      </trkpt>
      <trkpt lat="45.01612" lon="5.13703">
        <ele>243.45300292969</ele>
        <time>2010-01-16T13:38:17Z</time>
      </trkpt>
      <trkpt lat="45.01603" lon="5.13728">
        <ele>244.84100341797</ele>
        <time>2010-01-16T13:38:22Z</time>
      </trkpt>
      <trkpt lat="45.01596" lon="5.13747">
        <ele>246.19400024414</ele>
        <time>2010-01-16T13:38:26Z</time>
      </trkpt>
      <trkpt lat="45.01594" lon="5.13752">
        <ele>246.71600341797</ele>
        <time>2010-01-16T13:38:27Z</time>
      </trkpt>
      <trkpt lat="45.01582" lon="5.13774">
        <ele>248.08000183106</ele>
        <time>2010-01-16T13:38:32Z</time>
      </trkpt>
      <trkpt lat="45.0157" lon="5.13795">
        <ele>249.8390045166</ele>
        <time>2010-01-16T13:38:37Z</time>
      </trkpt>
      <trkpt lat="45.01556" lon="5.1382">
        <ele>251.0950012207</ele>
        <time>2010-01-16T13:38:43Z</time>
      </trkpt>
      <trkpt lat="45.01543" lon="5.13841">
        <ele>253</ele>
        <time>2010-01-16T13:38:50Z</time>
      </trkpt>
      <trkpt lat="45.01531" lon="5.13854">
        <ele>254.69500732422</ele>
        <time>2010-01-16T13:38:55Z</time>
      </trkpt>
      <trkpt lat="45.01519" lon="5.13868">
        <ele>256.02099609375</ele>
        <time>2010-01-16T13:39:00Z</time>
      </trkpt>
      <trkpt lat="45.01505" lon="5.13882">
        <ele>257.5950012207</ele>
        <time>2010-01-16T13:39:05Z</time>
      </trkpt>
      <trkpt lat="45.01488" lon="5.13894">
        <ele>259.41598510742</ele>
        <time>2010-01-16T13:39:10Z</time>
      </trkpt>
      <trkpt lat="45.01468" lon="5.13909">
        <ele>261.34799194336</ele>
        <time>2010-01-16T13:39:15Z</time>
      </trkpt>
      <trkpt lat="45.01444" lon="5.13926">
        <ele>263.68099975586</ele>
        <time>2010-01-16T13:39:21Z</time>
      </trkpt>
      <trkpt lat="45.01429" lon="5.13947">
        <ele>264.76699829102</ele>
        <time>2010-01-16T13:39:25Z</time>
      </trkpt>
      <trkpt lat="45.01422" lon="5.13969">
        <ele>266.18399047852</ele>
        <time>2010-01-16T13:39:29Z</time>
      </trkpt>
      <trkpt lat="45.01412" lon="5.13989">
        <ele>267.15100097656</ele>
        <time>2010-01-16T13:39:35Z</time>
      </trkpt>
      <trkpt lat="45.01411" lon="5.13995">
        <ele>267.26998901367</ele>
        <time>2010-01-16T13:39:39Z</time>
      </trkpt>
      <trkpt lat="45.01411" lon="5.13995">
        <ele>267.1130065918</ele>
        <time>2010-01-16T13:41:42Z</time>
      </trkpt>
      <trkpt lat="45.01411" lon="5.13995">
        <ele>267.21499633789</ele>
        <time>2010-01-16T13:41:43Z</time>
      </trkpt>
      <trkpt lat="45.0141" lon="5.14008">
        <ele>267.56298828125</ele>
        <time>2010-01-16T13:41:49Z</time>
      </trkpt>
      <trkpt lat="45.01408" lon="5.14029">
        <ele>268.63598632812</ele>
        <time>2010-01-16T13:41:54Z</time>
      </trkpt>
      <trkpt lat="45.01409" lon="5.14052">
        <ele>269.55599975586</ele>
        <time>2010-01-16T13:41:59Z</time>
      </trkpt>
      <trkpt lat="45.01411" lon="5.14081">
        <ele>270.73098754883</ele>
        <time>2010-01-16T13:42:05Z</time>
      </trkpt>
      <trkpt lat="45.01414" lon="5.14112">
        <ele>271.73199462891</ele>
        <time>2010-01-16T13:42:11Z</time>
      </trkpt>
      <trkpt lat="45.01418" lon="5.14155">
        <ele>273.2619934082</ele>
        <time>2010-01-16T13:42:18Z</time>
      </trkpt>
      <trkpt lat="45.01419" lon="5.14182">
        <ele>273.99600219727</ele>
        <time>2010-01-16T13:42:22Z</time>
      </trkpt>
      <trkpt lat="45.01424" lon="5.1424">
        <ele>275.40399169922</ele>
        <time>2010-01-16T13:42:31Z</time>
      </trkpt>
      <trkpt lat="45.01428" lon="5.14286">
        <ele>277.00900268555</ele>
        <time>2010-01-16T13:42:38Z</time>
      </trkpt>
      <trkpt lat="45.01429" lon="5.14298">
        <ele>277.33200073242</ele>
        <time>2010-01-16T13:42:40Z</time>
      </trkpt>
      <trkpt lat="45.01435" lon="5.14359">
        <ele>278.44100952148</ele>
        <time>2010-01-16T13:42:49Z</time>
      </trkpt>
      <trkpt lat="45.01442" lon="5.14384">
        <ele>278.51699829102</ele>
        <time>2010-01-16T13:42:53Z</time>
      </trkpt>
      <trkpt lat="45.01463" lon="5.14424">
        <ele>279.96499633789</ele>
        <time>2010-01-16T13:43:01Z</time>
      </trkpt>
      <trkpt lat="45.01484" lon="5.14454">
        <ele>282.0299987793</ele>
        <time>2010-01-16T13:43:08Z</time>
      </trkpt>
      <trkpt lat="45.01508" lon="5.14486">
        <ele>284.32000732422</ele>
        <time>2010-01-16T13:43:16Z</time>
      </trkpt>
      <trkpt lat="45.01528" lon="5.14515">
        <ele>287.1669921875</ele>
        <time>2010-01-16T13:43:24Z</time>
      </trkpt>
      <trkpt lat="45.01547" lon="5.14542">
        <ele>289.84600830078</ele>
        <time>2010-01-16T13:43:32Z</time>
      </trkpt>
      <trkpt lat="45.01554" lon="5.14551">
        <ele>291.08700561523</ele>
        <time>2010-01-16T13:43:36Z</time>
      </trkpt>
      <trkpt lat="45.01543" lon="5.14596">
        <ele>291.95498657227</ele>
        <time>2010-01-16T13:43:42Z</time>
      </trkpt>
      <trkpt lat="45.01537" lon="5.14624">
        <ele>293.4049987793</ele>
        <time>2010-01-16T13:43:51Z</time>
      </trkpt>
      <trkpt lat="45.01524" lon="5.14688">
        <ele>293.92300415039</ele>
        <time>2010-01-16T13:43:58Z</time>
      </trkpt>
      <trkpt lat="45.01512" lon="5.14746">
        <ele>294.53399658203</ele>
        <time>2010-01-16T13:44:05Z</time>
      </trkpt>
      <trkpt lat="45.01515" lon="5.14769">
        <ele>294.50399780273</ele>
        <time>2010-01-16T13:44:08Z</time>
      </trkpt>
      <trkpt lat="45.01523" lon="5.14827">
        <ele>295.1789855957</ele>
        <time>2010-01-16T13:44:16Z</time>
      </trkpt>
      <trkpt lat="45.0153" lon="5.14882">
        <ele>296.21200561523</ele>
        <time>2010-01-16T13:44:24Z</time>
      </trkpt>
      <trkpt lat="45.01537" lon="5.14926">
        <ele>297.72500610352</ele>
        <time>2010-01-16T13:44:32Z</time>
      </trkpt>
      <trkpt lat="45.01541" lon="5.14961">
        <ele>298.5950012207</ele>
        <time>2010-01-16T13:44:39Z</time>
      </trkpt>
      <trkpt lat="45.01546" lon="5.15">
        <ele>299.77899169922</ele>
        <time>2010-01-16T13:44:47Z</time>
      </trkpt>
      <trkpt lat="45.01549" lon="5.15022">
        <ele>300.47100830078</ele>
        <time>2010-01-16T13:44:52Z</time>
      </trkpt>
      <trkpt lat="45.01553" lon="5.15057">
        <ele>301.43399047852</ele>
        <time>2010-01-16T13:44:58Z</time>
      </trkpt>
      <trkpt lat="45.01559" lon="5.151">
        <ele>302.61700439453</ele>
        <time>2010-01-16T13:45:06Z</time>
      </trkpt>
      <trkpt lat="45.01562" lon="5.15127">
        <ele>303.55099487305</ele>
        <time>2010-01-16T13:45:12Z</time>
      </trkpt>
      <trkpt lat="45.01562" lon="5.1513">
        <ele>303.48999023438</ele>
        <time>2010-01-16T13:45:15Z</time>
      </trkpt>
      <trkpt lat="45.01562" lon="5.1513">
        <ele>303.48699951172</ele>
        <time>2010-01-16T13:45:21Z</time>
      </trkpt>
      <trkpt lat="45.01562" lon="5.1513">
        <ele>303.78399658203</ele>
        <time>2010-01-16T13:45:27Z</time>
      </trkpt>
      <trkpt lat="45.01601" lon="5.15122">
        <ele>304.44799804688</ele>
        <time>2010-01-16T13:45:33Z</time>
      </trkpt>
      <trkpt lat="45.01632" lon="5.15111">
        <ele>304.73901367188</ele>
        <time>2010-01-16T13:45:39Z</time>
      </trkpt>
      <trkpt lat="45.01666" lon="5.151">
        <ele>305.98498535156</ele>
        <time>2010-01-16T13:45:48Z</time>
      </trkpt>
      <trkpt lat="45.01701" lon="5.15088">
        <ele>307.6789855957</ele>
        <time>2010-01-16T13:45:57Z</time>
      </trkpt>
      <trkpt lat="45.01717" lon="5.15083">
        <ele>309.62600708008</ele>
        <time>2010-01-16T13:46:06Z</time>
      </trkpt>
      <trkpt lat="45.01771" lon="5.15067">
        <ele>310.9880065918</ele>
        <time>2010-01-16T13:46:15Z</time>
      </trkpt>
      <trkpt lat="45.01801" lon="5.15069">
        <ele>312.68399047852</ele>
        <time>2010-01-16T13:46:23Z</time>
      </trkpt>
      <trkpt lat="45.01811" lon="5.1507">
        <ele>313.96499633789</ele>
        <time>2010-01-16T13:46:29Z</time>
      </trkpt>
      <trkpt lat="45.01811" lon="5.1507">
        <ele>315.54000854492</ele>
        <time>2010-01-16T13:46:35Z</time>
      </trkpt>
      <trkpt lat="45.01851" lon="5.15083">
        <ele>316.67199707031</ele>
        <time>2010-01-16T13:46:40Z</time>
      </trkpt>
      <trkpt lat="45.01866" lon="5.15086">
        <ele>317.59201049805</ele>
        <time>2010-01-16T13:46:45Z</time>
      </trkpt>
      <trkpt lat="45.01878" lon="5.15089">
        <ele>318.5119934082</ele>
        <time>2010-01-16T13:46:49Z</time>
      </trkpt>
      <trkpt lat="45.01895" lon="5.15093">
        <ele>318.97698974609</ele>
        <time>2010-01-16T13:46:55Z</time>
      </trkpt>
      <trkpt lat="45.01914" lon="5.15097">
        <ele>318.37100219727</ele>
        <time>2010-01-16T13:47:01Z</time>
      </trkpt>
      <trkpt lat="45.01926" lon="5.15099">
        <ele>317.8039855957</ele>
        <time>2010-01-16T13:47:04Z</time>
      </trkpt>
      <trkpt lat="45.01949" lon="5.15104">
        <ele>316.90301513672</ele>
        <time>2010-01-16T13:47:09Z</time>
      </trkpt>
      <trkpt lat="45.0196" lon="5.15124">
        <ele>317.23498535156</ele>
        <time>2010-01-16T13:47:11Z</time>
      </trkpt>
      <trkpt lat="45.01975" lon="5.15184">
        <ele>315.27200317383</ele>
        <time>2010-01-16T13:47:19Z</time>
      </trkpt>
      <trkpt lat="45.01986" lon="5.15229">
        <ele>314.05899047852</ele>
        <time>2010-01-16T13:47:25Z</time>
      </trkpt>
      <trkpt lat="45.01988" lon="5.15237">
        <ele>313.90100097656</ele>
        <time>2010-01-16T13:47:26Z</time>
      </trkpt>
      <trkpt lat="45.02003" lon="5.15264">
        <ele>312.91598510742</ele>
        <time>2010-01-16T13:47:30Z</time>
      </trkpt>
      <trkpt lat="45.02017" lon="5.1528">
        <ele>312.48599243164</ele>
        <time>2010-01-16T13:47:33Z</time>
      </trkpt>
      <trkpt lat="45.02045" lon="5.15301">
        <ele>311.50201416016</ele>
        <time>2010-01-16T13:47:38Z</time>
      </trkpt>
      <trkpt lat="45.0208" lon="5.15327">
        <ele>312.21899414062</ele>
        <time>2010-01-16T13:47:45Z</time>
      </trkpt>
      <trkpt lat="45.02094" lon="5.15338">
        <ele>312.20498657227</ele>
        <time>2010-01-16T13:47:48Z</time>
      </trkpt>
      <trkpt lat="45.02114" lon="5.1535">
        <ele>312.93701171875</ele>
        <time>2010-01-16T13:47:52Z</time>
      </trkpt>
      <trkpt lat="45.02148" lon="5.15345">
        <ele>314.21499633789</ele>
        <time>2010-01-16T13:47:59Z</time>
      </trkpt>
      <trkpt lat="45.02171" lon="5.15341">
        <ele>315.20401000977</ele>
        <time>2010-01-16T13:48:05Z</time>
      </trkpt>
      <trkpt lat="45.02184" lon="5.15347">
        <ele>316.22100830078</ele>
        <time>2010-01-16T13:48:09Z</time>
      </trkpt>
      <trkpt lat="45.02182" lon="5.15355">
        <ele>317.06298828125</ele>
        <time>2010-01-16T13:48:12Z</time>
      </trkpt>
      <trkpt lat="45.02168" lon="5.15359">
        <ele>317.32400512695</ele>
        <time>2010-01-16T13:48:17Z</time>
      </trkpt>
      <trkpt lat="45.02149" lon="5.15365">
        <ele>318.51400756836</ele>
        <time>2010-01-16T13:48:22Z</time>
      </trkpt>
      <trkpt lat="45.02139" lon="5.15383">
        <ele>319.80999755859</ele>
        <time>2010-01-16T13:48:27Z</time>
      </trkpt>
      <trkpt lat="45.0213" lon="5.15407">
        <ele>322.39801025391</ele>
        <time>2010-01-16T13:48:34Z</time>
      </trkpt>
      <trkpt lat="45.02125" lon="5.15419">
        <ele>324.0530090332</ele>
        <time>2010-01-16T13:48:38Z</time>
      </trkpt>
      <trkpt lat="45.02118" lon="5.15438">
        <ele>325.68099975586</ele>
        <time>2010-01-16T13:48:45Z</time>
      </trkpt>
      <trkpt lat="45.02109" lon="5.15452">
        <ele>326.86999511719</ele>
        <time>2010-01-16T13:48:50Z</time>
      </trkpt>
      <trkpt lat="45.021" lon="5.15464">
        <ele>328.26300048828</ele>
        <time>2010-01-16T13:48:55Z</time>
      </trkpt>
      <trkpt lat="45.02089" lon="5.1548">
        <ele>330.72601318359</ele>
        <time>2010-01-16T13:49:02Z</time>
      </trkpt>
      <trkpt lat="45.02077" lon="5.15495">
        <ele>332.26998901367</ele>
        <time>2010-01-16T13:49:09Z</time>
      </trkpt>
      <trkpt lat="45.0207" lon="5.15505">
        <ele>333.86401367188</ele>
        <time>2010-01-16T13:49:14Z</time>
      </trkpt>
      <trkpt lat="45.02063" lon="5.15515">
        <ele>335.02099609375</ele>
        <time>2010-01-16T13:49:19Z</time>
      </trkpt>
      <trkpt lat="45.02054" lon="5.15527">
        <ele>336.21398925781</ele>
        <time>2010-01-16T13:49:25Z</time>
      </trkpt>
      <trkpt lat="45.02042" lon="5.15543">
        <ele>338.07998657227</ele>
        <time>2010-01-16T13:49:32Z</time>
      </trkpt>
      <trkpt lat="45.0203" lon="5.15559">
        <ele>339.86700439453</ele>
        <time>2010-01-16T13:49:39Z</time>
      </trkpt>
      <trkpt lat="45.02018" lon="5.15575">
        <ele>341.78500366211</ele>
        <time>2010-01-16T13:49:46Z</time>
      </trkpt>
      <trkpt lat="45.02009" lon="5.15584">
        <ele>342.83700561523</ele>
        <time>2010-01-16T13:49:51Z</time>
      </trkpt>
      <trkpt lat="45.01992" lon="5.15603">
        <ele>344.4289855957</ele>
        <time>2010-01-16T13:50:00Z</time>
      </trkpt>
      <trkpt lat="45.0197" lon="5.15625">
        <ele>347.36199951172</ele>
        <time>2010-01-16T13:50:10Z</time>
      </trkpt>
      <trkpt lat="45.01957" lon="5.15639">
        <ele>348.52700805664</ele>
        <time>2010-01-16T13:50:17Z</time>
      </trkpt>
      <trkpt lat="45.01941" lon="5.15656">
        <ele>350.02600097656</ele>
        <time>2010-01-16T13:50:25Z</time>
      </trkpt>
      <trkpt lat="45.01929" lon="5.15668">
        <ele>351.90600585938</ele>
        <time>2010-01-16T13:50:31Z</time>
      </trkpt>
      <trkpt lat="45.01913" lon="5.15685">
        <ele>352.82501220703</ele>
        <time>2010-01-16T13:50:38Z</time>
      </trkpt>
      <trkpt lat="45.01894" lon="5.15696">
        <ele>353.96398925781</ele>
        <time>2010-01-16T13:50:45Z</time>
      </trkpt>
      <trkpt lat="45.01876" lon="5.15701">
        <ele>354.57000732422</ele>
        <time>2010-01-16T13:50:51Z</time>
      </trkpt>
      <trkpt lat="45.01857" lon="5.15707">
        <ele>355.82299804688</ele>
        <time>2010-01-16T13:50:58Z</time>
      </trkpt>
      <trkpt lat="45.01834" lon="5.15714">
        <ele>356.56900024414</ele>
        <time>2010-01-16T13:51:06Z</time>
      </trkpt>
      <trkpt lat="45.01811" lon="5.15721">
        <ele>358.5119934082</ele>
        <time>2010-01-16T13:51:15Z</time>
      </trkpt>
      <trkpt lat="45.01785" lon="5.15729">
        <ele>360.09399414062</ele>
        <time>2010-01-16T13:51:24Z</time>
      </trkpt>
      <trkpt lat="45.0176" lon="5.15737">
        <ele>361.42300415039</ele>
        <time>2010-01-16T13:51:32Z</time>
      </trkpt>
      <trkpt lat="45.01733" lon="5.15755">
        <ele>362.22399902344</ele>
        <time>2010-01-16T13:51:42Z</time>
      </trkpt>
      <trkpt lat="45.01721" lon="5.15763">
        <ele>363.26098632812</ele>
        <time>2010-01-16T13:51:47Z</time>
      </trkpt>
      <trkpt lat="45.0171" lon="5.15781">
        <ele>364.45401000977</ele>
        <time>2010-01-16T13:51:54Z</time>
      </trkpt>
      <trkpt lat="45.017" lon="5.15807">
        <ele>365.54400634766</ele>
        <time>2010-01-16T13:52:02Z</time>
      </trkpt>
      <trkpt lat="45.01685" lon="5.1583">
        <ele>367.30999755859</ele>
        <time>2010-01-16T13:52:10Z</time>
      </trkpt>
      <trkpt lat="45.0167" lon="5.15851">
        <ele>369.49099731445</ele>
        <time>2010-01-16T13:52:18Z</time>
      </trkpt>
      <trkpt lat="45.01655" lon="5.15874">
        <ele>369.96301269531</ele>
        <time>2010-01-16T13:52:27Z</time>
      </trkpt>
      <trkpt lat="45.01638" lon="5.15899">
        <ele>371.50900268555</ele>
        <time>2010-01-16T13:52:37Z</time>
      </trkpt>
      <trkpt lat="45.01635" lon="5.15904">
        <ele>372.25299072266</ele>
        <time>2010-01-16T13:52:39Z</time>
      </trkpt>
      <trkpt lat="45.0163" lon="5.15923">
        <ele>373.12899780273</ele>
        <time>2010-01-16T13:52:45Z</time>
      </trkpt>
      <trkpt lat="45.01627" lon="5.15933">
        <ele>374.50900268555</ele>
        <time>2010-01-16T13:52:48Z</time>
      </trkpt>
      <trkpt lat="45.01621" lon="5.15958">
        <ele>374.67401123047</ele>
        <time>2010-01-16T13:52:55Z</time>
      </trkpt>
      <trkpt lat="45.01617" lon="5.15983">
        <ele>378.30499267578</ele>
        <time>2010-01-16T13:53:02Z</time>
      </trkpt>
      <trkpt lat="45.01615" lon="5.15999">
        <ele>378.83099365234</ele>
        <time>2010-01-16T13:53:07Z</time>
      </trkpt>
      <trkpt lat="45.01612" lon="5.16013">
        <ele>379.77600097656</ele>
        <time>2010-01-16T13:53:12Z</time>
      </trkpt>
      <trkpt lat="45.01606" lon="5.1603">
        <ele>380.41598510742</ele>
        <time>2010-01-16T13:53:18Z</time>
      </trkpt>
      <trkpt lat="45.01601" lon="5.16044">
        <ele>381.9880065918</ele>
        <time>2010-01-16T13:53:23Z</time>
      </trkpt>
      <trkpt lat="45.01592" lon="5.16069">
        <ele>383.16101074219</ele>
        <time>2010-01-16T13:53:31Z</time>
      </trkpt>
      <trkpt lat="45.01588" lon="5.16088">
        <ele>383.73699951172</ele>
        <time>2010-01-16T13:53:37Z</time>
      </trkpt>
      <trkpt lat="45.01587" lon="5.16099">
        <ele>385.22299194336</ele>
        <time>2010-01-16T13:53:41Z</time>
      </trkpt>
      <trkpt lat="45.01584" lon="5.16115">
        <ele>388.84201049805</ele>
        <time>2010-01-16T13:53:47Z</time>
      </trkpt>
      <trkpt lat="45.01583" lon="5.16119">
        <ele>388.85501098633</ele>
        <time>2010-01-16T13:53:48Z</time>
      </trkpt>
      <trkpt lat="45.01576" lon="5.16132">
        <ele>388.50299072266</ele>
        <time>2010-01-16T13:53:53Z</time>
      </trkpt>
      <trkpt lat="45.01573" lon="5.16136">
        <ele>388.6549987793</ele>
        <time>2010-01-16T13:53:54Z</time>
      </trkpt>
      <trkpt lat="45.01554" lon="5.1615">
        <ele>389.40301513672</ele>
        <time>2010-01-16T13:54:03Z</time>
      </trkpt>
      <trkpt lat="45.01548" lon="5.16154">
        <ele>388.80599975586</ele>
        <time>2010-01-16T13:54:09Z</time>
      </trkpt>
      <trkpt lat="45.01544" lon="5.16157">
        <ele>389.01800537109</ele>
        <time>2010-01-16T13:57:07Z</time>
      </trkpt>
      <trkpt lat="45.01543" lon="5.16158">
        <ele>389.30599975586</ele>
        <time>2010-01-16T13:57:08Z</time>
      </trkpt>
      <trkpt lat="45.01536" lon="5.16164">
        <ele>389.12600708008</ele>
        <time>2010-01-16T13:57:12Z</time>
      </trkpt>
      <trkpt lat="45.01525" lon="5.16172">
        <ele>388.38299560547</ele>
        <time>2010-01-16T13:57:16Z</time>
      </trkpt>
      <trkpt lat="45.01522" lon="5.16174">
        <ele>388.25399780273</ele>
        <time>2010-01-16T13:57:17Z</time>
      </trkpt>
      <trkpt lat="45.01501" lon="5.16183">
        <ele>386.8450012207</ele>
        <time>2010-01-16T13:57:22Z</time>
      </trkpt>
      <trkpt lat="45.01484" lon="5.16191">
        <ele>385.46099853516</ele>
        <time>2010-01-16T13:57:25Z</time>
      </trkpt>
      <trkpt lat="45.01479" lon="5.16196">
        <ele>384.84799194336</ele>
        <time>2010-01-16T13:57:26Z</time>
      </trkpt>
      <trkpt lat="45.01455" lon="5.1622">
        <ele>383.12100219727</ele>
        <time>2010-01-16T13:57:30Z</time>
      </trkpt>
      <trkpt lat="45.01436" lon="5.16242">
        <ele>380.96099853516</ele>
        <time>2010-01-16T13:57:33Z</time>
      </trkpt>
      <trkpt lat="45.01424" lon="5.16258">
        <ele>380.16000366211</ele>
        <time>2010-01-16T13:57:35Z</time>
      </trkpt>
      <trkpt lat="45.01417" lon="5.16266">
        <ele>379.08099365234</ele>
        <time>2010-01-16T13:57:36Z</time>
      </trkpt>
      <trkpt lat="45.01397" lon="5.16292">
        <ele>377.11401367188</ele>
        <time>2010-01-16T13:57:39Z</time>
      </trkpt>
      <trkpt lat="45.01361" lon="5.16339">
        <ele>372.69100952148</ele>
        <time>2010-01-16T13:57:44Z</time>
      </trkpt>
      <trkpt lat="45.01316" lon="5.16397">
        <ele>366.92401123047</ele>
        <time>2010-01-16T13:57:50Z</time>
      </trkpt>
      <trkpt lat="45.01299" lon="5.16443">
        <ele>364.33599853516</ele>
        <time>2010-01-16T13:57:54Z</time>
      </trkpt>
      <trkpt lat="45.01292" lon="5.16479">
        <ele>361.25</ele>
        <time>2010-01-16T13:57:57Z</time>
      </trkpt>
      <trkpt lat="45.01289" lon="5.16487">
        <ele>361.06600952148</ele>
        <time>2010-01-16T13:57:58Z</time>
      </trkpt>
      <trkpt lat="45.01275" lon="5.16495">
        <ele>359.06900024414</ele>
        <time>2010-01-16T13:58:00Z</time>
      </trkpt>
      <trkpt lat="45.01259" lon="5.16502">
        <ele>357.375</ele>
        <time>2010-01-16T13:58:02Z</time>
      </trkpt>
      <trkpt lat="45.01229" lon="5.16534">
        <ele>354.16198730469</ele>
        <time>2010-01-16T13:58:06Z</time>
      </trkpt>
      <trkpt lat="45.01216" lon="5.16555">
        <ele>352.5710144043</ele>
        <time>2010-01-16T13:58:08Z</time>
      </trkpt>
      <trkpt lat="45.01182" lon="5.16592">
        <ele>348.54501342773</ele>
        <time>2010-01-16T13:58:12Z</time>
      </trkpt>
      <trkpt lat="45.01153" lon="5.16617">
        <ele>345.64700317383</ele>
        <time>2010-01-16T13:58:15Z</time>
      </trkpt>
      <trkpt lat="45.01129" lon="5.16645">
        <ele>342.56298828125</ele>
        <time>2010-01-16T13:58:19Z</time>
      </trkpt>
      <trkpt lat="45.01129" lon="5.16653">
        <ele>342.26098632812</ele>
        <time>2010-01-16T13:58:20Z</time>
      </trkpt>
      <trkpt lat="45.01131" lon="5.16663">
        <ele>342.28100585938</ele>
        <time>2010-01-16T13:58:21Z</time>
      </trkpt>
      <trkpt lat="45.01133" lon="5.16717">
        <ele>343.73300170898</ele>
        <time>2010-01-16T13:58:27Z</time>
      </trkpt>
      <trkpt lat="45.0113" lon="5.16723">
        <ele>343.4169921875</ele>
        <time>2010-01-16T13:58:28Z</time>
      </trkpt>
      <trkpt lat="45.01109" lon="5.16764">
        <ele>341.92300415039</ele>
        <time>2010-01-16T13:58:34Z</time>
      </trkpt>
      <trkpt lat="45.0108" lon="5.16804">
        <ele>339.81698608398</ele>
        <time>2010-01-16T13:58:40Z</time>
      </trkpt>
      <trkpt lat="45.01033" lon="5.16836">
        <ele>336.91299438477</ele>
        <time>2010-01-16T13:58:46Z</time>
      </trkpt>
      <trkpt lat="45.01026" lon="5.1684">
        <ele>336.48199462891</ele>
        <time>2010-01-16T13:58:47Z</time>
      </trkpt>
      <trkpt lat="45.01015" lon="5.16857">
        <ele>335.10000610352</ele>
        <time>2010-01-16T13:58:51Z</time>
      </trkpt>
      <trkpt lat="45.01029" lon="5.16869">
        <ele>333.74099731445</ele>
        <time>2010-01-16T13:58:54Z</time>
      </trkpt>
      <trkpt lat="45.01048" lon="5.16883">
        <ele>332.4580078125</ele>
        <time>2010-01-16T13:58:57Z</time>
      </trkpt>
      <trkpt lat="45.01063" lon="5.16888">
        <ele>331.37600708008</ele>
        <time>2010-01-16T13:58:59Z</time>
      </trkpt>
      <trkpt lat="45.01096" lon="5.16899">
        <ele>329.9700012207</ele>
        <time>2010-01-16T13:59:03Z</time>
      </trkpt>
      <trkpt lat="45.01148" lon="5.16924">
        <ele>325.50799560547</ele>
        <time>2010-01-16T13:59:09Z</time>
      </trkpt>
      <trkpt lat="45.01196" lon="5.16949">
        <ele>320.7799987793</ele>
        <time>2010-01-16T13:59:14Z</time>
      </trkpt>
      <trkpt lat="45.01216" lon="5.16955">
        <ele>319.4169921875</ele>
        <time>2010-01-16T13:59:16Z</time>
      </trkpt>
      <trkpt lat="45.01283" lon="5.16962">
        <ele>312.0830078125</ele>
        <time>2010-01-16T13:59:22Z</time>
      </trkpt>
      <trkpt lat="45.01294" lon="5.16965">
        <ele>309.93399047852</ele>
        <time>2010-01-16T13:59:23Z</time>
      </trkpt>
      <trkpt lat="45.01326" lon="5.16971">
        <ele>307.97500610352</ele>
        <time>2010-01-16T13:59:26Z</time>
      </trkpt>
      <trkpt lat="45.01335" lon="5.16957">
        <ele>307.53201293945</ele>
        <time>2010-01-16T13:59:28Z</time>
      </trkpt>
      <trkpt lat="45.01336" lon="5.16935">
        <ele>306.89300537109</ele>
        <time>2010-01-16T13:59:30Z</time>
      </trkpt>
      <trkpt lat="45.0134" lon="5.16896">
        <ele>304.86599731445</ele>
        <time>2010-01-16T13:59:34Z</time>
      </trkpt>
      <trkpt lat="45.01348" lon="5.16885">
        <ele>303.64498901367</ele>
        <time>2010-01-16T13:59:36Z</time>
      </trkpt>
      <trkpt lat="45.0136" lon="5.16888">
        <ele>302.34201049805</ele>
        <time>2010-01-16T13:59:38Z</time>
      </trkpt>
      <trkpt lat="45.0142" lon="5.16905">
        <ele>297.48498535156</ele>
        <time>2010-01-16T13:59:45Z</time>
      </trkpt>
      <trkpt lat="45.01448" lon="5.16916">
        <ele>294.98699951172</ele>
        <time>2010-01-16T13:59:48Z</time>
      </trkpt>
      <trkpt lat="45.01477" lon="5.16928">
        <ele>293.06799316406</ele>
        <time>2010-01-16T13:59:51Z</time>
      </trkpt>
      <trkpt lat="45.01495" lon="5.16944">
        <ele>291.50399780273</ele>
        <time>2010-01-16T13:59:53Z</time>
      </trkpt>
      <trkpt lat="45.01519" lon="5.16974">
        <ele>289.25799560547</ele>
        <time>2010-01-16T13:59:56Z</time>
      </trkpt>
      <trkpt lat="45.01555" lon="5.17009">
        <ele>285.48901367188</ele>
        <time>2010-01-16T14:00:00Z</time>
      </trkpt>
      <trkpt lat="45.01622" lon="5.17044">
        <ele>278.62899780273</ele>
        <time>2010-01-16T14:00:06Z</time>
      </trkpt>
      <trkpt lat="45.01648" lon="5.17046">
        <ele>276.37100219727</ele>
        <time>2010-01-16T14:00:09Z</time>
      </trkpt>
      <trkpt lat="45.01662" lon="5.17032">
        <ele>275.03500366211</ele>
        <time>2010-01-16T14:00:11Z</time>
      </trkpt>
      <trkpt lat="45.01686" lon="5.16997">
        <ele>271.19799804688</ele>
        <time>2010-01-16T14:00:16Z</time>
      </trkpt>
      <trkpt lat="45.01704" lon="5.16997">
        <ele>270.35101318359</ele>
        <time>2010-01-16T14:00:19Z</time>
      </trkpt>
      <trkpt lat="45.01721" lon="5.17017">
        <ele>268.0530090332</ele>
        <time>2010-01-16T14:00:22Z</time>
      </trkpt>
      <trkpt lat="45.01727" lon="5.17026">
        <ele>267.70098876953</ele>
        <time>2010-01-16T14:00:23Z</time>
      </trkpt>
      <trkpt lat="45.01744" lon="5.17056">
        <ele>265.57501220703</ele>
        <time>2010-01-16T14:00:26Z</time>
      </trkpt>
      <trkpt lat="45.01765" lon="5.17085">
        <ele>263.94900512695</ele>
        <time>2010-01-16T14:00:29Z</time>
      </trkpt>
      <trkpt lat="45.01774" lon="5.17089">
        <ele>263.83999633789</ele>
        <time>2010-01-16T14:00:30Z</time>
      </trkpt>
      <trkpt lat="45.01793" lon="5.17097">
        <ele>262.86599731445</ele>
        <time>2010-01-16T14:00:32Z</time>
      </trkpt>
      <trkpt lat="45.01839" lon="5.171">
        <ele>261.73400878906</ele>
        <time>2010-01-16T14:00:37Z</time>
      </trkpt>
      <trkpt lat="45.01896" lon="5.17075">
        <ele>261.0830078125</ele>
        <time>2010-01-16T14:00:44Z</time>
      </trkpt>
      <trkpt lat="45.01943" lon="5.17055">
        <ele>260.93099975586</ele>
        <time>2010-01-16T14:00:51Z</time>
      </trkpt>
      <trkpt lat="45.01968" lon="5.17044">
        <ele>260.06900024414</ele>
        <time>2010-01-16T14:00:55Z</time>
      </trkpt>
      <trkpt lat="45.01978" lon="5.1704">
        <ele>259.97399902344</ele>
        <time>2010-01-16T14:00:57Z</time>
      </trkpt>
      <trkpt lat="45.02039" lon="5.17027">
        <ele>259.07800292969</ele>
        <time>2010-01-16T14:01:06Z</time>
      </trkpt>
      <trkpt lat="45.02077" lon="5.17018">
        <ele>258.16598510742</ele>
        <time>2010-01-16T14:01:13Z</time>
      </trkpt>
      <trkpt lat="45.02111" lon="5.17015">
        <ele>257.88800048828</ele>
        <time>2010-01-16T14:01:17Z</time>
      </trkpt>
      <trkpt lat="45.02142" lon="5.17024">
        <ele>258.13000488281</ele>
        <time>2010-01-16T14:01:22Z</time>
      </trkpt>
      <trkpt lat="45.02169" lon="5.17028">
        <ele>258.32000732422</ele>
        <time>2010-01-16T14:01:27Z</time>
      </trkpt>
      <trkpt lat="45.02217" lon="5.17009">
        <ele>255.78100585938</ele>
        <time>2010-01-16T14:01:35Z</time>
      </trkpt>
      <trkpt lat="45.02259" lon="5.16994">
        <ele>254.51300048828</ele>
        <time>2010-01-16T14:01:41Z</time>
      </trkpt>
      <trkpt lat="45.02273" lon="5.16989">
        <ele>254.22900390625</ele>
        <time>2010-01-16T14:01:43Z</time>
      </trkpt>
      <trkpt lat="45.02312" lon="5.16993">
        <ele>254.82099914551</ele>
        <time>2010-01-16T14:01:49Z</time>
      </trkpt>
      <trkpt lat="45.02346" lon="5.17003">
        <ele>256.00799560547</ele>
        <time>2010-01-16T14:01:55Z</time>
      </trkpt>
      <trkpt lat="45.0238" lon="5.17014">
        <ele>258.24499511719</ele>
        <time>2010-01-16T14:02:01Z</time>
      </trkpt>
      <trkpt lat="45.02386" lon="5.17016">
        <ele>258.50698852539</ele>
        <time>2010-01-16T14:02:02Z</time>
      </trkpt>
      <trkpt lat="45.02419" lon="5.17026">
        <ele>259.9700012207</ele>
        <time>2010-01-16T14:02:07Z</time>
      </trkpt>
      <trkpt lat="45.02443" lon="5.17033">
        <ele>261.06698608398</ele>
        <time>2010-01-16T14:02:11Z</time>
      </trkpt>
      <trkpt lat="45.0246" lon="5.17039">
        <ele>261.90701293945</ele>
        <time>2010-01-16T14:02:14Z</time>
      </trkpt>
      <trkpt lat="45.02491" lon="5.17048">
        <ele>263.1780090332</ele>
        <time>2010-01-16T14:02:19Z</time>
      </trkpt>
      <trkpt lat="45.02525" lon="5.17051">
        <ele>264.63900756836</ele>
        <time>2010-01-16T14:02:25Z</time>
      </trkpt>
      <trkpt lat="45.02545" lon="5.17048">
        <ele>266.32400512695</ele>
        <time>2010-01-16T14:02:30Z</time>
      </trkpt>
      <trkpt lat="45.02556" lon="5.1708">
        <ele>267.25900268555</ele>
        <time>2010-01-16T14:02:33Z</time>
      </trkpt>
      <trkpt lat="45.02568" lon="5.17116">
        <ele>266.57800292969</ele>
        <time>2010-01-16T14:02:39Z</time>
      </trkpt>
      <trkpt lat="45.02575" lon="5.17162">
        <ele>263.97601318359</ele>
        <time>2010-01-16T14:02:45Z</time>
      </trkpt>
      <trkpt lat="45.02576" lon="5.17171">
        <ele>263.67498779297</ele>
        <time>2010-01-16T14:02:46Z</time>
      </trkpt>
      <trkpt lat="45.02584" lon="5.17226">
        <ele>261.125</ele>
        <time>2010-01-16T14:02:51Z</time>
      </trkpt>
      <trkpt lat="45.02593" lon="5.17282">
        <ele>260.01699829102</ele>
        <time>2010-01-16T14:02:56Z</time>
      </trkpt>
      <trkpt lat="45.02612" lon="5.1732">
        <ele>260.29000854492</ele>
        <time>2010-01-16T14:03:01Z</time>
      </trkpt>
      <trkpt lat="45.02617" lon="5.17326">
        <ele>260.24499511719</ele>
        <time>2010-01-16T14:03:02Z</time>
      </trkpt>
      <trkpt lat="45.02656" lon="5.17348">
        <ele>258.92700195312</ele>
        <time>2010-01-16T14:03:09Z</time>
      </trkpt>
      <trkpt lat="45.02674" lon="5.17357">
        <ele>257.29800415039</ele>
        <time>2010-01-16T14:03:16Z</time>
      </trkpt>
      <trkpt lat="45.02719" lon="5.17376">
        <ele>256.70901489258</ele>
        <time>2010-01-16T14:03:19Z</time>
      </trkpt>
      <trkpt lat="45.02755" lon="5.17391">
        <ele>256.42401123047</ele>
        <time>2010-01-16T14:03:25Z</time>
      </trkpt>
      <trkpt lat="45.02772" lon="5.17398">
        <ele>256.67001342773</ele>
        <time>2010-01-16T14:03:28Z</time>
      </trkpt>
      <trkpt lat="45.02809" lon="5.17414">
        <ele>259.35000610352</ele>
        <time>2010-01-16T14:03:35Z</time>
      </trkpt>
      <trkpt lat="45.02828" lon="5.17422">
        <ele>258.77899169922</ele>
        <time>2010-01-16T14:03:40Z</time>
      </trkpt>
      <trkpt lat="45.02828" lon="5.17422">
        <ele>257.83898925781</ele>
        <time>2010-01-16T14:03:43Z</time>
      </trkpt>
      <trkpt lat="45.02828" lon="5.17422">
        <ele>257.37399291992</ele>
        <time>2010-01-16T14:03:46Z</time>
      </trkpt>
      <trkpt lat="45.02864" lon="5.17422">
        <ele>256.18099975586</ele>
        <time>2010-01-16T14:03:51Z</time>
      </trkpt>
      <trkpt lat="45.02876" lon="5.17422">
        <ele>255.60499572754</ele>
        <time>2010-01-16T14:03:55Z</time>
      </trkpt>
      <trkpt lat="45.02871" lon="5.17455">
        <ele>254.86999511719</ele>
        <time>2010-01-16T14:03:59Z</time>
      </trkpt>
      <trkpt lat="45.02868" lon="5.17476">
        <ele>254.68299865723</ele>
        <time>2010-01-16T14:04:03Z</time>
      </trkpt>
      <trkpt lat="45.02868" lon="5.17481">
        <ele>254.67100524902</ele>
        <time>2010-01-16T14:04:04Z</time>
      </trkpt>
      <trkpt lat="45.0287" lon="5.17507">
        <ele>253.29400634766</ele>
        <time>2010-01-16T14:04:09Z</time>
      </trkpt>
      <trkpt lat="45.02888" lon="5.17537">
        <ele>252.39799499512</ele>
        <time>2010-01-16T14:04:14Z</time>
      </trkpt>
      <trkpt lat="45.02912" lon="5.17557">
        <ele>252.38000488281</ele>
        <time>2010-01-16T14:04:19Z</time>
      </trkpt>
      <trkpt lat="45.0293" lon="5.17578">
        <ele>252.51400756836</ele>
        <time>2010-01-16T14:04:24Z</time>
      </trkpt>
      <trkpt lat="45.02936" lon="5.17586">
        <ele>253.18800354004</ele>
        <time>2010-01-16T14:04:26Z</time>
      </trkpt>
      <trkpt lat="45.02947" lon="5.17601">
        <ele>253.91700744629</ele>
        <time>2010-01-16T14:04:30Z</time>
      </trkpt>
      <trkpt lat="45.02948" lon="5.17602">
        <ele>253.86099243164</ele>
        <time>2010-01-16T14:04:31Z</time>
      </trkpt>
      <trkpt lat="45.02948" lon="5.17602">
        <ele>254.36999511719</ele>
        <time>2010-01-16T14:04:38Z</time>
      </trkpt>
      <trkpt lat="45.02918" lon="5.17635">
        <ele>254.85899353027</ele>
        <time>2010-01-16T14:04:44Z</time>
      </trkpt>
      <trkpt lat="45.029" lon="5.17658">
        <ele>256.0950012207</ele>
        <time>2010-01-16T14:04:51Z</time>
      </trkpt>
      <trkpt lat="45.02893" lon="5.17666">
        <ele>257.36401367188</ele>
        <time>2010-01-16T14:04:57Z</time>
      </trkpt>
      <trkpt lat="45.02866" lon="5.17702">
        <ele>258.73300170898</ele>
        <time>2010-01-16T14:05:04Z</time>
      </trkpt>
      <trkpt lat="45.02863" lon="5.17714">
        <ele>259.36801147461</ele>
        <time>2010-01-16T14:05:11Z</time>
      </trkpt>
      <trkpt lat="45.02824" lon="5.17752">
        <ele>261.3210144043</ele>
        <time>2010-01-16T14:05:22Z</time>
      </trkpt>
      <trkpt lat="45.02777" lon="5.17782">
        <ele>262.25</ele>
        <time>2010-01-16T14:05:33Z</time>
      </trkpt>
      <trkpt lat="45.02758" lon="5.17794">
        <ele>262.65798950195</ele>
        <time>2010-01-16T14:05:39Z</time>
      </trkpt>
      <trkpt lat="45.02731" lon="5.17811">
        <ele>263.53601074219</ele>
        <time>2010-01-16T14:05:47Z</time>
      </trkpt>
      <trkpt lat="45.02704" lon="5.17828">
        <ele>264.59100341797</ele>
        <time>2010-01-16T14:05:55Z</time>
      </trkpt>
      <trkpt lat="45.02678" lon="5.1784">
        <ele>265.36401367188</ele>
        <time>2010-01-16T14:06:02Z</time>
      </trkpt>
      <trkpt lat="45.02655" lon="5.17849">
        <ele>266.76098632812</ele>
        <time>2010-01-16T14:06:09Z</time>
      </trkpt>
      <trkpt lat="45.02634" lon="5.17857">
        <ele>268.22100830078</ele>
        <time>2010-01-16T14:06:16Z</time>
      </trkpt>
      <trkpt lat="45.02605" lon="5.17868">
        <ele>270.2080078125</ele>
        <time>2010-01-16T14:06:26Z</time>
      </trkpt>
      <trkpt lat="45.02578" lon="5.17883">
        <ele>272.57400512695</ele>
        <time>2010-01-16T14:06:36Z</time>
      </trkpt>
      <trkpt lat="45.02557" lon="5.17895">
        <ele>274.28799438477</ele>
        <time>2010-01-16T14:06:44Z</time>
      </trkpt>
      <trkpt lat="45.02541" lon="5.17904">
        <ele>275.58898925781</ele>
        <time>2010-01-16T14:06:51Z</time>
      </trkpt>
      <trkpt lat="45.02526" lon="5.17912">
        <ele>276.65200805664</ele>
        <time>2010-01-16T14:06:58Z</time>
      </trkpt>
      <trkpt lat="45.02511" lon="5.1792">
        <ele>278.125</ele>
        <time>2010-01-16T14:07:05Z</time>
      </trkpt>
      <trkpt lat="45.02496" lon="5.17929">
        <ele>279.22799682617</ele>
        <time>2010-01-16T14:07:12Z</time>
      </trkpt>
      <trkpt lat="45.02478" lon="5.17938">
        <ele>280.66900634766</ele>
        <time>2010-01-16T14:07:20Z</time>
      </trkpt>
      <trkpt lat="45.02457" lon="5.17949">
        <ele>282.02200317383</ele>
        <time>2010-01-16T14:07:29Z</time>
      </trkpt>
      <trkpt lat="45.0244" lon="5.17959">
        <ele>283.03799438477</ele>
        <time>2010-01-16T14:07:36Z</time>
      </trkpt>
      <trkpt lat="45.02417" lon="5.17971">
        <ele>284.30801391602</ele>
        <time>2010-01-16T14:07:45Z</time>
      </trkpt>
      <trkpt lat="45.02397" lon="5.17982">
        <ele>285.39498901367</ele>
        <time>2010-01-16T14:07:53Z</time>
      </trkpt>
      <trkpt lat="45.02379" lon="5.17995">
        <ele>286.56100463867</ele>
        <time>2010-01-16T14:08:00Z</time>
      </trkpt>
      <trkpt lat="45.02358" lon="5.18016">
        <ele>288.40701293945</ele>
        <time>2010-01-16T14:08:09Z</time>
      </trkpt>
      <trkpt lat="45.0234" lon="5.18035">
        <ele>289.50299072266</ele>
        <time>2010-01-16T14:08:17Z</time>
      </trkpt>
      <trkpt lat="45.02317" lon="5.18057">
        <ele>291.07501220703</ele>
        <time>2010-01-16T14:08:26Z</time>
      </trkpt>
      <trkpt lat="45.02301" lon="5.18065">
        <ele>292.04098510742</ele>
        <time>2010-01-16T14:08:32Z</time>
      </trkpt>
      <trkpt lat="45.02274" lon="5.18073">
        <ele>293.67300415039</ele>
        <time>2010-01-16T14:08:41Z</time>
      </trkpt>
      <trkpt lat="45.02251" lon="5.18078">
        <ele>294.95700073242</ele>
        <time>2010-01-16T14:08:49Z</time>
      </trkpt>
      <trkpt lat="45.02228" lon="5.18083">
        <ele>295.95498657227</ele>
        <time>2010-01-16T14:08:57Z</time>
      </trkpt>
      <trkpt lat="45.0221" lon="5.18097">
        <ele>296.97399902344</ele>
        <time>2010-01-16T14:09:04Z</time>
      </trkpt>
      <trkpt lat="45.02181" lon="5.18121">
        <ele>298.31100463867</ele>
        <time>2010-01-16T14:09:15Z</time>
      </trkpt>
      <trkpt lat="45.02162" lon="5.18127">
        <ele>299.10198974609</ele>
        <time>2010-01-16T14:09:21Z</time>
      </trkpt>
      <trkpt lat="45.02136" lon="5.1813">
        <ele>300.14300537109</ele>
        <time>2010-01-16T14:09:29Z</time>
      </trkpt>
      <trkpt lat="45.02102" lon="5.18135">
        <ele>301.77301025391</ele>
        <time>2010-01-16T14:09:40Z</time>
      </trkpt>
      <trkpt lat="45.02068" lon="5.18141">
        <ele>303.23199462891</ele>
        <time>2010-01-16T14:09:50Z</time>
      </trkpt>
      <trkpt lat="45.0204" lon="5.18155">
        <ele>304.44500732422</ele>
        <time>2010-01-16T14:09:59Z</time>
      </trkpt>
      <trkpt lat="45.02005" lon="5.18173">
        <ele>305.93099975586</ele>
        <time>2010-01-16T14:10:10Z</time>
      </trkpt>
      <trkpt lat="45.01974" lon="5.18189">
        <ele>307.74398803711</ele>
        <time>2010-01-16T14:10:20Z</time>
      </trkpt>
      <trkpt lat="45.01947" lon="5.18204">
        <ele>308.82501220703</ele>
        <time>2010-01-16T14:10:29Z</time>
      </trkpt>
      <trkpt lat="45.01921" lon="5.18205">
        <ele>310.50698852539</ele>
        <time>2010-01-16T14:10:37Z</time>
      </trkpt>
      <trkpt lat="45.01896" lon="5.18202">
        <ele>311.93200683594</ele>
        <time>2010-01-16T14:10:45Z</time>
      </trkpt>
      <trkpt lat="45.01865" lon="5.18188">
        <ele>314.02700805664</ele>
        <time>2010-01-16T14:10:56Z</time>
      </trkpt>
      <trkpt lat="45.01842" lon="5.18178">
        <ele>315.70098876953</ele>
        <time>2010-01-16T14:11:04Z</time>
      </trkpt>
      <trkpt lat="45.01814" lon="5.18166">
        <ele>317.69299316406</ele>
        <time>2010-01-16T14:11:14Z</time>
      </trkpt>
      <trkpt lat="45.01785" lon="5.18153">
        <ele>319.64898681641</ele>
        <time>2010-01-16T14:11:24Z</time>
      </trkpt>
      <trkpt lat="45.0177" lon="5.1815">
        <ele>320.49899291992</ele>
        <time>2010-01-16T14:11:29Z</time>
      </trkpt>
      <trkpt lat="45.01747" lon="5.18146">
        <ele>322.16900634766</ele>
        <time>2010-01-16T14:11:37Z</time>
      </trkpt>
      <trkpt lat="45.01717" lon="5.18141">
        <ele>324.61499023438</ele>
        <time>2010-01-16T14:11:47Z</time>
      </trkpt>
      <trkpt lat="45.01689" lon="5.18137">
        <ele>326.4280090332</ele>
        <time>2010-01-16T14:11:56Z</time>
      </trkpt>
      <trkpt lat="45.01653" lon="5.18131">
        <ele>328.32998657227</ele>
        <time>2010-01-16T14:12:07Z</time>
      </trkpt>
      <trkpt lat="45.0163" lon="5.18127">
        <ele>329.73599243164</ele>
        <time>2010-01-16T14:12:14Z</time>
      </trkpt>
      <trkpt lat="45.01598" lon="5.18122">
        <ele>332.15301513672</ele>
        <time>2010-01-16T14:12:24Z</time>
      </trkpt>
      <trkpt lat="45.01573" lon="5.18124">
        <ele>333.96200561523</ele>
        <time>2010-01-16T14:12:32Z</time>
      </trkpt>
      <trkpt lat="45.01552" lon="5.18126">
        <ele>335.61099243164</ele>
        <time>2010-01-16T14:12:39Z</time>
      </trkpt>
      <trkpt lat="45.01519" lon="5.1813">
        <ele>337.71600341797</ele>
        <time>2010-01-16T14:12:50Z</time>
      </trkpt>
      <trkpt lat="45.01492" lon="5.18134">
        <ele>339.41299438477</ele>
        <time>2010-01-16T14:12:59Z</time>
      </trkpt>
      <trkpt lat="45.01471" lon="5.18125">
        <ele>340.38800048828</ele>
        <time>2010-01-16T14:13:06Z</time>
      </trkpt>
      <trkpt lat="45.01439" lon="5.18099">
        <ele>341.84399414062</ele>
        <time>2010-01-16T14:13:17Z</time>
      </trkpt>
      <trkpt lat="45.01408" lon="5.18082">
        <ele>342.66598510742</ele>
        <time>2010-01-16T14:13:26Z</time>
      </trkpt>
      <trkpt lat="45.01371" lon="5.18077">
        <ele>342.95599365234</ele>
        <time>2010-01-16T14:13:36Z</time>
      </trkpt>
      <trkpt lat="45.01324" lon="5.1807">
        <ele>344.66101074219</ele>
        <time>2010-01-16T14:13:48Z</time>
      </trkpt>
      <trkpt lat="45.01287" lon="5.18059">
        <ele>346.31900024414</ele>
        <time>2010-01-16T14:13:58Z</time>
      </trkpt>
      <trkpt lat="45.01259" lon="5.18041">
        <ele>347.83200073242</ele>
        <time>2010-01-16T14:14:06Z</time>
      </trkpt>
      <trkpt lat="45.01236" lon="5.18027">
        <ele>349.04000854492</ele>
        <time>2010-01-16T14:14:13Z</time>
      </trkpt>
      <trkpt lat="45.0121" lon="5.1801">
        <ele>349.9880065918</ele>
        <time>2010-01-16T14:14:21Z</time>
      </trkpt>
      <trkpt lat="45.01181" lon="5.17991">
        <ele>351.5710144043</ele>
        <time>2010-01-16T14:14:30Z</time>
      </trkpt>
      <trkpt lat="45.01163" lon="5.1798">
        <ele>352.71200561523</ele>
        <time>2010-01-16T14:14:41Z</time>
      </trkpt>
      <trkpt lat="45.0112" lon="5.17951">
        <ele>354.25698852539</ele>
        <time>2010-01-16T14:14:48Z</time>
      </trkpt>
      <trkpt lat="45.01091" lon="5.17931">
        <ele>355.41198730469</ele>
        <time>2010-01-16T14:14:57Z</time>
      </trkpt>
      <trkpt lat="45.01057" lon="5.17908">
        <ele>356.87799072266</ele>
        <time>2010-01-16T14:15:07Z</time>
      </trkpt>
      <trkpt lat="45.0102" lon="5.17884">
        <ele>357.78100585938</ele>
        <time>2010-01-16T14:15:18Z</time>
      </trkpt>
      <trkpt lat="45.00989" lon="5.1787">
        <ele>358.90200805664</ele>
        <time>2010-01-16T14:15:27Z</time>
      </trkpt>
      <trkpt lat="45.00964" lon="5.17858">
        <ele>360.19299316406</ele>
        <time>2010-01-16T14:15:35Z</time>
      </trkpt>
      <trkpt lat="45.00925" lon="5.17839">
        <ele>362.36999511719</ele>
        <time>2010-01-16T14:15:48Z</time>
      </trkpt>
      <trkpt lat="45.00899" lon="5.17838">
        <ele>364.07400512695</ele>
        <time>2010-01-16T14:15:56Z</time>
      </trkpt>
      <trkpt lat="45.00874" lon="5.17843">
        <ele>365.25698852539</ele>
        <time>2010-01-16T14:16:05Z</time>
      </trkpt>
      <trkpt lat="45.00855" lon="5.17847">
        <ele>367.06799316406</ele>
        <time>2010-01-16T14:16:12Z</time>
      </trkpt>
      <trkpt lat="45.00836" lon="5.17852">
        <ele>368.52301025391</ele>
        <time>2010-01-16T14:16:20Z</time>
      </trkpt>
      <trkpt lat="45.00816" lon="5.17856">
        <ele>370.07699584961</ele>
        <time>2010-01-16T14:16:28Z</time>
      </trkpt>
      <trkpt lat="45.00808" lon="5.17859">
        <ele>370.25399780273</ele>
        <time>2010-01-16T14:16:33Z</time>
      </trkpt>
      <trkpt lat="45.00807" lon="5.1786">
        <ele>370.08898925781</ele>
        <time>2010-01-16T14:16:36Z</time>
      </trkpt>
      <trkpt lat="45.00807" lon="5.1786">
        <ele>370.20001220703</ele>
        <time>2010-01-16T14:17:44Z</time>
      </trkpt>
      <trkpt lat="45.00807" lon="5.1786">
        <ele>369.91000366211</ele>
        <time>2010-01-16T14:17:48Z</time>
      </trkpt>
      <trkpt lat="45.00807" lon="5.1786">
        <ele>369.87399291992</ele>
        <time>2010-01-16T14:18:02Z</time>
      </trkpt>
      <trkpt lat="45.00807" lon="5.1786">
        <ele>369.96398925781</ele>
        <time>2010-01-16T14:18:05Z</time>
      </trkpt>
      <trkpt lat="45.00785" lon="5.1786">
        <ele>369.62200927734</ele>
        <time>2010-01-16T14:18:06Z</time>
      </trkpt>
      <trkpt lat="45.00785" lon="5.1786">
        <ele>369.87298583984</ele>
        <time>2010-01-16T14:18:11Z</time>
      </trkpt>
      <trkpt lat="45.00736" lon="5.17848">
        <ele>368.0419921875</ele>
        <time>2010-01-16T14:18:18Z</time>
      </trkpt>
      <trkpt lat="45.00719" lon="5.17844">
        <ele>367.55099487305</ele>
        <time>2010-01-16T14:18:22Z</time>
      </trkpt>
      <trkpt lat="45.00677" lon="5.1783">
        <ele>367.21499633789</ele>
        <time>2010-01-16T14:18:31Z</time>
      </trkpt>
      <trkpt lat="45.00638" lon="5.17814">
        <ele>366.84100341797</ele>
        <time>2010-01-16T14:18:39Z</time>
      </trkpt>
      <trkpt lat="45.00606" lon="5.178">
        <ele>366.01501464844</ele>
        <time>2010-01-16T14:18:45Z</time>
      </trkpt>
      <trkpt lat="45.0057" lon="5.17785">
        <ele>365.43399047852</ele>
        <time>2010-01-16T14:18:51Z</time>
      </trkpt>
      <trkpt lat="45.00532" lon="5.17768">
        <ele>365.04098510742</ele>
        <time>2010-01-16T14:18:58Z</time>
      </trkpt>
      <trkpt lat="45.00527" lon="5.17766">
        <ele>364.97399902344</ele>
        <time>2010-01-16T14:18:59Z</time>
      </trkpt>
      <trkpt lat="45.00507" lon="5.17765">
        <ele>364.75500488281</ele>
        <time>2010-01-16T14:19:03Z</time>
      </trkpt>
      <trkpt lat="45.00478" lon="5.17773">
        <ele>365.11801147461</ele>
        <time>2010-01-16T14:19:09Z</time>
      </trkpt>
      <trkpt lat="45.00462" lon="5.17789">
        <ele>366.03100585938</ele>
        <time>2010-01-16T14:19:13Z</time>
      </trkpt>
      <trkpt lat="45.00454" lon="5.17797">
        <ele>366.38800048828</ele>
        <time>2010-01-16T14:19:15Z</time>
      </trkpt>
      <trkpt lat="45.00444" lon="5.17811">
        <ele>366.71200561523</ele>
        <time>2010-01-16T14:19:18Z</time>
      </trkpt>
      <trkpt lat="45.00434" lon="5.17826">
        <ele>367.29699707031</ele>
        <time>2010-01-16T14:19:21Z</time>
      </trkpt>
      <trkpt lat="45.00418" lon="5.17862">
        <ele>368.54400634766</ele>
        <time>2010-01-16T14:19:28Z</time>
      </trkpt>
      <trkpt lat="45.00408" lon="5.17889">
        <ele>370.27899169922</ele>
        <time>2010-01-16T14:19:34Z</time>
      </trkpt>
      <trkpt lat="45.00403" lon="5.17902">
        <ele>370.88101196289</ele>
        <time>2010-01-16T14:19:37Z</time>
      </trkpt>
      <trkpt lat="45.00397" lon="5.17919">
        <ele>371.24301147461</ele>
        <time>2010-01-16T14:19:41Z</time>
      </trkpt>
      <trkpt lat="45.00381" lon="5.17943">
        <ele>372.74600219727</ele>
        <time>2010-01-16T14:19:48Z</time>
      </trkpt>
      <trkpt lat="45.00368" lon="5.17961">
        <ele>373.47900390625</ele>
        <time>2010-01-16T14:19:54Z</time>
      </trkpt>
      <trkpt lat="45.00348" lon="5.17988">
        <ele>375.2380065918</ele>
        <time>2010-01-16T14:20:03Z</time>
      </trkpt>
      <trkpt lat="45.00337" lon="5.18003">
        <ele>375.84298706055</ele>
        <time>2010-01-16T14:20:08Z</time>
      </trkpt>
      <trkpt lat="45.00324" lon="5.18021">
        <ele>376.14401245117</ele>
        <time>2010-01-16T14:20:14Z</time>
      </trkpt>
      <trkpt lat="45.00309" lon="5.18039">
        <ele>376.96200561523</ele>
        <time>2010-01-16T14:20:20Z</time>
      </trkpt>
      <trkpt lat="45.00296" lon="5.18053">
        <ele>377.71301269531</ele>
        <time>2010-01-16T14:20:25Z</time>
      </trkpt>
      <trkpt lat="45.00288" lon="5.18061">
        <ele>378.02899169922</ele>
        <time>2010-01-16T14:20:28Z</time>
      </trkpt>
      <trkpt lat="45.00276" lon="5.18073">
        <ele>378.69198608398</ele>
        <time>2010-01-16T14:20:33Z</time>
      </trkpt>
      <trkpt lat="45.00273" lon="5.18075">
        <ele>378.6369934082</ele>
        <time>2010-01-16T14:20:34Z</time>
      </trkpt>
      <trkpt lat="45.00254" lon="5.18088">
        <ele>379.95401000977</ele>
        <time>2010-01-16T14:20:41Z</time>
      </trkpt>
      <trkpt lat="45.00227" lon="5.18105">
        <ele>381.20199584961</ele>
        <time>2010-01-16T14:20:49Z</time>
      </trkpt>
      <trkpt lat="45.00211" lon="5.18115">
        <ele>382.19900512695</ele>
        <time>2010-01-16T14:20:54Z</time>
      </trkpt>
      <trkpt lat="45.00193" lon="5.18126">
        <ele>383.12200927734</ele>
        <time>2010-01-16T14:21:00Z</time>
      </trkpt>
      <trkpt lat="45.00163" lon="5.18143">
        <ele>384.86999511719</ele>
        <time>2010-01-16T14:21:09Z</time>
      </trkpt>
      <trkpt lat="45.00135" lon="5.1816">
        <ele>386.23901367188</ele>
        <time>2010-01-16T14:21:18Z</time>
      </trkpt>
      <trkpt lat="45.00103" lon="5.18178">
        <ele>387.99099731445</ele>
        <time>2010-01-16T14:21:28Z</time>
      </trkpt>
      <trkpt lat="45.00069" lon="5.18201">
        <ele>389.83898925781</ele>
        <time>2010-01-16T14:21:39Z</time>
      </trkpt>
      <trkpt lat="45.00046" lon="5.18222">
        <ele>390.93899536133</ele>
        <time>2010-01-16T14:21:47Z</time>
      </trkpt>
      <trkpt lat="45.00019" lon="5.18259">
        <ele>392.91900634766</ele>
        <time>2010-01-16T14:21:58Z</time>
      </trkpt>
      <trkpt lat="44.99991" lon="5.18293">
        <ele>395.52899169922</ele>
        <time>2010-01-16T14:22:09Z</time>
      </trkpt>
      <trkpt lat="44.99966" lon="5.18317">
        <ele>397.28601074219</ele>
        <time>2010-01-16T14:22:18Z</time>
      </trkpt>
      <trkpt lat="44.99936" lon="5.18345">
        <ele>399.61199951172</ele>
        <time>2010-01-16T14:22:29Z</time>
      </trkpt>
      <trkpt lat="44.99919" lon="5.18361">
        <ele>400.47100830078</ele>
        <time>2010-01-16T14:22:35Z</time>
      </trkpt>
      <trkpt lat="44.99888" lon="5.18381">
        <ele>402.51300048828</ele>
        <time>2010-01-16T14:22:45Z</time>
      </trkpt>
      <trkpt lat="44.9986" lon="5.18399">
        <ele>404.22299194336</ele>
        <time>2010-01-16T14:22:54Z</time>
      </trkpt>
      <trkpt lat="44.99833" lon="5.18416">
        <ele>406.56900024414</ele>
        <time>2010-01-16T14:23:03Z</time>
      </trkpt>
      <trkpt lat="44.99819" lon="5.18425">
        <ele>408.02200317383</ele>
        <time>2010-01-16T14:23:08Z</time>
      </trkpt>
      <trkpt lat="44.99817" lon="5.18427">
        <ele>408.40399169922</ele>
        <time>2010-01-16T14:23:09Z</time>
      </trkpt>
      <trkpt lat="44.99802" lon="5.18436">
        <ele>410.375</ele>
        <time>2010-01-16T14:23:15Z</time>
      </trkpt>
      <trkpt lat="44.99778" lon="5.18452">
        <ele>413.06399536133</ele>
        <time>2010-01-16T14:23:24Z</time>
      </trkpt>
      <trkpt lat="44.99756" lon="5.18468">
        <ele>415.03799438477</ele>
        <time>2010-01-16T14:23:32Z</time>
      </trkpt>
      <trkpt lat="44.99732" lon="5.18484">
        <ele>417.34100341797</ele>
        <time>2010-01-16T14:23:41Z</time>
      </trkpt>
      <trkpt lat="44.99719" lon="5.18493">
        <ele>419.14999389648</ele>
        <time>2010-01-16T14:23:46Z</time>
      </trkpt>
      <trkpt lat="44.99708" lon="5.18501">
        <ele>420.00698852539</ele>
        <time>2010-01-16T14:23:51Z</time>
      </trkpt>
      <trkpt lat="44.99704" lon="5.18503">
        <ele>420.63299560547</ele>
        <time>2010-01-16T14:23:57Z</time>
      </trkpt>
      <trkpt lat="44.997" lon="5.18413">
        <ele>420.76699829102</ele>
        <time>2010-01-16T14:23:58Z</time>
      </trkpt>
      <trkpt lat="44.99697" lon="5.18512">
        <ele>420.39199829102</ele>
        <time>2010-01-16T14:24:05Z</time>
      </trkpt>
      <trkpt lat="44.99687" lon="5.18525">
        <ele>421.36401367188</ele>
        <time>2010-01-16T14:24:11Z</time>
      </trkpt>
      <trkpt lat="44.99679" lon="5.18534">
        <ele>421.87298583984</ele>
        <time>2010-01-16T14:24:17Z</time>
      </trkpt>
      <trkpt lat="44.99668" lon="5.18548">
        <ele>422.99200439453</ele>
        <time>2010-01-16T14:24:23Z</time>
      </trkpt>
      <trkpt lat="44.99662" lon="5.18555">
        <ele>423.56698608398</ele>
        <time>2010-01-16T14:24:26Z</time>
      </trkpt>
      <trkpt lat="44.99652" lon="5.18567">
        <ele>423.67599487305</ele>
        <time>2010-01-16T14:24:30Z</time>
      </trkpt>
      <trkpt lat="44.99652" lon="5.18568">
        <ele>423.40899658203</ele>
        <time>2010-01-16T14:24:31Z</time>
      </trkpt>
      <trkpt lat="44.99667" lon="5.18549">
        <ele>422.96099853516</ele>
        <time>2010-01-16T14:24:35Z</time>
      </trkpt>
      <trkpt lat="44.99689" lon="5.18522">
        <ele>420.92498779297</ele>
        <time>2010-01-16T14:24:41Z</time>
      </trkpt>
      <trkpt lat="44.99703" lon="5.18488">
        <ele>421.29299926758</ele>
        <time>2010-01-16T14:24:45Z</time>
      </trkpt>
      <trkpt lat="44.99702" lon="5.1848">
        <ele>421.17098999023</ele>
        <time>2010-01-16T14:24:46Z</time>
      </trkpt>
      <trkpt lat="44.99701" lon="5.1845">
        <ele>421.51599121094</ele>
        <time>2010-01-16T14:24:52Z</time>
      </trkpt>
      <trkpt lat="44.997" lon="5.18423">
        <ele>422.19198608398</ele>
        <time>2010-01-16T14:24:59Z</time>
      </trkpt>
      <trkpt lat="44.997" lon="5.18413">
        <ele>423.625</ele>
        <time>2010-01-16T14:25:06Z</time>
      </trkpt>
      <trkpt lat="44.99703" lon="5.18368">
        <ele>424.76800537109</ele>
        <time>2010-01-16T14:25:14Z</time>
      </trkpt>
      <trkpt lat="44.99704" lon="5.18362">
        <ele>426.08099365234</ele>
        <time>2010-01-16T14:25:21Z</time>
      </trkpt>
      <trkpt lat="44.99729" lon="5.18319">
        <ele>427.06399536133</ele>
        <time>2010-01-16T14:25:29Z</time>
      </trkpt>
      <trkpt lat="44.99748" lon="5.18289">
        <ele>427.56698608398</ele>
        <time>2010-01-16T14:25:37Z</time>
      </trkpt>
      <trkpt lat="44.99769" lon="5.18257">
        <ele>428.44000244141</ele>
        <time>2010-01-16T14:25:45Z</time>
      </trkpt>
      <trkpt lat="44.99792" lon="5.18219">
        <ele>428.87298583984</ele>
        <time>2010-01-16T14:25:54Z</time>
      </trkpt>
      <trkpt lat="44.9981" lon="5.18188">
        <ele>428.75799560547</ele>
        <time>2010-01-16T14:26:01Z</time>
      </trkpt>
      <trkpt lat="44.99821" lon="5.18167">
        <ele>428.24099731445</ele>
        <time>2010-01-16T14:26:05Z</time>
      </trkpt>
      <trkpt lat="44.99841" lon="5.1813">
        <ele>428.23999023438</ele>
        <time>2010-01-16T14:26:13Z</time>
      </trkpt>
      <trkpt lat="44.99858" lon="5.18091">
        <ele>428.0530090332</ele>
        <time>2010-01-16T14:26:19Z</time>
      </trkpt>
      <trkpt lat="44.9988" lon="5.18044">
        <ele>428.38900756836</ele>
        <time>2010-01-16T14:26:27Z</time>
      </trkpt>
      <trkpt lat="44.999" lon="5.17998">
        <ele>428.87100219727</ele>
        <time>2010-01-16T14:26:35Z</time>
      </trkpt>
      <trkpt lat="44.99916" lon="5.17951">
        <ele>429.90399169922</ele>
        <time>2010-01-16T14:26:43Z</time>
      </trkpt>
      <trkpt lat="44.99922" lon="5.179">
        <ele>430.84201049805</ele>
        <time>2010-01-16T14:26:52Z</time>
      </trkpt>
      <trkpt lat="44.99925" lon="5.17874">
        <ele>431.50399780273</ele>
        <time>2010-01-16T14:26:58Z</time>
      </trkpt>
      <trkpt lat="44.99928" lon="5.17847">
        <ele>432.22198486328</ele>
        <time>2010-01-16T14:27:05Z</time>
      </trkpt>
      <trkpt lat="44.99931" lon="5.17821">
        <ele>432.92300415039</ele>
        <time>2010-01-16T14:27:12Z</time>
      </trkpt>
      <trkpt lat="44.99934" lon="5.17802">
        <ele>434.45098876953</ele>
        <time>2010-01-16T14:27:17Z</time>
      </trkpt>
      <trkpt lat="44.99936" lon="5.17782">
        <ele>435.18099975586</ele>
        <time>2010-01-16T14:27:22Z</time>
      </trkpt>
      <trkpt lat="44.99939" lon="5.1776">
        <ele>436.40798950195</ele>
        <time>2010-01-16T14:27:29Z</time>
      </trkpt>
      <trkpt lat="44.99939" lon="5.17754">
        <ele>436.57998657227</ele>
        <time>2010-01-16T14:27:31Z</time>
      </trkpt>
      <trkpt lat="44.99923" lon="5.1774">
        <ele>438.16299438477</ele>
        <time>2010-01-16T14:27:38Z</time>
      </trkpt>
      <trkpt lat="44.99905" lon="5.17732">
        <ele>438.65100097656</ele>
        <time>2010-01-16T14:27:44Z</time>
      </trkpt>
      <trkpt lat="44.99887" lon="5.17724">
        <ele>439.125</ele>
        <time>2010-01-16T14:27:50Z</time>
      </trkpt>
      <trkpt lat="44.99859" lon="5.17711">
        <ele>440.47500610352</ele>
        <time>2010-01-16T14:27:59Z</time>
      </trkpt>
      <trkpt lat="44.99839" lon="5.17696">
        <ele>440.62200927734</ele>
        <time>2010-01-16T14:28:06Z</time>
      </trkpt>
      <trkpt lat="44.99819" lon="5.17673">
        <ele>439.62399291992</ele>
        <time>2010-01-16T14:28:13Z</time>
      </trkpt>
      <trkpt lat="44.99793" lon="5.17639">
        <ele>437.4289855957</ele>
        <time>2010-01-16T14:28:20Z</time>
      </trkpt>
      <trkpt lat="44.9976" lon="5.17602">
        <ele>436.30200195312</ele>
        <time>2010-01-16T14:28:28Z</time>
      </trkpt>
      <trkpt lat="44.99738" lon="5.17584">
        <ele>435.13198852539</ele>
        <time>2010-01-16T14:28:33Z</time>
      </trkpt>
      <trkpt lat="44.99686" lon="5.17559">
        <ele>432.53799438477</ele>
        <time>2010-01-16T14:28:43Z</time>
      </trkpt>
      <trkpt lat="44.99681" lon="5.17556">
        <ele>432.38800048828</ele>
        <time>2010-01-16T14:28:44Z</time>
      </trkpt>
      <trkpt lat="44.99664" lon="5.17536">
        <ele>430.80899047852</ele>
        <time>2010-01-16T14:28:48Z</time>
      </trkpt>
      <trkpt lat="44.99643" lon="5.17485">
        <ele>428.24700927734</ele>
        <time>2010-01-16T14:28:55Z</time>
      </trkpt>
      <trkpt lat="44.99617" lon="5.17425">
        <ele>425.49200439453</ele>
        <time>2010-01-16T14:29:03Z</time>
      </trkpt>
      <trkpt lat="44.99591" lon="5.17382">
        <ele>424.54000854492</ele>
        <time>2010-01-16T14:29:09Z</time>
      </trkpt>
      <trkpt lat="44.99556" lon="5.17355">
        <ele>422.72100830078</ele>
        <time>2010-01-16T14:29:15Z</time>
      </trkpt>
      <trkpt lat="44.99505" lon="5.17315">
        <ele>420.4580078125</ele>
        <time>2010-01-16T14:29:23Z</time>
      </trkpt>
      <trkpt lat="44.99469" lon="5.17283">
        <ele>422.57998657227</ele>
        <time>2010-01-16T14:29:28Z</time>
      </trkpt>
      <trkpt lat="44.99444" lon="5.1725">
        <ele>418.37799072266</ele>
        <time>2010-01-16T14:29:32Z</time>
      </trkpt>
      <trkpt lat="44.99406" lon="5.17202">
        <ele>416.98001098633</ele>
        <time>2010-01-16T14:29:38Z</time>
      </trkpt>
      <trkpt lat="44.99372" lon="5.17161">
        <ele>414.49398803711</ele>
        <time>2010-01-16T14:29:43Z</time>
      </trkpt>
      <trkpt lat="44.99319" lon="5.17097">
        <ele>413.64599609375</ele>
        <time>2010-01-16T14:29:51Z</time>
      </trkpt>
      <trkpt lat="44.99267" lon="5.17035">
        <ele>410.69500732422</ele>
        <time>2010-01-16T14:29:59Z</time>
      </trkpt>
      <trkpt lat="44.99232" lon="5.17003">
        <ele>409.21301269531</ele>
        <time>2010-01-16T14:30:04Z</time>
      </trkpt>
      <trkpt lat="44.99209" lon="5.16991">
        <ele>410.57400512695</ele>
        <time>2010-01-16T14:30:07Z</time>
      </trkpt>
      <trkpt lat="44.99165" lon="5.16971">
        <ele>408.86499023438</ele>
        <time>2010-01-16T14:30:13Z</time>
      </trkpt>
      <trkpt lat="44.99158" lon="5.16968">
        <ele>408.73699951172</ele>
        <time>2010-01-16T14:30:14Z</time>
      </trkpt>
      <trkpt lat="44.99131" lon="5.16965">
        <ele>408.25299072266</ele>
        <time>2010-01-16T14:30:18Z</time>
      </trkpt>
      <trkpt lat="44.9911" lon="5.16963">
        <ele>406.75500488281</ele>
        <time>2010-01-16T14:30:21Z</time>
      </trkpt>
      <trkpt lat="44.99066" lon="5.16967">
        <ele>405.5950012207</ele>
        <time>2010-01-16T14:30:27Z</time>
      </trkpt>
      <trkpt lat="44.99022" lon="5.16951">
        <ele>405.29400634766</ele>
        <time>2010-01-16T14:30:33Z</time>
      </trkpt>
      <trkpt lat="44.98974" lon="5.1693">
        <ele>406.20901489258</ele>
        <time>2010-01-16T14:30:40Z</time>
      </trkpt>
      <trkpt lat="44.98948" lon="5.16921">
        <ele>406.6130065918</ele>
        <time>2010-01-16T14:30:44Z</time>
      </trkpt>
      <trkpt lat="44.98909" lon="5.16891">
        <ele>405.89401245117</ele>
        <time>2010-01-16T14:30:50Z</time>
      </trkpt>
      <trkpt lat="44.98872" lon="5.1685">
        <ele>407.61898803711</ele>
        <time>2010-01-16T14:30:57Z</time>
      </trkpt>
      <trkpt lat="44.98842" lon="5.16814">
        <ele>409.32901000977</ele>
        <time>2010-01-16T14:31:04Z</time>
      </trkpt>
      <trkpt lat="44.98814" lon="5.16783">
        <ele>410.48400878906</ele>
        <time>2010-01-16T14:31:11Z</time>
      </trkpt>
      <trkpt lat="44.98799" lon="5.1677">
        <ele>410.30499267578</ele>
        <time>2010-01-16T14:31:15Z</time>
      </trkpt>
      <trkpt lat="44.98774" lon="5.16749">
        <ele>409.41598510742</ele>
        <time>2010-01-16T14:31:20Z</time>
      </trkpt>
      <trkpt lat="44.98737" lon="5.16715">
        <ele>408.27600097656</ele>
        <time>2010-01-16T14:31:26Z</time>
      </trkpt>
      <trkpt lat="44.98704" lon="5.1667">
        <ele>407.51501464844</ele>
        <time>2010-01-16T14:31:32Z</time>
      </trkpt>
      <trkpt lat="44.98668" lon="5.16609">
        <ele>406.39401245117</ele>
        <time>2010-01-16T14:31:39Z</time>
      </trkpt>
      <trkpt lat="44.98638" lon="5.16562">
        <ele>406.66900634766</ele>
        <time>2010-01-16T14:31:45Z</time>
      </trkpt>
      <trkpt lat="44.98608" lon="5.16531">
        <ele>405.69299316406</ele>
        <time>2010-01-16T14:31:50Z</time>
      </trkpt>
      <trkpt lat="44.98596" lon="5.16519">
        <ele>406.96899414062</ele>
        <time>2010-01-16T14:31:52Z</time>
      </trkpt>
      <trkpt lat="44.98536" lon="5.1646">
        <ele>405.57901000977</ele>
        <time>2010-01-16T14:32:02Z</time>
      </trkpt>
      <trkpt lat="44.98494" lon="5.16418">
        <ele>403.01098632812</ele>
        <time>2010-01-16T14:32:09Z</time>
      </trkpt>
      <trkpt lat="44.98456" lon="5.16367">
        <ele>402.97299194336</ele>
        <time>2010-01-16T14:32:16Z</time>
      </trkpt>
      <trkpt lat="44.98446" lon="5.16353">
        <ele>402.12600708008</ele>
        <time>2010-01-16T14:32:18Z</time>
      </trkpt>
      <trkpt lat="44.98397" lon="5.16283">
        <ele>403.16000366211</ele>
        <time>2010-01-16T14:32:28Z</time>
      </trkpt>
      <trkpt lat="44.98374" lon="5.1625">
        <ele>402.9280090332</ele>
        <time>2010-01-16T14:32:33Z</time>
      </trkpt>
      <trkpt lat="44.98353" lon="5.16233">
        <ele>402.75399780273</ele>
        <time>2010-01-16T14:32:37Z</time>
      </trkpt>
      <trkpt lat="44.98342" lon="5.16237">
        <ele>400.52700805664</ele>
        <time>2010-01-16T14:32:39Z</time>
      </trkpt>
      <trkpt lat="44.98299" lon="5.16267">
        <ele>396.29598999023</ele>
        <time>2010-01-16T14:32:45Z</time>
      </trkpt>
      <trkpt lat="44.98283" lon="5.1628">
        <ele>394.72500610352</ele>
        <time>2010-01-16T14:32:47Z</time>
      </trkpt>
      <trkpt lat="44.98269" lon="5.163">
        <ele>393.65200805664</ele>
        <time>2010-01-16T14:32:49Z</time>
      </trkpt>
      <trkpt lat="44.98247" lon="5.16332">
        <ele>391.27398681641</ele>
        <time>2010-01-16T14:32:52Z</time>
      </trkpt>
      <trkpt lat="44.98204" lon="5.16365">
        <ele>388.27899169922</ele>
        <time>2010-01-16T14:32:56Z</time>
      </trkpt>
      <trkpt lat="44.98169" lon="5.16362">
        <ele>384.97100830078</ele>
        <time>2010-01-16T14:32:59Z</time>
      </trkpt>
      <trkpt lat="44.98159" lon="5.16362">
        <ele>383.6669921875</ele>
        <time>2010-01-16T14:33:00Z</time>
      </trkpt>
      <trkpt lat="44.98077" lon="5.16392">
        <ele>377.82699584961</ele>
        <time>2010-01-16T14:33:07Z</time>
      </trkpt>
      <trkpt lat="44.98027" lon="5.16389">
        <ele>374.92401123047</ele>
        <time>2010-01-16T14:33:11Z</time>
      </trkpt>
      <trkpt lat="44.98016" lon="5.16384">
        <ele>374.65701293945</ele>
        <time>2010-01-16T14:33:12Z</time>
      </trkpt>
      <trkpt lat="44.97985" lon="5.16364">
        <ele>373.28100585938</ele>
        <time>2010-01-16T14:33:15Z</time>
      </trkpt>
      <trkpt lat="44.97934" lon="5.16331">
        <ele>370.65798950195</ele>
        <time>2010-01-16T14:33:20Z</time>
      </trkpt>
      <trkpt lat="44.97925" lon="5.16323">
        <ele>371.17498779297</ele>
        <time>2010-01-16T14:33:21Z</time>
      </trkpt>
      <trkpt lat="44.97902" lon="5.16286">
        <ele>370.34298706055</ele>
        <time>2010-01-16T14:33:25Z</time>
      </trkpt>
      <trkpt lat="44.97902" lon="5.1625">
        <ele>371.27600097656</ele>
        <time>2010-01-16T14:33:28Z</time>
      </trkpt>
      <trkpt lat="44.97913" lon="5.16231">
        <ele>371.86499023438</ele>
        <time>2010-01-16T14:33:31Z</time>
      </trkpt>
      <trkpt lat="44.97925" lon="5.1622">
        <ele>372.62100219727</ele>
        <time>2010-01-16T14:33:33Z</time>
      </trkpt>
      <trkpt lat="44.97935" lon="5.16211">
        <ele>373.33898925781</ele>
        <time>2010-01-16T14:33:35Z</time>
      </trkpt>
      <trkpt lat="44.9794" lon="5.16207">
        <ele>373.86199951172</ele>
        <time>2010-01-16T14:33:36Z</time>
      </trkpt>
      <trkpt lat="44.97956" lon="5.16188">
        <ele>374.58999633789</ele>
        <time>2010-01-16T14:33:40Z</time>
      </trkpt>
      <trkpt lat="44.97978" lon="5.16143">
        <ele>376.76400756836</ele>
        <time>2010-01-16T14:33:48Z</time>
      </trkpt>
      <trkpt lat="44.9799" lon="5.16114">
        <ele>378.12298583984</ele>
        <time>2010-01-16T14:33:53Z</time>
      </trkpt>
      <trkpt lat="44.98015" lon="5.16068">
        <ele>379.69198608398</ele>
        <time>2010-01-16T14:34:02Z</time>
      </trkpt>
      <trkpt lat="44.98035" lon="5.16033">
        <ele>381.67001342773</ele>
        <time>2010-01-16T14:34:10Z</time>
      </trkpt>
      <trkpt lat="44.98052" lon="5.15996">
        <ele>383.5</ele>
        <time>2010-01-16T14:34:18Z</time>
      </trkpt>
      <trkpt lat="44.98061" lon="5.15974">
        <ele>384.52499389648</ele>
        <time>2010-01-16T14:34:23Z</time>
      </trkpt>
      <trkpt lat="44.98067" lon="5.15961">
        <ele>385.12399291992</ele>
        <time>2010-01-16T14:34:26Z</time>
      </trkpt>
      <trkpt lat="44.98071" lon="5.15951">
        <ele>385.47799682617</ele>
        <time>2010-01-16T14:34:28Z</time>
      </trkpt>
      <trkpt lat="44.98084" lon="5.15921">
        <ele>386.89999389648</ele>
        <time>2010-01-16T14:34:35Z</time>
      </trkpt>
      <trkpt lat="44.98086" lon="5.15896">
        <ele>389.07800292969</ele>
        <time>2010-01-16T14:34:41Z</time>
      </trkpt>
      <trkpt lat="44.98086" lon="5.1587">
        <ele>389.79998779297</ele>
        <time>2010-01-16T14:34:47Z</time>
      </trkpt>
      <trkpt lat="44.98075" lon="5.15841">
        <ele>391.04400634766</ele>
        <time>2010-01-16T14:34:54Z</time>
      </trkpt>
      <trkpt lat="44.98058" lon="5.15801">
        <ele>392.45401000977</ele>
        <time>2010-01-16T14:35:04Z</time>
      </trkpt>
      <trkpt lat="44.98043" lon="5.15766">
        <ele>393.88400268555</ele>
        <time>2010-01-16T14:35:12Z</time>
      </trkpt>
      <trkpt lat="44.98027" lon="5.15736">
        <ele>393.6960144043</ele>
        <time>2010-01-16T14:35:19Z</time>
      </trkpt>
      <trkpt lat="44.97999" lon="5.15704">
        <ele>393.48300170898</ele>
        <time>2010-01-16T14:35:28Z</time>
      </trkpt>
      <trkpt lat="44.97968" lon="5.15668">
        <ele>393.04501342773</ele>
        <time>2010-01-16T14:35:37Z</time>
      </trkpt>
      <trkpt lat="44.97954" lon="5.15653">
        <ele>392.83898925781</ele>
        <time>2010-01-16T14:35:41Z</time>
      </trkpt>
      <trkpt lat="44.97937" lon="5.15633">
        <ele>392.38198852539</ele>
        <time>2010-01-16T14:35:46Z</time>
      </trkpt>
      <trkpt lat="44.97906" lon="5.15597">
        <ele>392.08200073242</ele>
        <time>2010-01-16T14:35:55Z</time>
      </trkpt>
      <trkpt lat="44.97864" lon="5.15548">
        <ele>391.61199951172</ele>
        <time>2010-01-16T14:36:06Z</time>
      </trkpt>
      <trkpt lat="44.97821" lon="5.15501">
        <ele>389.97799682617</ele>
        <time>2010-01-16T14:36:16Z</time>
      </trkpt>
      <trkpt lat="44.97758" lon="5.15446">
        <ele>388.99301147461</ele>
        <time>2010-01-16T14:36:29Z</time>
      </trkpt>
      <trkpt lat="44.97707" lon="5.15399">
        <ele>391.21200561523</ele>
        <time>2010-01-16T14:36:40Z</time>
      </trkpt>
      <trkpt lat="44.97668" lon="5.15372">
        <ele>389.81500244141</ele>
        <time>2010-01-16T14:36:49Z</time>
      </trkpt>
      <trkpt lat="44.97654" lon="5.15365">
        <ele>391.37600708008</ele>
        <time>2010-01-16T14:36:52Z</time>
      </trkpt>
      <trkpt lat="44.97599" lon="5.15336">
        <ele>391.1789855957</ele>
        <time>2010-01-16T14:37:04Z</time>
      </trkpt>
      <trkpt lat="44.97567" lon="5.15319">
        <ele>390.32400512695</ele>
        <time>2010-01-16T14:37:11Z</time>
      </trkpt>
      <trkpt lat="44.97549" lon="5.1531">
        <ele>390.61999511719</ele>
        <time>2010-01-16T14:37:15Z</time>
      </trkpt>
      <trkpt lat="44.975" lon="5.15293">
        <ele>389.48400878906</ele>
        <time>2010-01-16T14:37:24Z</time>
      </trkpt>
      <trkpt lat="44.97449" lon="5.15274">
        <ele>388.8330078125</ele>
        <time>2010-01-16T14:37:33Z</time>
      </trkpt>
      <trkpt lat="44.97414" lon="5.15257">
        <ele>386.80999755859</ele>
        <time>2010-01-16T14:37:39Z</time>
      </trkpt>
      <trkpt lat="44.97382" lon="5.15233">
        <ele>386.54800415039</ele>
        <time>2010-01-16T14:37:44Z</time>
      </trkpt>
      <trkpt lat="44.97359" lon="5.15198">
        <ele>383.23498535156</ele>
        <time>2010-01-16T14:37:49Z</time>
      </trkpt>
      <trkpt lat="44.97352" lon="5.15186">
        <ele>381.94400024414</ele>
        <time>2010-01-16T14:37:53Z</time>
      </trkpt>
      <trkpt lat="44.97324" lon="5.15126">
        <ele>380.39001464844</ele>
        <time>2010-01-16T14:37:57Z</time>
      </trkpt>
      <trkpt lat="44.97301" lon="5.15079">
        <ele>376.27899169922</ele>
        <time>2010-01-16T14:38:02Z</time>
      </trkpt>
      <trkpt lat="44.97301" lon="5.15079">
        <ele>376.44400024414</ele>
        <time>2010-01-16T14:38:03Z</time>
      </trkpt>
      <trkpt lat="44.9725" lon="5.1502">
        <ele>376.62100219727</ele>
        <time>2010-01-16T14:38:08Z</time>
      </trkpt>
      <trkpt lat="44.97215" lon="5.15001">
        <ele>378.36099243164</ele>
        <time>2010-01-16T14:38:13Z</time>
      </trkpt>
      <trkpt lat="44.97197" lon="5.14992">
        <ele>379.62899780273</ele>
        <time>2010-01-16T14:38:16Z</time>
      </trkpt>
      <trkpt lat="44.97191" lon="5.14989">
        <ele>379.57699584961</ele>
        <time>2010-01-16T14:38:17Z</time>
      </trkpt>
      <trkpt lat="44.97185" lon="5.14985">
        <ele>380.06698608398</ele>
        <time>2010-01-16T14:38:18Z</time>
      </trkpt>
      <trkpt lat="44.97158" lon="5.14958">
        <ele>381.70700073242</ele>
        <time>2010-01-16T14:38:23Z</time>
      </trkpt>
      <trkpt lat="44.97145" lon="5.14939">
        <ele>381.97799682617</ele>
        <time>2010-01-16T14:38:26Z</time>
      </trkpt>
      <trkpt lat="44.97137" lon="5.14927">
        <ele>382.1549987793</ele>
        <time>2010-01-16T14:38:28Z</time>
      </trkpt>
      <trkpt lat="44.97129" lon="5.14915">
        <ele>383.25201416016</ele>
        <time>2010-01-16T14:38:30Z</time>
      </trkpt>
      <trkpt lat="44.97104" lon="5.14879">
        <ele>384.07800292969</ele>
        <time>2010-01-16T14:38:36Z</time>
      </trkpt>
      <trkpt lat="44.97072" lon="5.14831">
        <ele>386.10900878906</ele>
        <time>2010-01-16T14:38:44Z</time>
      </trkpt>
      <trkpt lat="44.97041" lon="5.14784">
        <ele>388.73199462891</ele>
        <time>2010-01-16T14:38:52Z</time>
      </trkpt>
      <trkpt lat="44.97012" lon="5.14742">
        <ele>390.33499145508</ele>
        <time>2010-01-16T14:38:59Z</time>
      </trkpt>
      <trkpt lat="44.96997" lon="5.14717">
        <ele>391.9049987793</ele>
        <time>2010-01-16T14:39:03Z</time>
      </trkpt>
      <trkpt lat="44.96976" lon="5.14686">
        <ele>394.26800537109</ele>
        <time>2010-01-16T14:39:08Z</time>
      </trkpt>
      <trkpt lat="44.96949" lon="5.14644">
        <ele>395.70001220703</ele>
        <time>2010-01-16T14:39:15Z</time>
      </trkpt>
      <trkpt lat="44.96907" lon="5.14581">
        <ele>395.83401489258</ele>
        <time>2010-01-16T14:39:25Z</time>
      </trkpt>
      <trkpt lat="44.96875" lon="5.1454">
        <ele>396.54901123047</ele>
        <time>2010-01-16T14:39:32Z</time>
      </trkpt>
      <trkpt lat="44.96866" lon="5.14529">
        <ele>395.69500732422</ele>
        <time>2010-01-16T14:39:34Z</time>
      </trkpt>
      <trkpt lat="44.96827" lon="5.14492">
        <ele>394.75</ele>
        <time>2010-01-16T14:39:43Z</time>
      </trkpt>
      <trkpt lat="44.96803" lon="5.14467">
        <ele>395.06600952148</ele>
        <time>2010-01-16T14:39:49Z</time>
      </trkpt>
      <trkpt lat="44.96783" lon="5.14445">
        <ele>391.83599853516</ele>
        <time>2010-01-16T14:39:55Z</time>
      </trkpt>
      <trkpt lat="44.96769" lon="5.14418">
        <ele>391.60501098633</ele>
        <time>2010-01-16T14:40:03Z</time>
      </trkpt>
      <trkpt lat="44.96739" lon="5.14364">
        <ele>391.52099609375</ele>
        <time>2010-01-16T14:40:12Z</time>
      </trkpt>
      <trkpt lat="44.96711" lon="5.14314">
        <ele>390.53201293945</ele>
        <time>2010-01-16T14:40:22Z</time>
      </trkpt>
      <trkpt lat="44.96688" lon="5.14265">
        <ele>390.56399536133</ele>
        <time>2010-01-16T14:40:31Z</time>
      </trkpt>
      <trkpt lat="44.96661" lon="5.14213">
        <ele>390.36401367188</ele>
        <time>2010-01-16T14:40:42Z</time>
      </trkpt>
      <trkpt lat="44.9663" lon="5.14168">
        <ele>390.80899047852</ele>
        <time>2010-01-16T14:40:53Z</time>
      </trkpt>
      <trkpt lat="44.96601" lon="5.14118">
        <ele>390.91198730469</ele>
        <time>2010-01-16T14:41:04Z</time>
      </trkpt>
      <trkpt lat="44.96576" lon="5.14073">
        <ele>390.95300292969</ele>
        <time>2010-01-16T14:41:14Z</time>
      </trkpt>
      <trkpt lat="44.96552" lon="5.14031">
        <ele>391.34698486328</ele>
        <time>2010-01-16T14:41:23Z</time>
      </trkpt>
      <trkpt lat="44.96537" lon="5.14006">
        <ele>392.81698608398</ele>
        <time>2010-01-16T14:41:28Z</time>
      </trkpt>
      <trkpt lat="44.96515" lon="5.13967">
        <ele>392.73901367188</ele>
        <time>2010-01-16T14:41:37Z</time>
      </trkpt>
      <trkpt lat="44.96487" lon="5.13926">
        <ele>394.93701171875</ele>
        <time>2010-01-16T14:41:44Z</time>
      </trkpt>
      <trkpt lat="44.96453" lon="5.13895">
        <ele>395.6960144043</ele>
        <time>2010-01-16T14:41:53Z</time>
      </trkpt>
      <trkpt lat="44.9643" lon="5.13876">
        <ele>396.75799560547</ele>
        <time>2010-01-16T14:41:59Z</time>
      </trkpt>
      <trkpt lat="44.9639" lon="5.13845">
        <ele>398.14099121094</ele>
        <time>2010-01-16T14:42:09Z</time>
      </trkpt>
      <trkpt lat="44.96347" lon="5.13812">
        <ele>399.10198974609</ele>
        <time>2010-01-16T14:42:20Z</time>
      </trkpt>
      <trkpt lat="44.96308" lon="5.13781">
        <ele>400.80999755859</ele>
        <time>2010-01-16T14:42:31Z</time>
      </trkpt>
      <trkpt lat="44.96304" lon="5.13778">
        <ele>401.04000854492</ele>
        <time>2010-01-16T14:42:32Z</time>
      </trkpt>
      <trkpt lat="44.96294" lon="5.1377">
        <ele>402.41799926758</ele>
        <time>2010-01-16T14:42:35Z</time>
      </trkpt>
      <trkpt lat="44.9626" lon="5.1374">
        <ele>402.04000854492</ele>
        <time>2010-01-16T14:42:45Z</time>
      </trkpt>
      <trkpt lat="44.96248" lon="5.13725">
        <ele>403.64700317383</ele>
        <time>2010-01-16T14:42:49Z</time>
      </trkpt>
      <trkpt lat="44.96238" lon="5.13714">
        <ele>402.35699462891</ele>
        <time>2010-01-16T14:42:52Z</time>
      </trkpt>
      <trkpt lat="44.96206" lon="5.13675">
        <ele>401.67401123047</ele>
        <time>2010-01-16T14:43:02Z</time>
      </trkpt>
      <trkpt lat="44.96164" lon="5.13623">
        <ele>400.80499267578</ele>
        <time>2010-01-16T14:43:14Z</time>
      </trkpt>
      <trkpt lat="44.9613" lon="5.13582">
        <ele>401.8039855957</ele>
        <time>2010-01-16T14:43:23Z</time>
      </trkpt>
      <trkpt lat="44.96106" lon="5.13538">
        <ele>400.70700073242</ele>
        <time>2010-01-16T14:43:31Z</time>
      </trkpt>
      <trkpt lat="44.96077" lon="5.13473">
        <ele>401.37701416016</ele>
        <time>2010-01-16T14:43:41Z</time>
      </trkpt>
      <trkpt lat="44.96046" lon="5.13412">
        <ele>402.85000610352</ele>
        <time>2010-01-16T14:43:51Z</time>
      </trkpt>
      <trkpt lat="44.96016" lon="5.13355">
        <ele>402.57598876953</ele>
        <time>2010-01-16T14:44:00Z</time>
      </trkpt>
      <trkpt lat="44.95972" lon="5.13283">
        <ele>401.9049987793</ele>
        <time>2010-01-16T14:44:11Z</time>
      </trkpt>
      <trkpt lat="44.9596" lon="5.13263">
        <ele>401.9049987793</ele>
        <time>2010-01-16T14:44:14Z</time>
      </trkpt>
      <trkpt lat="44.95948" lon="5.13245">
        <ele>401.17199707031</ele>
        <time>2010-01-16T14:44:17Z</time>
      </trkpt>
      <trkpt lat="44.9593" lon="5.13216">
        <ele>400.38598632812</ele>
        <time>2010-01-16T14:44:23Z</time>
      </trkpt>
      <trkpt lat="44.95916" lon="5.13192">
        <ele>400.43301391602</ele>
        <time>2010-01-16T14:44:30Z</time>
      </trkpt>
      <trkpt lat="44.95896" lon="5.1316">
        <ele>400.78601074219</ele>
        <time>2010-01-16T14:44:38Z</time>
      </trkpt>
      <trkpt lat="44.95893" lon="5.13156">
        <ele>400.53201293945</ele>
        <time>2010-01-16T14:44:39Z</time>
      </trkpt>
      <trkpt lat="44.95871" lon="5.13119">
        <ele>399.875</ele>
        <time>2010-01-16T14:44:47Z</time>
      </trkpt>
      <trkpt lat="44.95847" lon="5.13081">
        <ele>398.30999755859</ele>
        <time>2010-01-16T14:44:55Z</time>
      </trkpt>
      <trkpt lat="44.95835" lon="5.13061">
        <ele>397.96200561523</ele>
        <time>2010-01-16T14:44:59Z</time>
      </trkpt>
      <trkpt lat="44.95807" lon="5.13017">
        <ele>397.94900512695</ele>
        <time>2010-01-16T14:45:08Z</time>
      </trkpt>
      <trkpt lat="44.95772" lon="5.1296">
        <ele>396.61599731445</ele>
        <time>2010-01-16T14:45:18Z</time>
      </trkpt>
      <trkpt lat="44.95729" lon="5.12891">
        <ele>396.10299682617</ele>
        <time>2010-01-16T14:45:29Z</time>
      </trkpt>
      <trkpt lat="44.95683" lon="5.12824">
        <ele>394.62100219727</ele>
        <time>2010-01-16T14:45:40Z</time>
      </trkpt>
      <trkpt lat="44.95664" lon="5.12801">
        <ele>394.18899536133</ele>
        <time>2010-01-16T14:45:44Z</time>
      </trkpt>
      <trkpt lat="44.95655" lon="5.12791">
        <ele>393.79998779297</ele>
        <time>2010-01-16T14:45:46Z</time>
      </trkpt>
      <trkpt lat="44.95642" lon="5.12776">
        <ele>392.44198608398</ele>
        <time>2010-01-16T14:45:49Z</time>
      </trkpt>
      <trkpt lat="44.95639" lon="5.12724">
        <ele>391.24301147461</ele>
        <time>2010-01-16T14:45:54Z</time>
      </trkpt>
      <trkpt lat="44.95639" lon="5.1266">
        <ele>389.80801391602</ele>
        <time>2010-01-16T14:46:01Z</time>
      </trkpt>
      <trkpt lat="44.95638" lon="5.12593">
        <ele>387.28500366211</ele>
        <time>2010-01-16T14:46:08Z</time>
      </trkpt>
      <trkpt lat="44.95638" lon="5.12573">
        <ele>386.3450012207</ele>
        <time>2010-01-16T14:46:10Z</time>
      </trkpt>
      <trkpt lat="44.95637" lon="5.12499">
        <ele>385.20098876953</ele>
        <time>2010-01-16T14:46:17Z</time>
      </trkpt>
      <trkpt lat="44.95637" lon="5.12453">
        <ele>383.12399291992</ele>
        <time>2010-01-16T14:46:21Z</time>
      </trkpt>
      <trkpt lat="44.95636" lon="5.1236">
        <ele>379.78500366211</ele>
        <time>2010-01-16T14:46:29Z</time>
      </trkpt>
      <trkpt lat="44.95636" lon="5.12246">
        <ele>375.91101074219</ele>
        <time>2010-01-16T14:46:38Z</time>
      </trkpt>
      <trkpt lat="44.95636" lon="5.1222">
        <ele>375.15899658203</ele>
        <time>2010-01-16T14:46:40Z</time>
      </trkpt>
      <trkpt lat="44.95636" lon="5.12141">
        <ele>372.88000488281</ele>
        <time>2010-01-16T14:46:46Z</time>
      </trkpt>
      <trkpt lat="44.95636" lon="5.12023">
        <ele>370.24200439453</ele>
        <time>2010-01-16T14:46:55Z</time>
      </trkpt>
      <trkpt lat="44.95636" lon="5.11985">
        <ele>368.92498779297</ele>
        <time>2010-01-16T14:46:58Z</time>
      </trkpt>
      <trkpt lat="44.95636" lon="5.1196">
        <ele>367.98599243164</ele>
        <time>2010-01-16T14:47:00Z</time>
      </trkpt>
      <trkpt lat="44.95653" lon="5.11898">
        <ele>366.39401245117</ele>
        <time>2010-01-16T14:47:05Z</time>
      </trkpt>
      <trkpt lat="44.9569" lon="5.11815">
        <ele>365.08099365234</ele>
        <time>2010-01-16T14:47:12Z</time>
      </trkpt>
      <trkpt lat="44.95723" lon="5.11721">
        <ele>358.88198852539</ele>
        <time>2010-01-16T14:47:19Z</time>
      </trkpt>
      <trkpt lat="44.95745" lon="5.1163">
        <ele>355.95498657227</ele>
        <time>2010-01-16T14:47:25Z</time>
      </trkpt>
      <trkpt lat="44.95765" lon="5.11554">
        <ele>352.91500854492</ele>
        <time>2010-01-16T14:47:30Z</time>
      </trkpt>
      <trkpt lat="44.95779" lon="5.11493">
        <ele>350.70901489258</ele>
        <time>2010-01-16T14:47:34Z</time>
      </trkpt>
      <trkpt lat="44.9579" lon="5.11446">
        <ele>349.30700683594</ele>
        <time>2010-01-16T14:47:37Z</time>
      </trkpt>
      <trkpt lat="44.95822" lon="5.11308">
        <ele>345.64300537109</ele>
        <time>2010-01-16T14:47:46Z</time>
      </trkpt>
      <trkpt lat="44.95859" lon="5.11155">
        <ele>341.31399536133</ele>
        <time>2010-01-16T14:47:56Z</time>
      </trkpt>
      <trkpt lat="44.95871" lon="5.11109">
        <ele>339.15100097656</ele>
        <time>2010-01-16T14:47:59Z</time>
      </trkpt>
      <trkpt lat="44.95908" lon="5.10974">
        <ele>334.48300170898</ele>
        <time>2010-01-16T14:48:08Z</time>
      </trkpt>
      <trkpt lat="44.95912" lon="5.10959">
        <ele>334.19400024414</ele>
        <time>2010-01-16T14:48:09Z</time>
      </trkpt>
      <trkpt lat="44.95948" lon="5.10835">
        <ele>330.84399414062</ele>
        <time>2010-01-16T14:48:17Z</time>
      </trkpt>
      <trkpt lat="44.95961" lon="5.1079">
        <ele>328.99200439453</ele>
        <time>2010-01-16T14:48:20Z</time>
      </trkpt>
      <trkpt lat="44.95983" lon="5.10717">
        <ele>326.3330078125</ele>
        <time>2010-01-16T14:48:25Z</time>
      </trkpt>
      <trkpt lat="44.96001" lon="5.1066">
        <ele>323.47900390625</ele>
        <time>2010-01-16T14:48:29Z</time>
      </trkpt>
      <trkpt lat="44.9601" lon="5.106">
        <ele>322.17401123047</ele>
        <time>2010-01-16T14:48:33Z</time>
      </trkpt>
      <trkpt lat="44.96013" lon="5.10525">
        <ele>319.38000488281</ele>
        <time>2010-01-16T14:48:38Z</time>
      </trkpt>
      <trkpt lat="44.96017" lon="5.10405">
        <ele>316.81399536133</ele>
        <time>2010-01-16T14:48:46Z</time>
      </trkpt>
      <trkpt lat="44.96017" lon="5.10325">
        <ele>314.03601074219</ele>
        <time>2010-01-16T14:48:51Z</time>
      </trkpt>
      <trkpt lat="44.96017" lon="5.1026">
        <ele>311.45901489258</ele>
        <time>2010-01-16T14:48:55Z</time>
      </trkpt>
      <trkpt lat="44.96017" lon="5.10147">
        <ele>307.23098754883</ele>
        <time>2010-01-16T14:49:02Z</time>
      </trkpt>
      <trkpt lat="44.96024" lon="5.1007">
        <ele>304.65399169922</ele>
        <time>2010-01-16T14:49:07Z</time>
      </trkpt>
      <trkpt lat="44.96036" lon="5.09995">
        <ele>302.24200439453</ele>
        <time>2010-01-16T14:49:12Z</time>
      </trkpt>
      <trkpt lat="44.96064" lon="5.09872">
        <ele>297.74499511719</ele>
        <time>2010-01-16T14:49:20Z</time>
      </trkpt>
      <trkpt lat="44.96068" lon="5.09857">
        <ele>297.50399780273</ele>
        <time>2010-01-16T14:49:21Z</time>
      </trkpt>
      <trkpt lat="44.96078" lon="5.09817">
        <ele>296.73999023438</ele>
        <time>2010-01-16T14:49:26Z</time>
      </trkpt>
      <trkpt lat="44.9609" lon="5.09651">
        <ele>292.29098510742</ele>
        <time>2010-01-16T14:49:34Z</time>
      </trkpt>
      <trkpt lat="44.9609" lon="5.09641">
        <ele>289.54000854492</ele>
        <time>2010-01-16T14:49:38Z</time>
      </trkpt>
      <trkpt lat="44.96107" lon="5.09466">
        <ele>287.08401489258</ele>
        <time>2010-01-16T14:49:46Z</time>
      </trkpt>
      <trkpt lat="44.9612" lon="5.09376">
        <ele>284.55899047852</ele>
        <time>2010-01-16T14:49:52Z</time>
      </trkpt>
      <trkpt lat="44.96128" lon="5.0935">
        <ele>283.99398803711</ele>
        <time>2010-01-16T14:49:54Z</time>
      </trkpt>
      <trkpt lat="44.96154" lon="5.09268">
        <ele>282.53399658203</ele>
        <time>2010-01-16T14:50:01Z</time>
      </trkpt>
      <trkpt lat="44.96185" lon="5.09172">
        <ele>278.87298583984</ele>
        <time>2010-01-16T14:50:09Z</time>
      </trkpt>
      <trkpt lat="44.96189" lon="5.0916">
        <ele>278.82901000977</ele>
        <time>2010-01-16T14:50:10Z</time>
      </trkpt>
      <trkpt lat="44.96219" lon="5.09086">
        <ele>276.19799804688</ele>
        <time>2010-01-16T14:50:16Z</time>
      </trkpt>
      <trkpt lat="44.96269" lon="5.08974">
        <ele>273.48098754883</ele>
        <time>2010-01-16T14:50:25Z</time>
      </trkpt>
      <trkpt lat="44.96331" lon="5.08832">
        <ele>268.13800048828</ele>
        <time>2010-01-16T14:50:36Z</time>
      </trkpt>
      <trkpt lat="44.96388" lon="5.08701">
        <ele>264.02801513672</ele>
        <time>2010-01-16T14:50:46Z</time>
      </trkpt>
      <trkpt lat="44.964" lon="5.08676">
        <ele>263.45700073242</ele>
        <time>2010-01-16T14:50:48Z</time>
      </trkpt>
      <trkpt lat="44.9642" lon="5.08608">
        <ele>262.10900878906</ele>
        <time>2010-01-16T14:50:53Z</time>
      </trkpt>
      <trkpt lat="44.96425" lon="5.08555">
        <ele>260.06799316406</ele>
        <time>2010-01-16T14:50:58Z</time>
      </trkpt>
      <trkpt lat="44.96416" lon="5.085">
        <ele>257.50799560547</ele>
        <time>2010-01-16T14:51:03Z</time>
      </trkpt>
      <trkpt lat="44.9642" lon="5.08459">
        <ele>257.37298583984</ele>
        <time>2010-01-16T14:51:04Z</time>
      </trkpt>
      <trkpt lat="44.96426" lon="5.08372">
        <ele>255.61000061035</ele>
        <time>2010-01-16T14:51:11Z</time>
      </trkpt>
      <trkpt lat="44.96428" lon="5.08301">
        <ele>253.7440032959</ele>
        <time>2010-01-16T14:51:17Z</time>
      </trkpt>
      <trkpt lat="44.96426" lon="5.08266">
        <ele>253.16999816894</ele>
        <time>2010-01-16T14:51:20Z</time>
      </trkpt>
      <trkpt lat="44.96422" lon="5.08232">
        <ele>251.93600463867</ele>
        <time>2010-01-16T14:51:23Z</time>
      </trkpt>
      <trkpt lat="44.96413" lon="5.08148">
        <ele>250.38499450684</ele>
        <time>2010-01-16T14:51:30Z</time>
      </trkpt>
      <trkpt lat="44.96418" lon="5.08074">
        <ele>248.91600036621</ele>
        <time>2010-01-16T14:51:36Z</time>
      </trkpt>
      <trkpt lat="44.96419" lon="5.0805">
        <ele>247.74800109863</ele>
        <time>2010-01-16T14:51:38Z</time>
      </trkpt>
      <trkpt lat="44.96423" lon="5.08012">
        <ele>246.53500366211</ele>
        <time>2010-01-16T14:51:41Z</time>
      </trkpt>
      <trkpt lat="44.96439" lon="5.07943">
        <ele>244.91900634766</ele>
        <time>2010-01-16T14:51:47Z</time>
      </trkpt>
      <trkpt lat="44.96456" lon="5.0789">
        <ele>244.13200378418</ele>
        <time>2010-01-16T14:51:52Z</time>
      </trkpt>
      <trkpt lat="44.96474" lon="5.07834">
        <ele>243.33099365234</ele>
        <time>2010-01-16T14:51:58Z</time>
      </trkpt>
      <trkpt lat="44.96486" lon="5.07801">
        <ele>242.40899658203</ele>
        <time>2010-01-16T14:52:02Z</time>
      </trkpt>
      <trkpt lat="44.96496" lon="5.07776">
        <ele>242.21699523926</ele>
        <time>2010-01-16T14:52:06Z</time>
      </trkpt>
      <trkpt lat="44.96497" lon="5.07757">
        <ele>241.96499633789</ele>
        <time>2010-01-16T14:52:12Z</time>
      </trkpt>
      <trkpt lat="44.96495" lon="5.0773">
        <ele>240.69900512695</ele>
        <time>2010-01-16T14:52:19Z</time>
      </trkpt>
      <trkpt lat="44.96494" lon="5.07708">
        <ele>240.34199523926</ele>
        <time>2010-01-16T14:52:24Z</time>
      </trkpt>
      <trkpt lat="44.9649" lon="5.07667">
        <ele>239.93299865723</ele>
        <time>2010-01-16T14:52:30Z</time>
      </trkpt>
      <trkpt lat="44.9649" lon="5.07641">
        <ele>238.9940032959</ele>
        <time>2010-01-16T14:52:36Z</time>
      </trkpt>
      <trkpt lat="44.9649" lon="5.0759">
        <ele>238.03300476074</ele>
        <time>2010-01-16T14:52:42Z</time>
      </trkpt>
      <trkpt lat="44.96496" lon="5.07513">
        <ele>236.73300170898</ele>
        <time>2010-01-16T14:52:47Z</time>
      </trkpt>
      <trkpt lat="44.96501" lon="5.07431">
        <ele>234.57800292969</ele>
        <time>2010-01-16T14:52:55Z</time>
      </trkpt>
      <trkpt lat="44.9651" lon="5.07345">
        <ele>233.51300048828</ele>
        <time>2010-01-16T14:53:04Z</time>
      </trkpt>
      <trkpt lat="44.96523" lon="5.07261">
        <ele>231.94999694824</ele>
        <time>2010-01-16T14:53:13Z</time>
      </trkpt>
      <trkpt lat="44.96534" lon="5.07184">
        <ele>230.72399902344</ele>
        <time>2010-01-16T14:53:21Z</time>
      </trkpt>
      <trkpt lat="44.96549" lon="5.07128">
        <ele>229.65800476074</ele>
        <time>2010-01-16T14:53:27Z</time>
      </trkpt>
      <trkpt lat="44.96575" lon="5.07065">
        <ele>228.58099365234</ele>
        <time>2010-01-16T14:53:34Z</time>
      </trkpt>
      <trkpt lat="44.96606" lon="5.06999">
        <ele>227.3630065918</ele>
        <time>2010-01-16T14:53:41Z</time>
      </trkpt>
      <trkpt lat="44.96633" lon="5.06927">
        <ele>226.34800720215</ele>
        <time>2010-01-16T14:53:48Z</time>
      </trkpt>
      <trkpt lat="44.96651" lon="5.06847">
        <ele>225.33700561523</ele>
        <time>2010-01-16T14:53:55Z</time>
      </trkpt>
      <trkpt lat="44.96661" lon="5.06784">
        <ele>224.79899597168</ele>
        <time>2010-01-16T14:54:00Z</time>
      </trkpt>
      <trkpt lat="44.96671" lon="5.06733">
        <ele>223.84399414062</ele>
        <time>2010-01-16T14:54:04Z</time>
      </trkpt>
      <trkpt lat="44.96687" lon="5.06656">
        <ele>222.78399658203</ele>
        <time>2010-01-16T14:54:10Z</time>
      </trkpt>
      <trkpt lat="44.96713" lon="5.06603">
        <ele>221.94700622559</ele>
        <time>2010-01-16T14:54:15Z</time>
      </trkpt>
      <trkpt lat="44.96747" lon="5.06538">
        <ele>220.07699584961</ele>
        <time>2010-01-16T14:54:23Z</time>
      </trkpt>
      <trkpt lat="44.96799" lon="5.06419">
        <ele>217.83299255371</ele>
        <time>2010-01-16T14:54:31Z</time>
      </trkpt>
      <trkpt lat="44.96857" lon="5.06297">
        <ele>215.77900695801</ele>
        <time>2010-01-16T14:54:42Z</time>
      </trkpt>
      <trkpt lat="44.96923" lon="5.06157">
        <ele>213.80400085449</ele>
        <time>2010-01-16T14:54:55Z</time>
      </trkpt>
      <trkpt lat="44.96945" lon="5.06099">
        <ele>212.42900085449</ele>
        <time>2010-01-16T14:55:00Z</time>
      </trkpt>
      <trkpt lat="44.96983" lon="5.05992">
        <ele>212.16499328613</ele>
        <time>2010-01-16T14:55:09Z</time>
      </trkpt>
      <trkpt lat="44.9702" lon="5.05905">
        <ele>212.48899841309</ele>
        <time>2010-01-16T14:55:17Z</time>
      </trkpt>
      <trkpt lat="44.97064" lon="5.05831">
        <ele>211.79100036621</ele>
        <time>2010-01-16T14:55:25Z</time>
      </trkpt>
      <trkpt lat="44.97105" lon="5.05749">
        <ele>211.18899536133</ele>
        <time>2010-01-16T14:55:33Z</time>
      </trkpt>
      <trkpt lat="44.97128" lon="5.05679">
        <ele>207.74600219727</ele>
        <time>2010-01-16T14:55:39Z</time>
      </trkpt>
      <trkpt lat="44.97131" lon="5.05667">
        <ele>207.55000305176</ele>
        <time>2010-01-16T14:55:40Z</time>
      </trkpt>
      <trkpt lat="44.97153" lon="5.05574">
        <ele>204.53500366211</ele>
        <time>2010-01-16T14:55:47Z</time>
      </trkpt>
      <trkpt lat="44.97168" lon="5.05508">
        <ele>202.20799255371</ele>
        <time>2010-01-16T14:55:54Z</time>
      </trkpt>
      <trkpt lat="44.97181" lon="5.05418">
        <ele>200.42799377441</ele>
        <time>2010-01-16T14:56:00Z</time>
      </trkpt>
      <trkpt lat="44.97197" lon="5.05326">
        <ele>199.56799316406</ele>
        <time>2010-01-16T14:56:05Z</time>
      </trkpt>
      <trkpt lat="44.97201" lon="5.05302">
        <ele>198.63000488281</ele>
        <time>2010-01-16T14:56:07Z</time>
      </trkpt>
      <trkpt lat="44.97205" lon="5.05214">
        <ele>197.05700683594</ele>
        <time>2010-01-16T14:56:14Z</time>
      </trkpt>
      <trkpt lat="44.97208" lon="5.05128">
        <ele>195.82699584961</ele>
        <time>2010-01-16T14:56:21Z</time>
      </trkpt>
      <trkpt lat="44.97213" lon="5.04999">
        <ele>194.31500244141</ele>
        <time>2010-01-16T14:56:32Z</time>
      </trkpt>
      <trkpt lat="44.97215" lon="5.04931">
        <ele>193.875</ele>
        <time>2010-01-16T14:56:38Z</time>
      </trkpt>
      <trkpt lat="44.97219" lon="5.04821">
        <ele>193.08000183106</ele>
        <time>2010-01-16T14:56:48Z</time>
      </trkpt>
      <trkpt lat="44.97227" lon="5.0473">
        <ele>192.17999267578</ele>
        <time>2010-01-16T14:56:57Z</time>
      </trkpt>
      <trkpt lat="44.97243" lon="5.04659">
        <ele>191.90800476074</ele>
        <time>2010-01-16T14:57:04Z</time>
      </trkpt>
      <trkpt lat="44.97262" lon="5.04591">
        <ele>190.7559967041</ele>
        <time>2010-01-16T14:57:11Z</time>
      </trkpt>
      <trkpt lat="44.9729" lon="5.04504">
        <ele>189.95700073242</ele>
        <time>2010-01-16T14:57:20Z</time>
      </trkpt>
      <trkpt lat="44.97312" lon="5.04435">
        <ele>188.15199279785</ele>
        <time>2010-01-16T14:57:27Z</time>
      </trkpt>
      <trkpt lat="44.97347" lon="5.04326">
        <ele>186.99800109863</ele>
        <time>2010-01-16T14:57:37Z</time>
      </trkpt>
      <trkpt lat="44.97369" lon="5.04257">
        <ele>186.26499938965</ele>
        <time>2010-01-16T14:57:43Z</time>
      </trkpt>
      <trkpt lat="44.97393" lon="5.04133">
        <ele>184.24099731445</ele>
        <time>2010-01-16T14:57:53Z</time>
      </trkpt>
      <trkpt lat="44.97411" lon="5.04032">
        <ele>183.66799926758</ele>
        <time>2010-01-16T14:58:01Z</time>
      </trkpt>
      <trkpt lat="44.9743" lon="5.03938">
        <ele>182.30000305176</ele>
        <time>2010-01-16T14:58:09Z</time>
      </trkpt>
      <trkpt lat="44.97437" lon="5.03906">
        <ele>182.54400634766</ele>
        <time>2010-01-16T14:58:12Z</time>
      </trkpt>
      <trkpt lat="44.97459" lon="5.03802">
        <ele>181.47900390625</ele>
        <time>2010-01-16T14:58:22Z</time>
      </trkpt>
      <trkpt lat="44.9747" lon="5.03723">
        <ele>180.77699279785</ele>
        <time>2010-01-16T14:58:29Z</time>
      </trkpt>
      <trkpt lat="44.9747" lon="5.03656">
        <ele>180.56399536133</ele>
        <time>2010-01-16T14:58:35Z</time>
      </trkpt>
      <trkpt lat="44.97466" lon="5.03571">
        <ele>179.87399291992</ele>
        <time>2010-01-16T14:58:43Z</time>
      </trkpt>
      <trkpt lat="44.97463" lon="5.03499">
        <ele>179.44900512695</ele>
        <time>2010-01-16T14:58:50Z</time>
      </trkpt>
      <trkpt lat="44.9746" lon="5.03433">
        <ele>179.61999511719</ele>
        <time>2010-01-16T14:58:57Z</time>
      </trkpt>
      <trkpt lat="44.97457" lon="5.03368">
        <ele>179.05499267578</ele>
        <time>2010-01-16T14:59:03Z</time>
      </trkpt>
      <trkpt lat="44.97455" lon="5.03313">
        <ele>178.79299926758</ele>
        <time>2010-01-16T14:59:07Z</time>
      </trkpt>
      <trkpt lat="44.97452" lon="5.03253">
        <ele>181.55299377441</ele>
        <time>2010-01-16T14:59:11Z</time>
      </trkpt>
      <trkpt lat="44.97451" lon="5.03234">
        <ele>179.36199951172</ele>
        <time>2010-01-16T14:59:13Z</time>
      </trkpt>
      <trkpt lat="44.97451" lon="5.03188">
        <ele>177.50300598144</ele>
        <time>2010-01-16T14:59:16Z</time>
      </trkpt>
      <trkpt lat="44.97451" lon="5.03135">
        <ele>176.61399841309</ele>
        <time>2010-01-16T14:59:21Z</time>
      </trkpt>
      <trkpt lat="44.97451" lon="5.0308">
        <ele>178.06399536133</ele>
        <time>2010-01-16T14:59:27Z</time>
      </trkpt>
      <trkpt lat="44.97451" lon="5.0299">
        <ele>177.29699707031</ele>
        <time>2010-01-16T14:59:37Z</time>
      </trkpt>
      <trkpt lat="44.97458" lon="5.0292">
        <ele>176.12800598144</ele>
        <time>2010-01-16T14:59:45Z</time>
      </trkpt>
      <trkpt lat="44.97466" lon="5.02873">
        <ele>175.93099975586</ele>
        <time>2010-01-16T14:59:51Z</time>
      </trkpt>
      <trkpt lat="44.97468" lon="5.02857">
        <ele>175.65199279785</ele>
        <time>2010-01-16T14:59:53Z</time>
      </trkpt>
      <trkpt lat="44.97474" lon="5.02826">
        <ele>175.47200012207</ele>
        <time>2010-01-16T14:59:57Z</time>
      </trkpt>
      <trkpt lat="44.97477" lon="5.02809">
        <ele>175.24099731445</ele>
        <time>2010-01-16T15:00:02Z</time>
      </trkpt>
      <trkpt lat="44.97477" lon="5.02809">
        <ele>175.17399597168</ele>
        <time>2010-01-16T15:00:03Z</time>
      </trkpt>
      <trkpt lat="44.97494" lon="5.02762">
        <ele>175.24600219727</ele>
        <time>2010-01-16T15:00:09Z</time>
      </trkpt>
      <trkpt lat="44.97507" lon="5.02766">
        <ele>174.83000183106</ele>
        <time>2010-01-16T15:00:13Z</time>
      </trkpt>
      <trkpt lat="44.97531" lon="5.02774">
        <ele>174.66299438477</ele>
        <time>2010-01-16T15:00:20Z</time>
      </trkpt>
      <trkpt lat="44.9754" lon="5.02777">
        <ele>174.39700317383</ele>
        <time>2010-01-16T15:00:23Z</time>
      </trkpt>
      <trkpt lat="44.9754" lon="5.02777">
        <ele>174.11000061035</ele>
        <time>2010-01-16T15:00:25Z</time>
      </trkpt>
      <trkpt lat="44.97541" lon="5.02751">
        <ele>174.43600463867</ele>
        <time>2010-01-16T15:01:44Z</time>
      </trkpt>
      <trkpt lat="44.97549" lon="5.02744">
        <ele>174.81799316406</ele>
        <time>2010-01-16T15:01:49Z</time>
      </trkpt>
      <trkpt lat="44.97551" lon="5.02741">
        <ele>174.51300048828</ele>
        <time>2010-01-16T15:01:50Z</time>
      </trkpt>
      <trkpt lat="44.97575" lon="5.02715">
        <ele>173.62600708008</ele>
        <time>2010-01-16T15:01:58Z</time>
      </trkpt>
      <trkpt lat="44.97588" lon="5.02698">
        <ele>173.72200012207</ele>
        <time>2010-01-16T15:02:04Z</time>
      </trkpt>
      <trkpt lat="44.97601" lon="5.02657">
        <ele>173.10600280762</ele>
        <time>2010-01-16T15:02:10Z</time>
      </trkpt>
      <trkpt lat="44.97603" lon="5.02651">
        <ele>173.16400146484</ele>
        <time>2010-01-16T15:02:11Z</time>
      </trkpt>
      <trkpt lat="44.97623" lon="5.02605">
        <ele>173.2440032959</ele>
        <time>2010-01-16T15:02:19Z</time>
      </trkpt>
      <trkpt lat="44.97643" lon="5.02561">
        <ele>173.56700134277</ele>
        <time>2010-01-16T15:02:26Z</time>
      </trkpt>
      <trkpt lat="44.97672" lon="5.02499">
        <ele>172.54100036621</ele>
        <time>2010-01-16T15:02:35Z</time>
      </trkpt>
      <trkpt lat="44.97683" lon="5.02474">
        <ele>172.23100280762</ele>
        <time>2010-01-16T15:02:42Z</time>
      </trkpt>
      <trkpt lat="44.97715" lon="5.02398">
        <ele>171.82600402832</ele>
        <time>2010-01-16T15:02:49Z</time>
      </trkpt>
      <trkpt lat="44.97718" lon="5.02391">
        <ele>171.62199401856</ele>
        <time>2010-01-16T15:02:50Z</time>
      </trkpt>
      <trkpt lat="44.97747" lon="5.02324">
        <ele>172.00300598144</ele>
        <time>2010-01-16T15:02:59Z</time>
      </trkpt>
      <trkpt lat="44.97768" lon="5.02274">
        <ele>172.00300598144</ele>
        <time>2010-01-16T15:03:06Z</time>
      </trkpt>
      <trkpt lat="44.97794" lon="5.02208">
        <ele>172.99000549316</ele>
        <time>2010-01-16T15:03:17Z</time>
      </trkpt>
      <trkpt lat="44.97824" lon="5.02139">
        <ele>174.03100585938</ele>
        <time>2010-01-16T15:03:25Z</time>
      </trkpt>
      <trkpt lat="44.97846" lon="5.0209">
        <ele>174.21800231934</ele>
        <time>2010-01-16T15:03:33Z</time>
      </trkpt>
      <trkpt lat="44.97878" lon="5.02017">
        <ele>175.35400390625</ele>
        <time>2010-01-16T15:03:45Z</time>
      </trkpt>
      <trkpt lat="44.97905" lon="5.01954">
        <ele>176.79600524902</ele>
        <time>2010-01-16T15:03:56Z</time>
      </trkpt>
      <trkpt lat="44.97934" lon="5.01889">
        <ele>177.1130065918</ele>
        <time>2010-01-16T15:04:07Z</time>
      </trkpt>
      <trkpt lat="44.9796" lon="5.01843">
        <ele>176.65899658203</ele>
        <time>2010-01-16T15:04:15Z</time>
      </trkpt>
      <trkpt lat="44.97985" lon="5.01812">
        <ele>175.44999694824</ele>
        <time>2010-01-16T15:04:21Z</time>
      </trkpt>
      <trkpt lat="44.98019" lon="5.01774">
        <ele>174.09399414062</ele>
        <time>2010-01-16T15:04:28Z</time>
      </trkpt>
      <trkpt lat="44.98042" lon="5.01754">
        <ele>172.49499511719</ele>
        <time>2010-01-16T15:04:32Z</time>
      </trkpt>
      <trkpt lat="44.98054" lon="5.01742">
        <ele>171.39500427246</ele>
        <time>2010-01-16T15:04:34Z</time>
      </trkpt>
      <trkpt lat="44.9808" lon="5.01714">
        <ele>169.96499633789</ele>
        <time>2010-01-16T15:04:38Z</time>
      </trkpt>
      <trkpt lat="44.98137" lon="5.01652">
        <ele>166.69500732422</ele>
        <time>2010-01-16T15:04:46Z</time>
      </trkpt>
      <trkpt lat="44.98184" lon="5.01588">
        <ele>164.5950012207</ele>
        <time>2010-01-16T15:04:53Z</time>
      </trkpt>
      <trkpt lat="44.98218" lon="5.01539">
        <ele>164.78100585938</ele>
        <time>2010-01-16T15:04:59Z</time>
      </trkpt>
      <trkpt lat="44.98253" lon="5.01487">
        <ele>164.68600463867</ele>
        <time>2010-01-16T15:05:06Z</time>
      </trkpt>
      <trkpt lat="44.9828" lon="5.01449">
        <ele>164.6369934082</ele>
        <time>2010-01-16T15:05:11Z</time>
      </trkpt>
      <trkpt lat="44.98326" lon="5.01382">
        <ele>164.46499633789</ele>
        <time>2010-01-16T15:05:20Z</time>
      </trkpt>
      <trkpt lat="44.98381" lon="5.01303">
        <ele>164.85200500488</ele>
        <time>2010-01-16T15:05:31Z</time>
      </trkpt>
      <trkpt lat="44.98425" lon="5.01238">
        <ele>164.2619934082</ele>
        <time>2010-01-16T15:05:41Z</time>
      </trkpt>
      <trkpt lat="44.98468" lon="5.01174">
        <ele>162.31599426269</ele>
        <time>2010-01-16T15:05:51Z</time>
      </trkpt>
      <trkpt lat="44.98522" lon="5.01098">
        <ele>162.36500549316</ele>
        <time>2010-01-16T15:05:59Z</time>
      </trkpt>
      <trkpt lat="44.98585" lon="5.01008">
        <ele>162.68200683594</ele>
        <time>2010-01-16T15:06:11Z</time>
      </trkpt>
      <trkpt lat="44.98631" lon="5.00942">
        <ele>163.53900146484</ele>
        <time>2010-01-16T15:06:20Z</time>
      </trkpt>
      <trkpt lat="44.98692" lon="5.00855">
        <ele>163.1130065918</ele>
        <time>2010-01-16T15:06:32Z</time>
      </trkpt>
      <trkpt lat="44.98743" lon="5.00801">
        <ele>163.22300720215</ele>
        <time>2010-01-16T15:06:41Z</time>
      </trkpt>
      <trkpt lat="44.98799" lon="5.00757">
        <ele>163.58999633789</ele>
        <time>2010-01-16T15:06:50Z</time>
      </trkpt>
      <trkpt lat="44.98886" lon="5.00691">
        <ele>164.26600646973</ele>
        <time>2010-01-16T15:07:04Z</time>
      </trkpt>
      <trkpt lat="44.98975" lon="5.00625">
        <ele>164.64399719238</ele>
        <time>2010-01-16T15:07:18Z</time>
      </trkpt>
      <trkpt lat="44.99023" lon="5.00583">
        <ele>164.82699584961</ele>
        <time>2010-01-16T15:07:26Z</time>
      </trkpt>
      <trkpt lat="44.99041" lon="5.00564">
        <ele>163.55299377441</ele>
        <time>2010-01-16T15:07:29Z</time>
      </trkpt>
      <trkpt lat="44.9912" lon="5.0048">
        <ele>163.05099487305</ele>
        <time>2010-01-16T15:07:42Z</time>
      </trkpt>
      <trkpt lat="44.99186" lon="5.00413">
        <ele>162.62399291992</ele>
        <time>2010-01-16T15:07:53Z</time>
      </trkpt>
      <trkpt lat="44.99219" lon="5.00392">
        <ele>163.30499267578</ele>
        <time>2010-01-16T15:07:58Z</time>
      </trkpt>
      <trkpt lat="44.99283" lon="5.00372">
        <ele>163.07200622559</ele>
        <time>2010-01-16T15:08:08Z</time>
      </trkpt>
      <trkpt lat="44.99356" lon="5.0035">
        <ele>163.23699951172</ele>
        <time>2010-01-16T15:08:19Z</time>
      </trkpt>
      <trkpt lat="44.99434" lon="5.00326">
        <ele>163.76300048828</ele>
        <time>2010-01-16T15:08:28Z</time>
      </trkpt>
      <trkpt lat="44.99477" lon="5.00301">
        <ele>164.46600341797</ele>
        <time>2010-01-16T15:08:35Z</time>
      </trkpt>
      <trkpt lat="44.99528" lon="5.00263">
        <ele>165.06100463867</ele>
        <time>2010-01-16T15:08:44Z</time>
      </trkpt>
      <trkpt lat="44.99578" lon="5.00208">
        <ele>165.61399841309</ele>
        <time>2010-01-16T15:08:54Z</time>
      </trkpt>
      <trkpt lat="44.99618" lon="5.00161">
        <ele>165.84800720215</ele>
        <time>2010-01-16T15:09:03Z</time>
      </trkpt>
      <trkpt lat="44.99664" lon="5.00112">
        <ele>165.7140045166</ele>
        <time>2010-01-16T15:09:11Z</time>
      </trkpt>
      <trkpt lat="44.99669" lon="5.00107">
        <ele>165.75799560547</ele>
        <time>2010-01-16T15:09:12Z</time>
      </trkpt>
      <trkpt lat="44.99691" lon="5.00075">
        <ele>165.46099853516</ele>
        <time>2010-01-16T15:09:17Z</time>
      </trkpt>
      <trkpt lat="44.997" lon="5.00058">
        <ele>165.73199462891</ele>
        <time>2010-01-16T15:09:22Z</time>
      </trkpt>
      <trkpt lat="44.997" lon="5.00058">
        <ele>165.4700012207</ele>
        <time>2010-01-16T15:09:24Z</time>
      </trkpt>
      <trkpt lat="44.99723" lon="5.00022">
        <ele>165.22099304199</ele>
        <time>2010-01-16T15:09:26Z</time>
      </trkpt>
      <trkpt lat="44.99712" lon="4.99982">
        <ele>163.94099426269</ele>
        <time>2010-01-16T15:09:31Z</time>
      </trkpt>
      <trkpt lat="44.99716" lon="4.99956">
        <ele>163.21899414062</ele>
        <time>2010-01-16T15:09:34Z</time>
      </trkpt>
      <trkpt lat="44.99741" lon="4.99889">
        <ele>161.2799987793</ele>
        <time>2010-01-16T15:09:41Z</time>
      </trkpt>
      <trkpt lat="44.9976" lon="4.99854">
        <ele>160.92799377441</ele>
        <time>2010-01-16T15:09:45Z</time>
      </trkpt>
      <trkpt lat="44.99767" lon="4.99846">
        <ele>161.04499816894</ele>
        <time>2010-01-16T15:09:46Z</time>
      </trkpt>
      <trkpt lat="44.99784" lon="4.99823">
        <ele>161.24099731445</ele>
        <time>2010-01-16T15:09:49Z</time>
      </trkpt>
      <trkpt lat="44.99824" lon="4.99778">
        <ele>161.17300415039</ele>
        <time>2010-01-16T15:09:56Z</time>
      </trkpt>
      <trkpt lat="44.99871" lon="4.99732">
        <ele>162.75700378418</ele>
        <time>2010-01-16T15:10:04Z</time>
      </trkpt>
      <trkpt lat="44.99905" lon="4.99717">
        <ele>164.29499816894</ele>
        <time>2010-01-16T15:10:09Z</time>
      </trkpt>
      <trkpt lat="44.99926" lon="4.99718">
        <ele>165.44999694824</ele>
        <time>2010-01-16T15:10:13Z</time>
      </trkpt>
      <trkpt lat="44.99946" lon="4.99718">
        <ele>165.57400512695</ele>
        <time>2010-01-16T15:10:17Z</time>
      </trkpt>
      <trkpt lat="44.99955" lon="4.99702">
        <ele>165.73500061035</ele>
        <time>2010-01-16T15:10:20Z</time>
      </trkpt>
      <trkpt lat="44.99958" lon="4.99672">
        <ele>165.22999572754</ele>
        <time>2010-01-16T15:10:24Z</time>
      </trkpt>
      <trkpt lat="44.9996" lon="4.99665">
        <ele>165.77600097656</ele>
        <time>2010-01-16T15:10:25Z</time>
      </trkpt>
      <trkpt lat="44.99966" lon="4.99652">
        <ele>165.93400573731</ele>
        <time>2010-01-16T15:10:27Z</time>
      </trkpt>
      <trkpt lat="44.9998" lon="4.9963">
        <ele>166.51300048828</ele>
        <time>2010-01-16T15:10:31Z</time>
      </trkpt>
      <trkpt lat="44.99987" lon="4.99618">
        <ele>166.17599487305</ele>
        <time>2010-01-16T15:10:33Z</time>
      </trkpt>
      <trkpt lat="45.00009" lon="4.99584">
        <ele>166.70899963379</ele>
        <time>2010-01-16T15:10:39Z</time>
      </trkpt>
      <trkpt lat="45.00041" lon="4.99531">
        <ele>166.23500061035</ele>
        <time>2010-01-16T15:10:47Z</time>
      </trkpt>
      <trkpt lat="45.00071" lon="4.99482">
        <ele>165.88999938965</ele>
        <time>2010-01-16T15:10:54Z</time>
      </trkpt>
      <trkpt lat="45.00109" lon="4.9942">
        <ele>167.40800476074</ele>
        <time>2010-01-16T15:11:03Z</time>
      </trkpt>
      <trkpt lat="45.00117" lon="4.99405">
        <ele>167.49000549316</ele>
        <time>2010-01-16T15:11:05Z</time>
      </trkpt>
      <trkpt lat="45.00131" lon="4.99361">
        <ele>166.03199768066</ele>
        <time>2010-01-16T15:11:11Z</time>
      </trkpt>
      <trkpt lat="45.00135" lon="4.9934">
        <ele>165.13299560547</ele>
        <time>2010-01-16T15:11:13Z</time>
      </trkpt>
      <trkpt lat="45.00145" lon="4.99298">
        <ele>164.7140045166</ele>
        <time>2010-01-16T15:11:17Z</time>
      </trkpt>
      <trkpt lat="45.00156" lon="4.99269">
        <ele>163.44799804688</ele>
        <time>2010-01-16T15:11:20Z</time>
      </trkpt>
      <trkpt lat="45.00182" lon="4.99206">
        <ele>163.73199462891</ele>
        <time>2010-01-16T15:11:27Z</time>
      </trkpt>
      <trkpt lat="45.00212" lon="4.99142">
        <ele>164.9700012207</ele>
        <time>2010-01-16T15:11:35Z</time>
      </trkpt>
      <trkpt lat="45.00234" lon="4.99081">
        <ele>164.9109954834</ele>
        <time>2010-01-16T15:11:43Z</time>
      </trkpt>
      <trkpt lat="45.00248" lon="4.99024">
        <ele>165.11199951172</ele>
        <time>2010-01-16T15:11:50Z</time>
      </trkpt>
      <trkpt lat="45.00259" lon="4.98948">
        <ele>165.58599853516</ele>
        <time>2010-01-16T15:11:59Z</time>
      </trkpt>
      <trkpt lat="45.00267" lon="4.98895">
        <ele>165.08399963379</ele>
        <time>2010-01-16T15:12:06Z</time>
      </trkpt>
      <trkpt lat="45.00272" lon="4.98832">
        <ele>165.90699768066</ele>
        <time>2010-01-16T15:12:15Z</time>
      </trkpt>
      <trkpt lat="45.00278" lon="4.98759">
        <ele>165.40100097656</ele>
        <time>2010-01-16T15:12:25Z</time>
      </trkpt>
      <trkpt lat="45.00284" lon="4.98684">
        <ele>165.54299926758</ele>
        <time>2010-01-16T15:12:35Z</time>
      </trkpt>
      <trkpt lat="45.00285" lon="4.98669">
        <ele>165.27900695801</ele>
        <time>2010-01-16T15:12:37Z</time>
      </trkpt>
      <trkpt lat="45.00288" lon="4.98635">
        <ele>165.35899353027</ele>
        <time>2010-01-16T15:12:42Z</time>
      </trkpt>
      <trkpt lat="45.0029" lon="4.98615">
        <ele>165.68099975586</ele>
        <time>2010-01-16T15:12:45Z</time>
      </trkpt>
      <trkpt lat="45.00291" lon="4.98602">
        <ele>165.71499633789</ele>
        <time>2010-01-16T15:12:47Z</time>
      </trkpt>
      <trkpt lat="45.00292" lon="4.98591">
        <ele>165.28399658203</ele>
        <time>2010-01-16T15:12:49Z</time>
      </trkpt>
      <trkpt lat="45.00296" lon="4.98543">
        <ele>164.38600158691</ele>
        <time>2010-01-16T15:12:56Z</time>
      </trkpt>
      <trkpt lat="45.00302" lon="4.98474">
        <ele>164.37600708008</ele>
        <time>2010-01-16T15:13:05Z</time>
      </trkpt>
      <trkpt lat="45.00304" lon="4.98443">
        <ele>164.01600646973</ele>
        <time>2010-01-16T15:13:09Z</time>
      </trkpt>
      <trkpt lat="45.00309" lon="4.9839">
        <ele>164.95599365234</ele>
        <time>2010-01-16T15:13:17Z</time>
      </trkpt>
      <trkpt lat="45.00311" lon="4.98366">
        <ele>164.73199462891</ele>
        <time>2010-01-16T15:13:21Z</time>
      </trkpt>
      <trkpt lat="45.00313" lon="4.98343">
        <ele>165.17799377441</ele>
        <time>2010-01-16T15:13:25Z</time>
      </trkpt>
      <trkpt lat="45.00325" lon="4.98291">
        <ele>165.63400268555</ele>
        <time>2010-01-16T15:13:33Z</time>
      </trkpt>
      <trkpt lat="45.00343" lon="4.98233">
        <ele>165.70500183106</ele>
        <time>2010-01-16T15:13:41Z</time>
      </trkpt>
      <trkpt lat="45.00372" lon="4.98137">
        <ele>165.29499816894</ele>
        <time>2010-01-16T15:13:53Z</time>
      </trkpt>
      <trkpt lat="45.004" lon="4.98047">
        <ele>165.01800537109</ele>
        <time>2010-01-16T15:14:04Z</time>
      </trkpt>
      <trkpt lat="45.00424" lon="4.97968">
        <ele>165.82499694824</ele>
        <time>2010-01-16T15:14:14Z</time>
      </trkpt>
      <trkpt lat="45.00435" lon="4.97914">
        <ele>166.77900695801</ele>
        <time>2010-01-16T15:14:22Z</time>
      </trkpt>
      <trkpt lat="45.00443" lon="4.97865">
        <ele>168.80700683594</ele>
        <time>2010-01-16T15:14:30Z</time>
      </trkpt>
      <trkpt lat="45.00451" lon="4.9782">
        <ele>170.11099243164</ele>
        <time>2010-01-16T15:14:38Z</time>
      </trkpt>
      <trkpt lat="45.00455" lon="4.97799">
        <ele>171.16000366211</ele>
        <time>2010-01-16T15:14:42Z</time>
      </trkpt>
      <trkpt lat="45.00463" lon="4.97755">
        <ele>171.74000549316</ele>
        <time>2010-01-16T15:14:50Z</time>
      </trkpt>
      <trkpt lat="45.00471" lon="4.97712">
        <ele>172.53300476074</ele>
        <time>2010-01-16T15:14:57Z</time>
      </trkpt>
      <trkpt lat="45.00481" lon="4.97656">
        <ele>172.53900146484</ele>
        <time>2010-01-16T15:15:06Z</time>
      </trkpt>
      <trkpt lat="45.00489" lon="4.97611">
        <ele>172.19099426269</ele>
        <time>2010-01-16T15:15:13Z</time>
      </trkpt>
      <trkpt lat="45.00498" lon="4.97564">
        <ele>171.86599731445</ele>
        <time>2010-01-16T15:15:20Z</time>
      </trkpt>
      <trkpt lat="45.00507" lon="4.97512">
        <ele>171.30299377441</ele>
        <time>2010-01-16T15:15:27Z</time>
      </trkpt>
      <trkpt lat="45.00518" lon="4.97453">
        <ele>170.25300598144</ele>
        <time>2010-01-16T15:15:35Z</time>
      </trkpt>
      <trkpt lat="45.00533" lon="4.97383">
        <ele>168.91000366211</ele>
        <time>2010-01-16T15:15:44Z</time>
      </trkpt>
      <trkpt lat="45.0055" lon="4.97306">
        <ele>167.4940032959</ele>
        <time>2010-01-16T15:15:53Z</time>
      </trkpt>
      <trkpt lat="45.00575" lon="4.97207">
        <ele>167.23199462891</ele>
        <time>2010-01-16T15:16:05Z</time>
      </trkpt>
      <trkpt lat="45.00598" lon="4.97116">
        <ele>164.46600341797</ele>
        <time>2010-01-16T15:16:16Z</time>
      </trkpt>
      <trkpt lat="45.00623" lon="4.97056">
        <ele>163.42599487305</ele>
        <time>2010-01-16T15:16:23Z</time>
      </trkpt>
      <trkpt lat="45.00665" lon="4.96957">
        <ele>162.18499755859</ele>
        <time>2010-01-16T15:16:34Z</time>
      </trkpt>
      <trkpt lat="45.00695" lon="4.96889">
        <ele>161.82099914551</ele>
        <time>2010-01-16T15:16:42Z</time>
      </trkpt>
      <trkpt lat="45.00731" lon="4.96812">
        <ele>161.16299438477</ele>
        <time>2010-01-16T15:16:52Z</time>
      </trkpt>
      <trkpt lat="45.00762" lon="4.96759">
        <ele>161.89300537109</ele>
        <time>2010-01-16T15:17:00Z</time>
      </trkpt>
      <trkpt lat="45.008" lon="4.96713">
        <ele>162.93600463867</ele>
        <time>2010-01-16T15:17:08Z</time>
      </trkpt>
      <trkpt lat="45.00836" lon="4.96662">
        <ele>162.52600097656</ele>
        <time>2010-01-16T15:17:16Z</time>
      </trkpt>
      <trkpt lat="45.00878" lon="4.96592">
        <ele>162.92900085449</ele>
        <time>2010-01-16T15:17:26Z</time>
      </trkpt>
      <trkpt lat="45.00912" lon="4.96529">
        <ele>162.87699890137</ele>
        <time>2010-01-16T15:17:35Z</time>
      </trkpt>
      <trkpt lat="45.00945" lon="4.96452">
        <ele>162.92700195312</ele>
        <time>2010-01-16T15:17:45Z</time>
      </trkpt>
      <trkpt lat="45.0098" lon="4.96371">
        <ele>162.97700500488</ele>
        <time>2010-01-16T15:17:56Z</time>
      </trkpt>
      <trkpt lat="45.00998" lon="4.96322">
        <ele>163.41299438477</ele>
        <time>2010-01-16T15:18:03Z</time>
      </trkpt>
      <trkpt lat="45.01008" lon="4.96278">
        <ele>163.59599304199</ele>
        <time>2010-01-16T15:18:09Z</time>
      </trkpt>
      <trkpt lat="45.01009" lon="4.96214">
        <ele>163.87600708008</ele>
        <time>2010-01-16T15:18:18Z</time>
      </trkpt>
      <trkpt lat="45.01009" lon="4.96141">
        <ele>164.65299987793</ele>
        <time>2010-01-16T15:18:28Z</time>
      </trkpt>
      <trkpt lat="45.01009" lon="4.96058">
        <ele>165.91299438477</ele>
        <time>2010-01-16T15:18:40Z</time>
      </trkpt>
      <trkpt lat="45.01005" lon="4.95981">
        <ele>167.90199279785</ele>
        <time>2010-01-16T15:18:52Z</time>
      </trkpt>
      <trkpt lat="45.01002" lon="4.95933">
        <ele>168.85899353027</ele>
        <time>2010-01-16T15:19:00Z</time>
      </trkpt>
      <trkpt lat="45.00999" lon="4.95882">
        <ele>169.33700561523</ele>
        <time>2010-01-16T15:19:09Z</time>
      </trkpt>
      <trkpt lat="45.00997" lon="4.95846">
        <ele>170.37899780273</ele>
        <time>2010-01-16T15:19:16Z</time>
      </trkpt>
      <trkpt lat="45.00997" lon="4.95804">
        <ele>171.64599609375</ele>
        <time>2010-01-16T15:19:24Z</time>
      </trkpt>
      <trkpt lat="45.00999" lon="4.9577">
        <ele>172.75100708008</ele>
        <time>2010-01-16T15:19:31Z</time>
      </trkpt>
      <trkpt lat="45.01004" lon="4.95736">
        <ele>174.48599243164</ele>
        <time>2010-01-16T15:19:39Z</time>
      </trkpt>
      <trkpt lat="45.0101" lon="4.95703">
        <ele>175.97099304199</ele>
        <time>2010-01-16T15:19:47Z</time>
      </trkpt>
      <trkpt lat="45.01016" lon="4.95673">
        <ele>176.94599914551</ele>
        <time>2010-01-16T15:19:54Z</time>
      </trkpt>
      <trkpt lat="45.01023" lon="4.95639">
        <ele>178.5299987793</ele>
        <time>2010-01-16T15:20:02Z</time>
      </trkpt>
      <trkpt lat="45.01032" lon="4.95603">
        <ele>180.20399475098</ele>
        <time>2010-01-16T15:20:10Z</time>
      </trkpt>
      <trkpt lat="45.01041" lon="4.9556">
        <ele>181.71699523926</ele>
        <time>2010-01-16T15:20:18Z</time>
      </trkpt>
      <trkpt lat="45.01049" lon="4.95524">
        <ele>183.72099304199</ele>
        <time>2010-01-16T15:20:26Z</time>
      </trkpt>
      <trkpt lat="45.01058" lon="4.95486">
        <ele>185.69700622559</ele>
        <time>2010-01-16T15:20:34Z</time>
      </trkpt>
      <trkpt lat="45.01067" lon="4.95443">
        <ele>187.46200561523</ele>
        <time>2010-01-16T15:20:42Z</time>
      </trkpt>
      <trkpt lat="45.01075" lon="4.95405">
        <ele>189.61799621582</ele>
        <time>2010-01-16T15:20:50Z</time>
      </trkpt>
      <trkpt lat="45.01077" lon="4.95389">
        <ele>190.16400146484</ele>
        <time>2010-01-16T15:20:55Z</time>
      </trkpt>
      <trkpt lat="45.01077" lon="4.95367">
        <ele>190.77299499512</ele>
        <time>2010-01-16T15:21:00Z</time>
      </trkpt>
      <trkpt lat="45.01078" lon="4.95344">
        <ele>191.91299438477</ele>
        <time>2010-01-16T15:21:05Z</time>
      </trkpt>
      <trkpt lat="45.01079" lon="4.95319">
        <ele>192.41499328613</ele>
        <time>2010-01-16T15:21:10Z</time>
      </trkpt>
      <trkpt lat="45.0108" lon="4.95294">
        <ele>193.12199401856</ele>
        <time>2010-01-16T15:21:15Z</time>
      </trkpt>
      <trkpt lat="45.01081" lon="4.95253">
        <ele>193.47599792481</ele>
        <time>2010-01-16T15:21:23Z</time>
      </trkpt>
      <trkpt lat="45.01091" lon="4.95204">
        <ele>193.61599731445</ele>
        <time>2010-01-16T15:21:32Z</time>
      </trkpt>
      <trkpt lat="45.01103" lon="4.95159">
        <ele>193.90299987793</ele>
        <time>2010-01-16T15:21:40Z</time>
      </trkpt>
      <trkpt lat="45.01114" lon="4.95135">
        <ele>193.70799255371</ele>
        <time>2010-01-16T15:21:45Z</time>
      </trkpt>
      <trkpt lat="45.01128" lon="4.95103">
        <ele>193.70199584961</ele>
        <time>2010-01-16T15:21:52Z</time>
      </trkpt>
      <trkpt lat="45.01144" lon="4.95075">
        <ele>192.74499511719</ele>
        <time>2010-01-16T15:21:58Z</time>
      </trkpt>
      <trkpt lat="45.01174" lon="4.95049">
        <ele>192.34399414062</ele>
        <time>2010-01-16T15:22:06Z</time>
      </trkpt>
      <trkpt lat="45.01193" lon="4.95039">
        <ele>191.32000732422</ele>
        <time>2010-01-16T15:22:10Z</time>
      </trkpt>
      <trkpt lat="45.01226" lon="4.95021">
        <ele>190.12600708008</ele>
        <time>2010-01-16T15:22:16Z</time>
      </trkpt>
      <trkpt lat="45.01246" lon="4.9501">
        <ele>188.63400268555</ele>
        <time>2010-01-16T15:22:19Z</time>
      </trkpt>
      <trkpt lat="45.01292" lon="4.94986">
        <ele>185.4700012207</ele>
        <time>2010-01-16T15:22:25Z</time>
      </trkpt>
      <trkpt lat="45.01334" lon="4.94964">
        <ele>182.8869934082</ele>
        <time>2010-01-16T15:22:30Z</time>
      </trkpt>
      <trkpt lat="45.01349" lon="4.94957">
        <ele>182.05000305176</ele>
        <time>2010-01-16T15:22:32Z</time>
      </trkpt>
      <trkpt lat="45.0136" lon="4.94951">
        <ele>179.63499450684</ele>
        <time>2010-01-16T15:22:37Z</time>
      </trkpt>
      <trkpt lat="45.014" lon="4.94928">
        <ele>178.54100036621</ele>
        <time>2010-01-16T15:22:39Z</time>
      </trkpt>
      <trkpt lat="45.01416" lon="4.94896">
        <ele>175.62100219727</ele>
        <time>2010-01-16T15:22:45Z</time>
      </trkpt>
      <trkpt lat="45.01451" lon="4.94766">
        <ele>171.39599609375</ele>
        <time>2010-01-16T15:22:52Z</time>
      </trkpt>
      <trkpt lat="45.01455" lon="4.94753">
        <ele>171.10699462891</ele>
        <time>2010-01-16T15:22:53Z</time>
      </trkpt>
      <trkpt lat="45.01481" lon="4.94672">
        <ele>169.33999633789</ele>
        <time>2010-01-16T15:22:59Z</time>
      </trkpt>
      <trkpt lat="45.01494" lon="4.94632">
        <ele>168.06799316406</ele>
        <time>2010-01-16T15:23:02Z</time>
      </trkpt>
      <trkpt lat="45.01519" lon="4.94563">
        <ele>165.71099853516</ele>
        <time>2010-01-16T15:23:07Z</time>
      </trkpt>
      <trkpt lat="45.01545" lon="4.94449">
        <ele>159.44700622559</ele>
        <time>2010-01-16T15:23:15Z</time>
      </trkpt>
      <trkpt lat="45.01545" lon="4.94449">
        <ele>158.79499816894</ele>
        <time>2010-01-16T15:23:16Z</time>
      </trkpt>
      <trkpt lat="45.01558" lon="4.94389">
        <ele>156.47599792481</ele>
        <time>2010-01-16T15:23:19Z</time>
      </trkpt>
      <trkpt lat="45.01556" lon="4.94379">
        <ele>156.21699523926</ele>
        <time>2010-01-16T15:23:20Z</time>
      </trkpt>
      <trkpt lat="45.01551" lon="4.94353">
        <ele>154.97099304199</ele>
        <time>2010-01-16T15:23:22Z</time>
      </trkpt>
      <trkpt lat="45.01534" lon="4.9428">
        <ele>150.7799987793</ele>
        <time>2010-01-16T15:23:27Z</time>
      </trkpt>
      <trkpt lat="45.01524" lon="4.94249">
        <ele>149.31399536133</ele>
        <time>2010-01-16T15:23:29Z</time>
      </trkpt>
      <trkpt lat="45.01503" lon="4.94186">
        <ele>145.46600341797</ele>
        <time>2010-01-16T15:23:33Z</time>
      </trkpt>
      <trkpt lat="45.01468" lon="4.94114">
        <ele>141.94000244141</ele>
        <time>2010-01-16T15:23:38Z</time>
      </trkpt>
      <trkpt lat="45.01425" lon="4.94044">
        <ele>137.48199462891</ele>
        <time>2010-01-16T15:23:43Z</time>
      </trkpt>
      <trkpt lat="45.01406" lon="4.93994">
        <ele>135.10200500488</ele>
        <time>2010-01-16T15:23:46Z</time>
      </trkpt>
      <trkpt lat="45.014" lon="4.93956">
        <ele>134.73300170898</ele>
        <time>2010-01-16T15:23:48Z</time>
      </trkpt>
      <trkpt lat="45.0141" lon="4.939">
        <ele>133.43099975586</ele>
        <time>2010-01-16T15:23:51Z</time>
      </trkpt>
      <trkpt lat="45.01417" lon="4.93884">
        <ele>132.80599975586</ele>
        <time>2010-01-16T15:23:52Z</time>
      </trkpt>
      <trkpt lat="45.01434" lon="4.93856">
        <ele>131.86199951172</ele>
        <time>2010-01-16T15:23:54Z</time>
      </trkpt>
      <trkpt lat="45.01458" lon="4.93795">
        <ele>130.9109954834</ele>
        <time>2010-01-16T15:23:58Z</time>
      </trkpt>
      <trkpt lat="45.01462" lon="4.93779">
        <ele>130.70300292969</ele>
        <time>2010-01-16T15:23:59Z</time>
      </trkpt>
      <trkpt lat="45.01471" lon="4.93746">
        <ele>130.83000183106</ele>
        <time>2010-01-16T15:24:02Z</time>
      </trkpt>
      <trkpt lat="45.0148" lon="4.93745">
        <ele>130.51300048828</ele>
        <time>2010-01-16T15:24:04Z</time>
      </trkpt>
      <trkpt lat="45.01493" lon="4.93774">
        <ele>130.33399963379</ele>
        <time>2010-01-16T15:24:07Z</time>
      </trkpt>
      <trkpt lat="45.01501" lon="4.93805">
        <ele>130.13499450684</ele>
        <time>2010-01-16T15:24:11Z</time>
      </trkpt>
      <trkpt lat="45.01505" lon="4.9382">
        <ele>129.77200317383</ele>
        <time>2010-01-16T15:24:13Z</time>
      </trkpt>
      <trkpt lat="45.01521" lon="4.93852">
        <ele>129.60099792481</ele>
        <time>2010-01-16T15:24:19Z</time>
      </trkpt>
      <trkpt lat="45.01527" lon="4.9387">
        <ele>129.64100646973</ele>
        <time>2010-01-16T15:24:23Z</time>
      </trkpt>
      <trkpt lat="45.01536" lon="4.93895">
        <ele>130.10400390625</ele>
        <time>2010-01-16T15:24:29Z</time>
      </trkpt>
      <trkpt lat="45.01545" lon="4.9391">
        <ele>130.43899536133</ele>
        <time>2010-01-16T15:24:35Z</time>
      </trkpt>
      <trkpt lat="45.01553" lon="4.93922">
        <ele>130.73899841309</ele>
        <time>2010-01-16T15:24:40Z</time>
      </trkpt>
      <trkpt lat="45.01554" lon="4.93924">
        <ele>131.11599731445</ele>
        <time>2010-01-16T15:24:41Z</time>
      </trkpt>
      <trkpt lat="45.01558" lon="4.9393">
        <ele>130.00999450684</ele>
        <time>2010-01-16T15:24:45Z</time>
      </trkpt>
      <trkpt lat="45.01563" lon="4.93926">
        <ele>129.81599426269</ele>
        <time>2010-01-16T15:24:47Z</time>
      </trkpt>
      <trkpt lat="45.01583" lon="4.93911">
        <ele>128.65400695801</ele>
        <time>2010-01-16T15:24:51Z</time>
      </trkpt>
      <trkpt lat="45.01609" lon="4.93891">
        <ele>127.30799865723</ele>
        <time>2010-01-16T15:24:57Z</time>
      </trkpt>
      <trkpt lat="45.01652" lon="4.93853">
        <ele>127.06500244141</ele>
        <time>2010-01-16T15:25:03Z</time>
      </trkpt>
      <trkpt lat="45.01681" lon="4.93826">
        <ele>127.39399719238</ele>
        <time>2010-01-16T15:25:09Z</time>
      </trkpt>
      <trkpt lat="45.01726" lon="4.93785">
        <ele>127.97899627685</ele>
        <time>2010-01-16T15:25:18Z</time>
      </trkpt>
      <trkpt lat="45.01776" lon="4.9374">
        <ele>127.42400360107</ele>
        <time>2010-01-16T15:25:27Z</time>
      </trkpt>
      <trkpt lat="45.01818" lon="4.93707">
        <ele>128.55799865723</ele>
        <time>2010-01-16T15:25:35Z</time>
      </trkpt>
      <trkpt lat="45.01859" lon="4.9368">
        <ele>129.7140045166</ele>
        <time>2010-01-16T15:25:44Z</time>
      </trkpt>
      <trkpt lat="45.01891" lon="4.93652">
        <ele>129.62300109863</ele>
        <time>2010-01-16T15:25:51Z</time>
      </trkpt>
      <trkpt lat="45.01933" lon="4.93606">
        <ele>129.54499816894</ele>
        <time>2010-01-16T15:26:00Z</time>
      </trkpt>
      <trkpt lat="45.01973" lon="4.93563">
        <ele>130.84100341797</ele>
        <time>2010-01-16T15:26:09Z</time>
      </trkpt>
      <trkpt lat="45.02019" lon="4.93521">
        <ele>132.55299377441</ele>
        <time>2010-01-16T15:26:20Z</time>
      </trkpt>
      <trkpt lat="45.02053" lon="4.93492">
        <ele>133.36399841309</ele>
        <time>2010-01-16T15:26:28Z</time>
      </trkpt>
      <trkpt lat="45.02079" lon="4.9347">
        <ele>133.99299621582</ele>
        <time>2010-01-16T15:26:34Z</time>
      </trkpt>
      <trkpt lat="45.02127" lon="4.9343">
        <ele>134.23500061035</ele>
        <time>2010-01-16T15:26:45Z</time>
      </trkpt>
      <trkpt lat="45.0217" lon="4.93395">
        <ele>134.30200195312</ele>
        <time>2010-01-16T15:26:54Z</time>
      </trkpt>
      <trkpt lat="45.02212" lon="4.93368">
        <ele>134.15199279785</ele>
        <time>2010-01-16T15:27:02Z</time>
      </trkpt>
      <trkpt lat="45.02245" lon="4.93355">
        <ele>134.34300231934</ele>
        <time>2010-01-16T15:27:09Z</time>
      </trkpt>
      <trkpt lat="45.02245" lon="4.93355">
        <ele>134.43899536133</ele>
        <time>2010-01-16T15:27:10Z</time>
      </trkpt>
      <trkpt lat="45.02303" lon="4.93358">
        <ele>133.95799255371</ele>
        <time>2010-01-16T15:27:18Z</time>
      </trkpt>
      <trkpt lat="45.02342" lon="4.9336">
        <ele>133.93099975586</ele>
        <time>2010-01-16T15:27:25Z</time>
      </trkpt>
      <trkpt lat="45.0239" lon="4.93363">
        <ele>133.72599792481</ele>
        <time>2010-01-16T15:27:33Z</time>
      </trkpt>
      <trkpt lat="45.02459" lon="4.93367">
        <ele>133.9049987793</ele>
        <time>2010-01-16T15:27:43Z</time>
      </trkpt>
      <trkpt lat="45.02512" lon="4.93362">
        <ele>134.03199768066</ele>
        <time>2010-01-16T15:27:51Z</time>
      </trkpt>
      <trkpt lat="45.02568" lon="4.93351">
        <ele>133.63999938965</ele>
        <time>2010-01-16T15:27:59Z</time>
      </trkpt>
      <trkpt lat="45.0262" lon="4.93322">
        <ele>133.69599914551</ele>
        <time>2010-01-16T15:28:07Z</time>
      </trkpt>
      <trkpt lat="45.0267" lon="4.9329">
        <ele>133.36999511719</ele>
        <time>2010-01-16T15:28:15Z</time>
      </trkpt>
      <trkpt lat="45.02728" lon="4.93248">
        <ele>133.55400085449</ele>
        <time>2010-01-16T15:28:25Z</time>
      </trkpt>
      <trkpt lat="45.02777" lon="4.93215">
        <ele>134.46699523926</ele>
        <time>2010-01-16T15:28:33Z</time>
      </trkpt>
      <trkpt lat="45.02835" lon="4.93175">
        <ele>135.43699645996</ele>
        <time>2010-01-16T15:28:43Z</time>
      </trkpt>
      <trkpt lat="45.0289" lon="4.93139">
        <ele>136.03900146484</ele>
        <time>2010-01-16T15:28:52Z</time>
      </trkpt>
      <trkpt lat="45.02928" lon="4.93121">
        <ele>136.11000061035</ele>
        <time>2010-01-16T15:28:58Z</time>
      </trkpt>
      <trkpt lat="45.0298" lon="4.93102">
        <ele>136.28300476074</ele>
        <time>2010-01-16T15:29:06Z</time>
      </trkpt>
      <trkpt lat="45.03041" lon="4.93085">
        <ele>136.45399475098</ele>
        <time>2010-01-16T15:29:15Z</time>
      </trkpt>
      <trkpt lat="45.03111" lon="4.93078">
        <ele>136.73699951172</ele>
        <time>2010-01-16T15:29:25Z</time>
      </trkpt>
      <trkpt lat="45.03176" lon="4.93063">
        <ele>137.27099609375</ele>
        <time>2010-01-16T15:29:35Z</time>
      </trkpt>
      <trkpt lat="45.03176" lon="4.93063">
        <ele>138.08000183106</ele>
        <time>2010-01-16T15:29:39Z</time>
      </trkpt>
      <trkpt lat="45.03217" lon="4.93045">
        <ele>136.7619934082</ele>
        <time>2010-01-16T15:29:42Z</time>
      </trkpt>
      <trkpt lat="45.03238" lon="4.93042">
        <ele>137.18699645996</ele>
        <time>2010-01-16T15:29:45Z</time>
      </trkpt>
      <trkpt lat="45.03251" lon="4.93051">
        <ele>137.67300415039</ele>
        <time>2010-01-16T15:29:47Z</time>
      </trkpt>
      <trkpt lat="45.03307" lon="4.93105">
        <ele>137.88200378418</ele>
        <time>2010-01-16T15:29:57Z</time>
      </trkpt>
      <trkpt lat="45.03344" lon="4.93126">
        <ele>137.88900756836</ele>
        <time>2010-01-16T15:30:03Z</time>
      </trkpt>
      <trkpt lat="45.03403" lon="4.93144">
        <ele>137.57600402832</ele>
        <time>2010-01-16T15:30:12Z</time>
      </trkpt>
      <trkpt lat="45.0348" lon="4.9316">
        <ele>137.78799438477</ele>
        <time>2010-01-16T15:30:23Z</time>
      </trkpt>
      <trkpt lat="45.0355" lon="4.93174">
        <ele>138.86399841309</ele>
        <time>2010-01-16T15:30:33Z</time>
      </trkpt>
      <trkpt lat="45.03609" lon="4.93186">
        <ele>140.40199279785</ele>
        <time>2010-01-16T15:30:42Z</time>
      </trkpt>
      <trkpt lat="45.03651" lon="4.93192">
        <ele>140.52099609375</ele>
        <time>2010-01-16T15:30:49Z</time>
      </trkpt>
      <trkpt lat="45.03696" lon="4.93179">
        <ele>140.95399475098</ele>
        <time>2010-01-16T15:30:56Z</time>
      </trkpt>
      <trkpt lat="45.03742" lon="4.9316">
        <ele>141.27600097656</ele>
        <time>2010-01-16T15:31:03Z</time>
      </trkpt>
      <trkpt lat="45.03783" lon="4.93143">
        <ele>141.15400695801</ele>
        <time>2010-01-16T15:31:09Z</time>
      </trkpt>
      <trkpt lat="45.03832" lon="4.93123">
        <ele>141.35000610352</ele>
        <time>2010-01-16T15:31:16Z</time>
      </trkpt>
      <trkpt lat="45.03911" lon="4.93091">
        <ele>141.64700317383</ele>
        <time>2010-01-16T15:31:27Z</time>
      </trkpt>
      <trkpt lat="45.0398" lon="4.93063">
        <ele>141.82099914551</ele>
        <time>2010-01-16T15:31:37Z</time>
      </trkpt>
      <trkpt lat="45.04029" lon="4.93056">
        <ele>141.89900207519</ele>
        <time>2010-01-16T15:31:44Z</time>
      </trkpt>
      <trkpt lat="45.04103" lon="4.93053">
        <ele>141.94900512695</ele>
        <time>2010-01-16T15:31:54Z</time>
      </trkpt>
      <trkpt lat="45.04176" lon="4.9306">
        <ele>141.97799682617</ele>
        <time>2010-01-16T15:32:04Z</time>
      </trkpt>
      <trkpt lat="45.04232" lon="4.93071">
        <ele>141.94200134277</ele>
        <time>2010-01-16T15:32:12Z</time>
      </trkpt>
      <trkpt lat="45.04302" lon="4.93098">
        <ele>142.33299255371</ele>
        <time>2010-01-16T15:32:22Z</time>
      </trkpt>
      <trkpt lat="45.04395" lon="4.93133">
        <ele>142.30799865723</ele>
        <time>2010-01-16T15:32:35Z</time>
      </trkpt>
      <trkpt lat="45.04491" lon="4.93173">
        <ele>142.46499633789</ele>
        <time>2010-01-16T15:32:48Z</time>
      </trkpt>
      <trkpt lat="45.04565" lon="4.93198">
        <ele>142.64599609375</ele>
        <time>2010-01-16T15:32:58Z</time>
      </trkpt>
      <trkpt lat="45.0461" lon="4.93204">
        <ele>142.42500305176</ele>
        <time>2010-01-16T15:33:04Z</time>
      </trkpt>
      <trkpt lat="45.04691" lon="4.93197">
        <ele>142.26899719238</ele>
        <time>2010-01-16T15:33:15Z</time>
      </trkpt>
      <trkpt lat="45.04749" lon="4.93182">
        <ele>142.48199462891</ele>
        <time>2010-01-16T15:33:23Z</time>
      </trkpt>
      <trkpt lat="45.04813" lon="4.93161">
        <ele>142.60000610352</ele>
        <time>2010-01-16T15:33:32Z</time>
      </trkpt>
      <trkpt lat="45.04898" lon="4.93133">
        <ele>142.65600585938</ele>
        <time>2010-01-16T15:33:44Z</time>
      </trkpt>
      <trkpt lat="45.04974" lon="4.93107">
        <ele>142.94500732422</ele>
        <time>2010-01-16T15:33:55Z</time>
      </trkpt>
      <trkpt lat="45.05056" lon="4.93091">
        <ele>143.9940032959</ele>
        <time>2010-01-16T15:34:07Z</time>
      </trkpt>
      <trkpt lat="45.0511" lon="4.93079">
        <ele>145.18299865723</ele>
        <time>2010-01-16T15:34:16Z</time>
      </trkpt>
      <trkpt lat="45.05179" lon="4.93062">
        <ele>146.34100341797</ele>
        <time>2010-01-16T15:34:29Z</time>
      </trkpt>
      <trkpt lat="45.05219" lon="4.93054">
        <ele>147.27900695801</ele>
        <time>2010-01-16T15:34:37Z</time>
      </trkpt>
      <trkpt lat="45.05251" lon="4.93054">
        <ele>148.38800048828</ele>
        <time>2010-01-16T15:34:43Z</time>
      </trkpt>
      <trkpt lat="45.05282" lon="4.93054">
        <ele>149.28500366211</ele>
        <time>2010-01-16T15:34:49Z</time>
      </trkpt>
      <trkpt lat="45.05308" lon="4.93054">
        <ele>149.55999755859</ele>
        <time>2010-01-16T15:34:55Z</time>
      </trkpt>
      <trkpt lat="45.05317" lon="4.93054">
        <ele>149.61799621582</ele>
        <time>2010-01-16T15:35:00Z</time>
      </trkpt>
      <trkpt lat="45.05356" lon="4.93089">
        <ele>150.05299377441</ele>
        <time>2010-01-16T15:35:07Z</time>
      </trkpt>
      <trkpt lat="45.05376" lon="4.93107">
        <ele>150.28199768066</ele>
        <time>2010-01-16T15:35:13Z</time>
      </trkpt>
      <trkpt lat="45.0538" lon="4.9311">
        <ele>150.18099975586</ele>
        <time>2010-01-16T15:35:15Z</time>
      </trkpt>
      <trkpt lat="45.05387" lon="4.93116">
        <ele>150.35400390625</ele>
        <time>2010-01-16T15:35:22Z</time>
      </trkpt>
      <trkpt lat="45.05389" lon="4.93118">
        <ele>150.42300415039</ele>
        <time>2010-01-16T15:35:23Z</time>
      </trkpt>
      <trkpt lat="45.0539" lon="4.93119">
        <ele>150.23399353027</ele>
        <time>2010-01-16T15:35:27Z</time>
      </trkpt>
      <trkpt lat="45.0539" lon="4.93119">
        <ele>150.18899536133</ele>
        <time>2010-01-16T15:35:28Z</time>
      </trkpt>
      <trkpt lat="45.05401" lon="4.93064">
        <ele>150.28100585938</ele>
        <time>2010-01-16T15:35:35Z</time>
      </trkpt>
      <trkpt lat="45.05414" lon="4.93009">
        <ele>150.0359954834</ele>
        <time>2010-01-16T15:35:44Z</time>
      </trkpt>
      <trkpt lat="45.05424" lon="4.92961">
        <ele>150.17599487305</ele>
        <time>2010-01-16T15:35:51Z</time>
      </trkpt>
      <trkpt lat="45.05437" lon="4.92905">
        <ele>149.97799682617</ele>
        <time>2010-01-16T15:35:59Z</time>
      </trkpt>
      <trkpt lat="45.05448" lon="4.92854">
        <ele>150.35299682617</ele>
        <time>2010-01-16T15:36:06Z</time>
      </trkpt>
      <trkpt lat="45.0545" lon="4.92844">
        <ele>149.97599792481</ele>
        <time>2010-01-16T15:36:11Z</time>
      </trkpt>
      <trkpt lat="45.0548" lon="4.92801">
        <ele>150.28399658203</ele>
        <time>2010-01-16T15:36:16Z</time>
      </trkpt>
      <trkpt lat="45.05488" lon="4.92758">
        <ele>150.04499816894</ele>
        <time>2010-01-16T15:36:21Z</time>
      </trkpt>
      <trkpt lat="45.05495" lon="4.92734">
        <ele>150.21000671387</ele>
        <time>2010-01-16T15:36:26Z</time>
      </trkpt>
      <trkpt lat="45.05496" lon="4.92724">
        <ele>150.00300598144</ele>
        <time>2010-01-16T15:36:28Z</time>
      </trkpt>
      <trkpt lat="45.05501" lon="4.92683">
        <ele>150.32600402832</ele>
        <time>2010-01-16T15:36:35Z</time>
      </trkpt>
      <trkpt lat="45.05514" lon="4.92633">
        <ele>151.11099243164</ele>
        <time>2010-01-16T15:36:43Z</time>
      </trkpt>
      <trkpt lat="45.05523" lon="4.92606">
        <ele>151.20500183106</ele>
        <time>2010-01-16T15:36:48Z</time>
      </trkpt>
      <trkpt lat="45.05526" lon="4.92601">
        <ele>150.87899780273</ele>
        <time>2010-01-16T15:36:49Z</time>
      </trkpt>
      <trkpt lat="45.05536" lon="4.92575">
        <ele>151.11700439453</ele>
        <time>2010-01-16T15:36:53Z</time>
      </trkpt>
      <trkpt lat="45.0556" lon="4.92552">
        <ele>150.84899902344</ele>
        <time>2010-01-16T15:36:58Z</time>
      </trkpt>
      <trkpt lat="45.05576" lon="4.92542">
        <ele>151.25799560547</ele>
        <time>2010-01-16T15:37:01Z</time>
      </trkpt>
      <trkpt lat="45.05597" lon="4.92537">
        <ele>151.36199951172</ele>
        <time>2010-01-16T15:37:05Z</time>
      </trkpt>
      <trkpt lat="45.05616" lon="4.92535">
        <ele>151.34399414062</ele>
        <time>2010-01-16T15:37:09Z</time>
      </trkpt>
      <trkpt lat="45.05658" lon="4.92529">
        <ele>151.64900207519</ele>
        <time>2010-01-16T15:37:18Z</time>
      </trkpt>
      <trkpt lat="45.05667" lon="4.92528">
        <ele>152.09300231934</ele>
        <time>2010-01-16T15:37:20Z</time>
      </trkpt>
      <trkpt lat="45.05678" lon="4.92526">
        <ele>153.26600646973</ele>
        <time>2010-01-16T15:37:24Z</time>
      </trkpt>
      <trkpt lat="45.05689" lon="4.92556">
        <ele>153.95599365234</ele>
        <time>2010-01-16T15:37:27Z</time>
      </trkpt>
      <trkpt lat="45.05688" lon="4.9258">
        <ele>154.10499572754</ele>
        <time>2010-01-16T15:37:31Z</time>
      </trkpt>
      <trkpt lat="45.05688" lon="4.92604">
        <ele>154.53199768066</ele>
        <time>2010-01-16T15:37:35Z</time>
      </trkpt>
      <trkpt lat="45.05714" lon="4.92646">
        <ele>155.73599243164</ele>
        <time>2010-01-16T15:37:44Z</time>
      </trkpt>
      <trkpt lat="45.05744" lon="4.92687">
        <ele>156.26499938965</ele>
        <time>2010-01-16T15:37:53Z</time>
      </trkpt>
      <trkpt lat="45.05759" lon="4.92707">
        <ele>156.94400024414</ele>
        <time>2010-01-16T15:38:02Z</time>
      </trkpt>
      <trkpt lat="45.05804" lon="4.92759">
        <ele>156.90899658203</ele>
        <time>2010-01-16T15:38:09Z</time>
      </trkpt>
      <trkpt lat="45.05848" lon="4.92809">
        <ele>157.74299621582</ele>
        <time>2010-01-16T15:38:20Z</time>
      </trkpt>
      <trkpt lat="45.05884" lon="4.9285">
        <ele>158.05400085449</ele>
        <time>2010-01-16T15:38:29Z</time>
      </trkpt>
      <trkpt lat="45.0592" lon="4.92884">
        <ele>158.60499572754</ele>
        <time>2010-01-16T15:38:37Z</time>
      </trkpt>
      <trkpt lat="45.05971" lon="4.92921">
        <ele>158.97799682617</ele>
        <time>2010-01-16T15:38:47Z</time>
      </trkpt>
      <trkpt lat="45.06012" lon="4.92951">
        <ele>159.40400695801</ele>
        <time>2010-01-16T15:38:58Z</time>
      </trkpt>
      <trkpt lat="45.06083" lon="4.92996">
        <ele>160.04299926758</ele>
        <time>2010-01-16T15:39:09Z</time>
      </trkpt>
      <trkpt lat="45.06148" lon="4.93038">
        <ele>161.14399719238</ele>
        <time>2010-01-16T15:39:22Z</time>
      </trkpt>
      <trkpt lat="45.06207" lon="4.93066">
        <ele>161.46099853516</ele>
        <time>2010-01-16T15:39:33Z</time>
      </trkpt>
      <trkpt lat="45.0627" lon="4.93095">
        <ele>162.20799255371</ele>
        <time>2010-01-16T15:39:44Z</time>
      </trkpt>
      <trkpt lat="45.06332" lon="4.93125">
        <ele>162.44599914551</ele>
        <time>2010-01-16T15:39:55Z</time>
      </trkpt>
      <trkpt lat="45.06396" lon="4.93155">
        <ele>162.86399841309</ele>
        <time>2010-01-16T15:40:06Z</time>
      </trkpt>
      <trkpt lat="45.06454" lon="4.9318">
        <ele>163.16900634766</ele>
        <time>2010-01-16T15:40:16Z</time>
      </trkpt>
      <trkpt lat="45.06513" lon="4.93204">
        <ele>163.18600463867</ele>
        <time>2010-01-16T15:40:26Z</time>
      </trkpt>
      <trkpt lat="45.06584" lon="4.93219">
        <ele>162.71600341797</ele>
        <time>2010-01-16T15:40:37Z</time>
      </trkpt>
      <trkpt lat="45.06663" lon="4.93229">
        <ele>163.22399902344</ele>
        <time>2010-01-16T15:40:49Z</time>
      </trkpt>
      <trkpt lat="45.06726" lon="4.93255">
        <ele>163.9880065918</ele>
        <time>2010-01-16T15:40:59Z</time>
      </trkpt>
      <trkpt lat="45.06791" lon="4.93284">
        <ele>165.06199645996</ele>
        <time>2010-01-16T15:41:10Z</time>
      </trkpt>
      <trkpt lat="45.06868" lon="4.93316">
        <ele>165.5059967041</ele>
        <time>2010-01-16T15:41:23Z</time>
      </trkpt>
      <trkpt lat="45.06937" lon="4.93345">
        <ele>166.20500183106</ele>
        <time>2010-01-16T15:41:35Z</time>
      </trkpt>
      <trkpt lat="45.07002" lon="4.93369">
        <ele>166.80200195312</ele>
        <time>2010-01-16T15:41:46Z</time>
      </trkpt>
      <trkpt lat="45.07067" lon="4.93397">
        <ele>167.34100341797</ele>
        <time>2010-01-16T15:41:57Z</time>
      </trkpt>
      <trkpt lat="45.07125" lon="4.93424">
        <ele>167.44599914551</ele>
        <time>2010-01-16T15:42:07Z</time>
      </trkpt>
      <trkpt lat="45.07197" lon="4.93458">
        <ele>168.05099487305</ele>
        <time>2010-01-16T15:42:19Z</time>
      </trkpt>
      <trkpt lat="45.07265" lon="4.9349">
        <ele>167.9109954834</ele>
        <time>2010-01-16T15:42:30Z</time>
      </trkpt>
      <trkpt lat="45.07335" lon="4.93524">
        <ele>167.53799438477</ele>
        <time>2010-01-16T15:42:41Z</time>
      </trkpt>
      <trkpt lat="45.07396" lon="4.93549">
        <ele>167.86000061035</ele>
        <time>2010-01-16T15:42:51Z</time>
      </trkpt>
      <trkpt lat="45.07462" lon="4.93568">
        <ele>168.64399719238</ele>
        <time>2010-01-16T15:43:02Z</time>
      </trkpt>
      <trkpt lat="45.07515" lon="4.93583">
        <ele>169.26300048828</ele>
        <time>2010-01-16T15:43:11Z</time>
      </trkpt>
      <trkpt lat="45.0759" lon="4.93604">
        <ele>170.625</ele>
        <time>2010-01-16T15:43:24Z</time>
      </trkpt>
      <trkpt lat="45.07666" lon="4.93625">
        <ele>171.7200012207</ele>
        <time>2010-01-16T15:43:37Z</time>
      </trkpt>
      <trkpt lat="45.07726" lon="4.93642">
        <ele>171.83000183106</ele>
        <time>2010-01-16T15:43:47Z</time>
      </trkpt>
      <trkpt lat="45.07806" lon="4.93665">
        <ele>172.66999816894</ele>
        <time>2010-01-16T15:44:00Z</time>
      </trkpt>
      <trkpt lat="45.07874" lon="4.93684">
        <ele>173.49899291992</ele>
        <time>2010-01-16T15:44:11Z</time>
      </trkpt>
      <trkpt lat="45.07941" lon="4.93703">
        <ele>173.5</ele>
        <time>2010-01-16T15:44:22Z</time>
      </trkpt>
      <trkpt lat="45.0802" lon="4.93725">
        <ele>173.74800109863</ele>
        <time>2010-01-16T15:44:34Z</time>
      </trkpt>
      <trkpt lat="45.08093" lon="4.93742">
        <ele>173.72599792481</ele>
        <time>2010-01-16T15:44:45Z</time>
      </trkpt>
      <trkpt lat="45.08156" lon="4.93745">
        <ele>173.71699523926</ele>
        <time>2010-01-16T15:44:54Z</time>
      </trkpt>
      <trkpt lat="45.08219" lon="4.93734">
        <ele>173.67599487305</ele>
        <time>2010-01-16T15:45:03Z</time>
      </trkpt>
      <trkpt lat="45.08289" lon="4.93722">
        <ele>174.01800537109</ele>
        <time>2010-01-16T15:45:13Z</time>
      </trkpt>
      <trkpt lat="45.08356" lon="4.9371">
        <ele>175.10299682617</ele>
        <time>2010-01-16T15:45:23Z</time>
      </trkpt>
      <trkpt lat="45.08428" lon="4.93698">
        <ele>176.87600708008</ele>
        <time>2010-01-16T15:45:34Z</time>
      </trkpt>
      <trkpt lat="45.08486" lon="4.93688">
        <ele>177.24600219727</ele>
        <time>2010-01-16T15:45:43Z</time>
      </trkpt>
      <trkpt lat="45.08542" lon="4.93675">
        <ele>178.73300170898</ele>
        <time>2010-01-16T15:45:52Z</time>
      </trkpt>
      <trkpt lat="45.08595" lon="4.93652">
        <ele>179.46899414062</ele>
        <time>2010-01-16T15:46:01Z</time>
      </trkpt>
      <trkpt lat="45.08657" lon="4.93613">
        <ele>180.35299682617</ele>
        <time>2010-01-16T15:46:12Z</time>
      </trkpt>
      <trkpt lat="45.08707" lon="4.93582">
        <ele>181.03300476074</ele>
        <time>2010-01-16T15:46:21Z</time>
      </trkpt>
      <trkpt lat="45.08762" lon="4.93569">
        <ele>182.06100463867</ele>
        <time>2010-01-16T15:46:30Z</time>
      </trkpt>
      <trkpt lat="45.08816" lon="4.93569">
        <ele>183.16700744629</ele>
        <time>2010-01-16T15:46:39Z</time>
      </trkpt>
      <trkpt lat="45.0887" lon="4.93569">
        <ele>184.28500366211</ele>
        <time>2010-01-16T15:46:48Z</time>
      </trkpt>
      <trkpt lat="45.08937" lon="4.93584">
        <ele>184.70899963379</ele>
        <time>2010-01-16T15:46:59Z</time>
      </trkpt>
      <trkpt lat="45.09012" lon="4.93606">
        <ele>185.34300231934</ele>
        <time>2010-01-16T15:47:11Z</time>
      </trkpt>
      <trkpt lat="45.09096" lon="4.93632">
        <ele>185.49000549316</ele>
        <time>2010-01-16T15:47:24Z</time>
      </trkpt>
      <trkpt lat="45.09182" lon="4.93658">
        <ele>185.64300537109</ele>
        <time>2010-01-16T15:47:37Z</time>
      </trkpt>
      <trkpt lat="45.09255" lon="4.9368">
        <ele>185.62199401856</ele>
        <time>2010-01-16T15:47:48Z</time>
      </trkpt>
      <trkpt lat="45.09308" lon="4.93697">
        <ele>185.80499267578</ele>
        <time>2010-01-16T15:47:56Z</time>
      </trkpt>
      <trkpt lat="45.09356" lon="4.93736">
        <ele>186.56399536133</ele>
        <time>2010-01-16T15:48:04Z</time>
      </trkpt>
      <trkpt lat="45.0939" lon="4.9379">
        <ele>187.15100097656</ele>
        <time>2010-01-16T15:48:12Z</time>
      </trkpt>
      <trkpt lat="45.09428" lon="4.9386">
        <ele>187.7140045166</ele>
        <time>2010-01-16T15:48:22Z</time>
      </trkpt>
      <trkpt lat="45.09458" lon="4.93915">
        <ele>188.01499938965</ele>
        <time>2010-01-16T15:48:30Z</time>
      </trkpt>
      <trkpt lat="45.09502" lon="4.94003">
        <ele>188.44200134277</ele>
        <time>2010-01-16T15:48:42Z</time>
      </trkpt>
      <trkpt lat="45.09541" lon="4.94081">
        <ele>189.39700317383</ele>
        <time>2010-01-16T15:48:53Z</time>
      </trkpt>
      <trkpt lat="45.09574" lon="4.94148">
        <ele>190</ele>
        <time>2010-01-16T15:49:03Z</time>
      </trkpt>
      <trkpt lat="45.09618" lon="4.9423">
        <ele>190.32800292969</ele>
        <time>2010-01-16T15:49:15Z</time>
      </trkpt>
      <trkpt lat="45.09655" lon="4.9428">
        <ele>189.65600585938</ele>
        <time>2010-01-16T15:49:23Z</time>
      </trkpt>
      <trkpt lat="45.0969" lon="4.94329">
        <ele>188.17599487305</ele>
        <time>2010-01-16T15:49:30Z</time>
      </trkpt>
      <trkpt lat="45.09743" lon="4.94378">
        <ele>185.89700317383</ele>
        <time>2010-01-16T15:49:38Z</time>
      </trkpt>
      <trkpt lat="45.0978" lon="4.94412">
        <ele>184.24699401856</ele>
        <time>2010-01-16T15:49:43Z</time>
      </trkpt>
      <trkpt lat="45.09804" lon="4.94434">
        <ele>182.87800598144</ele>
        <time>2010-01-16T15:49:46Z</time>
      </trkpt>
      <trkpt lat="45.09812" lon="4.94442">
        <ele>182.77000427246</ele>
        <time>2010-01-16T15:49:47Z</time>
      </trkpt>
      <trkpt lat="45.0986" lon="4.9449">
        <ele>181.19700622559</ele>
        <time>2010-01-16T15:49:53Z</time>
      </trkpt>
      <trkpt lat="45.09889" lon="4.94528">
        <ele>180.50799560547</ele>
        <time>2010-01-16T15:49:57Z</time>
      </trkpt>
      <trkpt lat="45.09903" lon="4.94547">
        <ele>179.77099609375</ele>
        <time>2010-01-16T15:49:59Z</time>
      </trkpt>
      <trkpt lat="45.09941" lon="4.94598">
        <ele>180.88000488281</ele>
        <time>2010-01-16T15:50:05Z</time>
      </trkpt>
      <trkpt lat="45.09971" lon="4.94631">
        <ele>181.50100708008</ele>
        <time>2010-01-16T15:50:10Z</time>
      </trkpt>
      <trkpt lat="45.10019" lon="4.94679">
        <ele>182.50300598144</ele>
        <time>2010-01-16T15:50:18Z</time>
      </trkpt>
      <trkpt lat="45.10073" lon="4.94725">
        <ele>183.61199951172</ele>
        <time>2010-01-16T15:50:27Z</time>
      </trkpt>
      <trkpt lat="45.10114" lon="4.94759">
        <ele>184.41200256348</ele>
        <time>2010-01-16T15:50:34Z</time>
      </trkpt>
      <trkpt lat="45.10187" lon="4.94808">
        <ele>185.33999633789</ele>
        <time>2010-01-16T15:50:46Z</time>
      </trkpt>
      <trkpt lat="45.1023" lon="4.94837">
        <ele>186.04899597168</ele>
        <time>2010-01-16T15:50:54Z</time>
      </trkpt>
      <trkpt lat="45.1026" lon="4.94856">
        <ele>187.06199645996</ele>
        <time>2010-01-16T15:51:00Z</time>
      </trkpt>
      <trkpt lat="45.10297" lon="4.94878">
        <ele>187.3630065918</ele>
        <time>2010-01-16T15:51:07Z</time>
      </trkpt>
      <trkpt lat="45.10353" lon="4.94911">
        <ele>188.14999389648</ele>
        <time>2010-01-16T15:51:17Z</time>
      </trkpt>
      <trkpt lat="45.10404" lon="4.94942">
        <ele>188.25300598144</ele>
        <time>2010-01-16T15:51:26Z</time>
      </trkpt>
      <trkpt lat="45.10434" lon="4.94963">
        <ele>188.41400146484</ele>
        <time>2010-01-16T15:51:33Z</time>
      </trkpt>
      <trkpt lat="45.10446" lon="4.94973">
        <ele>188.44000244141</ele>
        <time>2010-01-16T15:51:37Z</time>
      </trkpt>
      <trkpt lat="45.10466" lon="4.95007">
        <ele>187.9640045166</ele>
        <time>2010-01-16T15:51:41Z</time>
      </trkpt>
      <trkpt lat="45.10506" lon="4.95003">
        <ele>189.15100097656</ele>
        <time>2010-01-16T15:51:48Z</time>
      </trkpt>
      <trkpt lat="45.10546" lon="4.9502">
        <ele>189.74600219727</ele>
        <time>2010-01-16T15:51:55Z</time>
      </trkpt>
      <trkpt lat="45.106" lon="4.95044">
        <ele>190.34199523926</ele>
        <time>2010-01-16T15:52:04Z</time>
      </trkpt>
      <trkpt lat="45.10659" lon="4.9507">
        <ele>190.60000610352</ele>
        <time>2010-01-16T15:52:14Z</time>
      </trkpt>
      <trkpt lat="45.10715" lon="4.95098">
        <ele>190.83500671387</ele>
        <time>2010-01-16T15:52:24Z</time>
      </trkpt>
      <trkpt lat="45.10759" lon="4.95131">
        <ele>191.03999328613</ele>
        <time>2010-01-16T15:52:32Z</time>
      </trkpt>
      <trkpt lat="45.10809" lon="4.95185">
        <ele>191.42500305176</ele>
        <time>2010-01-16T15:52:42Z</time>
      </trkpt>
      <trkpt lat="45.10858" lon="4.95245">
        <ele>191.6369934082</ele>
        <time>2010-01-16T15:52:52Z</time>
      </trkpt>
      <trkpt lat="45.10904" lon="4.95309">
        <ele>192.16200256348</ele>
        <time>2010-01-16T15:53:02Z</time>
      </trkpt>
      <trkpt lat="45.10922" lon="4.95342">
        <ele>192.44900512695</ele>
        <time>2010-01-16T15:53:08Z</time>
      </trkpt>
      <trkpt lat="45.10945" lon="4.95436">
        <ele>192.86000061035</ele>
        <time>2010-01-16T15:53:17Z</time>
      </trkpt>
      <trkpt lat="45.10961" lon="4.95501">
        <ele>192.69200134277</ele>
        <time>2010-01-16T15:53:25Z</time>
      </trkpt>
      <trkpt lat="45.10973" lon="4.95535">
        <ele>193.35899353027</ele>
        <time>2010-01-16T15:53:33Z</time>
      </trkpt>
      <trkpt lat="45.11014" lon="4.95601">
        <ele>194.31500244141</ele>
        <time>2010-01-16T15:53:40Z</time>
      </trkpt>
      <trkpt lat="45.11042" lon="4.95633">
        <ele>194.53199768066</ele>
        <time>2010-01-16T15:53:46Z</time>
      </trkpt>
      <trkpt lat="45.11073" lon="4.95665">
        <ele>194.49000549316</ele>
        <time>2010-01-16T15:53:52Z</time>
      </trkpt>
      <trkpt lat="45.11084" lon="4.95676">
        <ele>194.34399414062</ele>
        <time>2010-01-16T15:53:54Z</time>
      </trkpt>
      <trkpt lat="45.11116" lon="4.95716">
        <ele>194.52099609375</ele>
        <time>2010-01-16T15:54:00Z</time>
      </trkpt>
      <trkpt lat="45.11147" lon="4.95774">
        <ele>193.52099609375</ele>
        <time>2010-01-16T15:54:07Z</time>
      </trkpt>
      <trkpt lat="45.11181" lon="4.95828">
        <ele>193.46499633789</ele>
        <time>2010-01-16T15:54:14Z</time>
      </trkpt>
      <trkpt lat="45.11215" lon="4.95879">
        <ele>193.7799987793</ele>
        <time>2010-01-16T15:54:21Z</time>
      </trkpt>
      <trkpt lat="45.11244" lon="4.95921">
        <ele>193.54400634766</ele>
        <time>2010-01-16T15:54:28Z</time>
      </trkpt>
      <trkpt lat="45.11277" lon="4.95979">
        <ele>194.43800354004</ele>
        <time>2010-01-16T15:54:35Z</time>
      </trkpt>
      <trkpt lat="45.11295" lon="4.96011">
        <ele>195.91900634766</ele>
        <time>2010-01-16T15:54:42Z</time>
      </trkpt>
      <trkpt lat="45.11336" lon="4.96074">
        <ele>196.44500732422</ele>
        <time>2010-01-16T15:54:48Z</time>
      </trkpt>
      <trkpt lat="45.11372" lon="4.96135">
        <ele>196.56199645996</ele>
        <time>2010-01-16T15:54:56Z</time>
      </trkpt>
      <trkpt lat="45.11395" lon="4.96184">
        <ele>197.21299743652</ele>
        <time>2010-01-16T15:55:02Z</time>
      </trkpt>
      <trkpt lat="45.11418" lon="4.96232">
        <ele>197.49000549316</ele>
        <time>2010-01-16T15:55:08Z</time>
      </trkpt>
      <trkpt lat="45.11444" lon="4.96285">
        <ele>197.44099426269</ele>
        <time>2010-01-16T15:55:15Z</time>
      </trkpt>
      <trkpt lat="45.11472" lon="4.96335">
        <ele>196.56500244141</ele>
        <time>2010-01-16T15:55:22Z</time>
      </trkpt>
      <trkpt lat="45.11502" lon="4.96383">
        <ele>196.24299621582</ele>
        <time>2010-01-16T15:55:29Z</time>
      </trkpt>
      <trkpt lat="45.11532" lon="4.9643">
        <ele>195.32699584961</ele>
        <time>2010-01-16T15:55:36Z</time>
      </trkpt>
      <trkpt lat="45.11549" lon="4.96457">
        <ele>195.65600585938</ele>
        <time>2010-01-16T15:55:40Z</time>
      </trkpt>
      <trkpt lat="45.11569" lon="4.96489">
        <ele>195.05599975586</ele>
        <time>2010-01-16T15:55:45Z</time>
      </trkpt>
      <trkpt lat="45.1158" lon="4.96484">
        <ele>195.46699523926</ele>
        <time>2010-01-16T15:55:49Z</time>
      </trkpt>
      <trkpt lat="45.1158" lon="4.96462">
        <ele>196.1309967041</ele>
        <time>2010-01-16T15:55:54Z</time>
      </trkpt>
      <trkpt lat="45.1158" lon="4.96455">
        <ele>196.17100524902</ele>
        <time>2010-01-16T15:55:56Z</time>
      </trkpt>
      <trkpt lat="45.11559" lon="4.96473">
        <ele>195.80599975586</ele>
        <time>2010-01-16T15:56:00Z</time>
      </trkpt>
      <trkpt lat="45.11559" lon="4.96473">
        <ele>195.79699707031</ele>
        <time>2010-01-16T15:56:38Z</time>
      </trkpt>
      <trkpt lat="45.11559" lon="4.96473">
        <ele>195.92700195312</ele>
        <time>2010-01-16T15:56:39Z</time>
      </trkpt>
      <trkpt lat="45.11555" lon="4.96466">
        <ele>196.02900695801</ele>
        <time>2010-01-16T15:56:44Z</time>
      </trkpt>
      <trkpt lat="45.11548" lon="4.96456">
        <ele>195.94599914551</ele>
        <time>2010-01-16T15:56:48Z</time>
      </trkpt>
      <trkpt lat="45.11543" lon="4.96448">
        <ele>196.83200073242</ele>
        <time>2010-01-16T15:56:51Z</time>
      </trkpt>
      <trkpt lat="45.11543" lon="4.96448">
        <ele>197.33200073242</ele>
        <time>2010-01-16T15:56:55Z</time>
      </trkpt>
      <trkpt lat="45.11544" lon="4.96449">
        <ele>196.90800476074</ele>
        <time>2010-01-16T15:56:57Z</time>
      </trkpt>
      <trkpt lat="45.11544" lon="4.96449">
        <ele>196.81300354004</ele>
        <time>2010-01-16T15:57:05Z</time>
      </trkpt>
      <trkpt lat="45.11544" lon="4.96449">
        <ele>197.1190032959</ele>
        <time>2010-01-16T15:57:15Z</time>
      </trkpt>
      <trkpt lat="45.11544" lon="4.96449">
        <ele>197.1549987793</ele>
        <time>2010-01-16T15:57:16Z</time>
      </trkpt>
    </trkseg>
  </trk>
</gpx>